<?xml version="1.0" encoding="UTF-8" standalone="no" ?>
<gpx xmlns="http://www.topografix.com/GPX/1/1" xmlns:xsi="http://www.w3.org/2001/XMLSchema-instance" xsi:schemaLocation="http://www.topografix.com/GPX/1/1 http://www.topografix.com/GPX/1/1/gpx.xsd" version="1.1" creator="VisuGPX - https://www.visugpx.com">
  <metadata>
    <name>VTT, 28.04 km le 26_08_2021 Bgs rocade verte</name>
  </metadata>
  <trk>
    <name><![CDATA[VTT, 28.04 km le 26_08_2021 Bgs rocade verte on AllTrails]]></name>
    <trkseg>
      <trkpt lat="47.06796" lon="2.40651">
        <ele>149</ele>
        <time>2021-08-26T14:31:43Z</time>
      </trkpt>
      <trkpt lat="47.06801" lon="2.40649">
        <ele>149</ele>
        <time>2021-08-26T14:31:43Z</time>
      </trkpt>
      <trkpt lat="47.06806" lon="2.40647">
        <ele>149</ele>
        <time>2021-08-26T14:31:43Z</time>
      </trkpt>
      <trkpt lat="47.0681" lon="2.40644">
        <ele>148</ele>
        <time>2021-08-26T14:31:43Z</time>
      </trkpt>
      <trkpt lat="47.06815" lon="2.4064">
        <ele>148</ele>
        <time>2021-08-26T14:31:43Z</time>
      </trkpt>
      <trkpt lat="47.0682" lon="2.40637">
        <ele>147</ele>
        <time>2021-08-26T14:31:43Z</time>
      </trkpt>
      <trkpt lat="47.06825" lon="2.40634">
        <ele>147</ele>
        <time>2021-08-26T14:31:43Z</time>
      </trkpt>
      <trkpt lat="47.0683" lon="2.40631">
        <ele>146</ele>
        <time>2021-08-26T14:31:43Z</time>
      </trkpt>
      <trkpt lat="47.06835" lon="2.40629">
        <ele>146</ele>
        <time>2021-08-26T14:31:43Z</time>
      </trkpt>
      <trkpt lat="47.06841" lon="2.40626">
        <ele>146</ele>
        <time>2021-08-26T14:31:43Z</time>
      </trkpt>
      <trkpt lat="47.06846" lon="2.40623">
        <ele>146</ele>
        <time>2021-08-26T14:31:43Z</time>
      </trkpt>
      <trkpt lat="47.06869" lon="2.40613">
        <ele>146</ele>
        <time>2021-08-26T14:31:43Z</time>
      </trkpt>
      <trkpt lat="47.06872" lon="2.40629">
        <ele>146</ele>
        <time>2021-08-26T14:31:43Z</time>
      </trkpt>
      <trkpt lat="47.06872" lon="2.40628">
        <ele>146</ele>
        <time>2021-08-26T14:31:43Z</time>
      </trkpt>
      <trkpt lat="47.06872" lon="2.40629">
        <ele>146</ele>
        <time>2021-08-26T14:31:43Z</time>
      </trkpt>
      <trkpt lat="47.06872" lon="2.40629">
        <ele>146</ele>
        <time>2021-08-26T14:31:43Z</time>
      </trkpt>
      <trkpt lat="47.06872" lon="2.4063">
        <ele>146</ele>
        <time>2021-08-26T14:31:43Z</time>
      </trkpt>
      <trkpt lat="47.06873" lon="2.40631">
        <ele>146</ele>
        <time>2021-08-26T14:31:43Z</time>
      </trkpt>
      <trkpt lat="47.06874" lon="2.40632">
        <ele>146</ele>
        <time>2021-08-26T14:31:43Z</time>
      </trkpt>
      <trkpt lat="47.06875" lon="2.40634">
        <ele>146</ele>
        <time>2021-08-26T14:31:43Z</time>
      </trkpt>
      <trkpt lat="47.06876" lon="2.40639">
        <ele>146</ele>
        <time>2021-08-26T14:31:43Z</time>
      </trkpt>
      <trkpt lat="47.06877" lon="2.40645">
        <ele>145</ele>
        <time>2021-08-26T14:31:43Z</time>
      </trkpt>
      <trkpt lat="47.06878" lon="2.40679">
        <ele>145</ele>
        <time>2021-08-26T14:31:43Z</time>
      </trkpt>
      <trkpt lat="47.0688" lon="2.40686">
        <ele>145</ele>
        <time>2021-08-26T14:31:43Z</time>
      </trkpt>
      <trkpt lat="47.06881" lon="2.40693">
        <ele>145</ele>
        <time>2021-08-26T14:31:43Z</time>
      </trkpt>
      <trkpt lat="47.06882" lon="2.40701">
        <ele>145</ele>
        <time>2021-08-26T14:31:43Z</time>
      </trkpt>
      <trkpt lat="47.06883" lon="2.40708">
        <ele>146</ele>
        <time>2021-08-26T14:31:43Z</time>
      </trkpt>
      <trkpt lat="47.06885" lon="2.40716">
        <ele>146</ele>
        <time>2021-08-26T14:31:43Z</time>
      </trkpt>
      <trkpt lat="47.06886" lon="2.40723">
        <ele>146</ele>
        <time>2021-08-26T14:31:43Z</time>
      </trkpt>
      <trkpt lat="47.06888" lon="2.4073">
        <ele>147</ele>
        <time>2021-08-26T14:31:43Z</time>
      </trkpt>
      <trkpt lat="47.06896" lon="2.40767">
        <ele>148</ele>
        <time>2021-08-26T14:31:43Z</time>
      </trkpt>
      <trkpt lat="47.06904" lon="2.40805">
        <ele>149</ele>
        <time>2021-08-26T14:31:43Z</time>
      </trkpt>
      <trkpt lat="47.0691" lon="2.40847">
        <ele>150</ele>
        <time>2021-08-26T14:31:43Z</time>
      </trkpt>
      <trkpt lat="47.06917" lon="2.40886">
        <ele>150</ele>
        <time>2021-08-26T14:31:43Z</time>
      </trkpt>
      <trkpt lat="47.06925" lon="2.40923">
        <ele>152</ele>
        <time>2021-08-26T14:31:43Z</time>
      </trkpt>
      <trkpt lat="47.06922" lon="2.40938">
        <ele>152</ele>
        <time>2021-08-26T14:31:43Z</time>
      </trkpt>
      <trkpt lat="47.06918" lon="2.4094">
        <ele>152</ele>
        <time>2021-08-26T14:31:43Z</time>
      </trkpt>
      <trkpt lat="47.06892" lon="2.40954">
        <ele>152</ele>
        <time>2021-08-26T14:31:43Z</time>
      </trkpt>
      <trkpt lat="47.06863" lon="2.40968">
        <ele>152</ele>
        <time>2021-08-26T14:31:43Z</time>
      </trkpt>
      <trkpt lat="47.06832" lon="2.40984">
        <ele>154</ele>
        <time>2021-08-26T14:31:43Z</time>
      </trkpt>
      <trkpt lat="47.06802" lon="2.41002">
        <ele>153</ele>
        <time>2021-08-26T14:31:43Z</time>
      </trkpt>
      <trkpt lat="47.06807" lon="2.41038">
        <ele>154</ele>
        <time>2021-08-26T14:31:43Z</time>
      </trkpt>
      <trkpt lat="47.06821" lon="2.41069">
        <ele>154</ele>
        <time>2021-08-26T14:31:43Z</time>
      </trkpt>
      <trkpt lat="47.06825" lon="2.41077">
        <ele>154</ele>
        <time>2021-08-26T14:31:43Z</time>
      </trkpt>
      <trkpt lat="47.06844" lon="2.41112">
        <ele>153</ele>
        <time>2021-08-26T14:31:43Z</time>
      </trkpt>
      <trkpt lat="47.06865" lon="2.41147">
        <ele>155</ele>
        <time>2021-08-26T14:31:43Z</time>
      </trkpt>
      <trkpt lat="47.06884" lon="2.41181">
        <ele>156</ele>
        <time>2021-08-26T14:31:43Z</time>
      </trkpt>
      <trkpt lat="47.06903" lon="2.41216">
        <ele>155</ele>
        <time>2021-08-26T14:31:43Z</time>
      </trkpt>
      <trkpt lat="47.06921" lon="2.41255">
        <ele>154</ele>
        <time>2021-08-26T14:31:43Z</time>
      </trkpt>
      <trkpt lat="47.06933" lon="2.41284">
        <ele>154</ele>
        <time>2021-08-26T14:31:43Z</time>
      </trkpt>
      <trkpt lat="47.06937" lon="2.4129">
        <ele>155</ele>
        <time>2021-08-26T14:31:43Z</time>
      </trkpt>
      <trkpt lat="47.06952" lon="2.41328">
        <ele>156</ele>
        <time>2021-08-26T14:31:43Z</time>
      </trkpt>
      <trkpt lat="47.06962" lon="2.4135">
        <ele>157</ele>
        <time>2021-08-26T14:31:43Z</time>
      </trkpt>
      <trkpt lat="47.06963" lon="2.41355">
        <ele>157</ele>
        <time>2021-08-26T14:31:43Z</time>
      </trkpt>
      <trkpt lat="47.06963" lon="2.41356">
        <ele>157</ele>
        <time>2021-08-26T14:31:43Z</time>
      </trkpt>
      <trkpt lat="47.07022" lon="2.41372">
        <ele>156</ele>
        <time>2021-08-26T14:31:43Z</time>
      </trkpt>
      <trkpt lat="47.07022" lon="2.41372">
        <ele>156</ele>
        <time>2021-08-26T14:31:43Z</time>
      </trkpt>
      <trkpt lat="47.07022" lon="2.41372">
        <ele>156</ele>
        <time>2021-08-26T14:31:43Z</time>
      </trkpt>
      <trkpt lat="47.07021" lon="2.4137">
        <ele>156</ele>
        <time>2021-08-26T14:31:43Z</time>
      </trkpt>
      <trkpt lat="47.07021" lon="2.41369">
        <ele>156</ele>
        <time>2021-08-26T14:31:43Z</time>
      </trkpt>
      <trkpt lat="47.07021" lon="2.41369">
        <ele>156</ele>
        <time>2021-08-26T14:31:43Z</time>
      </trkpt>
      <trkpt lat="47.07022" lon="2.41368">
        <ele>156</ele>
        <time>2021-08-26T14:31:43Z</time>
      </trkpt>
      <trkpt lat="47.07022" lon="2.41367">
        <ele>156</ele>
        <time>2021-08-26T14:31:43Z</time>
      </trkpt>
      <trkpt lat="47.07023" lon="2.41366">
        <ele>156</ele>
        <time>2021-08-26T14:31:43Z</time>
      </trkpt>
      <trkpt lat="47.07025" lon="2.41364">
        <ele>156</ele>
        <time>2021-08-26T14:31:43Z</time>
      </trkpt>
      <trkpt lat="47.07027" lon="2.41362">
        <ele>156</ele>
        <time>2021-08-26T14:31:43Z</time>
      </trkpt>
      <trkpt lat="47.07029" lon="2.41358">
        <ele>157</ele>
        <time>2021-08-26T14:31:43Z</time>
      </trkpt>
      <trkpt lat="47.07032" lon="2.41354">
        <ele>157</ele>
        <time>2021-08-26T14:31:43Z</time>
      </trkpt>
      <trkpt lat="47.07036" lon="2.41348">
        <ele>157</ele>
        <time>2021-08-26T14:31:43Z</time>
      </trkpt>
      <trkpt lat="47.0704" lon="2.41344">
        <ele>157</ele>
        <time>2021-08-26T14:31:43Z</time>
      </trkpt>
      <trkpt lat="47.07063" lon="2.41322">
        <ele>157</ele>
        <time>2021-08-26T14:31:43Z</time>
      </trkpt>
      <trkpt lat="47.07081" lon="2.41295">
        <ele>156</ele>
        <time>2021-08-26T14:31:43Z</time>
      </trkpt>
      <trkpt lat="47.07101" lon="2.41271">
        <ele>156</ele>
        <time>2021-08-26T14:31:43Z</time>
      </trkpt>
      <trkpt lat="47.07121" lon="2.41249">
        <ele>156</ele>
        <time>2021-08-26T14:31:43Z</time>
      </trkpt>
      <trkpt lat="47.07142" lon="2.41224">
        <ele>157</ele>
        <time>2021-08-26T14:31:43Z</time>
      </trkpt>
      <trkpt lat="47.0715" lon="2.41215">
        <ele>157</ele>
        <time>2021-08-26T14:31:43Z</time>
      </trkpt>
      <trkpt lat="47.0715" lon="2.41215">
        <ele>157</ele>
        <time>2021-08-26T14:31:43Z</time>
      </trkpt>
      <trkpt lat="47.07149" lon="2.41215">
        <ele>157</ele>
        <time>2021-08-26T14:31:43Z</time>
      </trkpt>
      <trkpt lat="47.07149" lon="2.41215">
        <ele>157</ele>
        <time>2021-08-26T14:31:43Z</time>
      </trkpt>
      <trkpt lat="47.07149" lon="2.41215">
        <ele>157</ele>
        <time>2021-08-26T14:31:43Z</time>
      </trkpt>
      <trkpt lat="47.07149" lon="2.41215">
        <ele>157</ele>
        <time>2021-08-26T14:31:43Z</time>
      </trkpt>
      <trkpt lat="47.07148" lon="2.41215">
        <ele>157</ele>
        <time>2021-08-26T14:31:44Z</time>
      </trkpt>
      <trkpt lat="47.07148" lon="2.41215">
        <ele>157</ele>
        <time>2021-08-26T14:31:44Z</time>
      </trkpt>
      <trkpt lat="47.07148" lon="2.41215">
        <ele>157</ele>
        <time>2021-08-26T14:31:44Z</time>
      </trkpt>
      <trkpt lat="47.07148" lon="2.41216">
        <ele>157</ele>
        <time>2021-08-26T14:31:44Z</time>
      </trkpt>
      <trkpt lat="47.07148" lon="2.41216">
        <ele>157</ele>
        <time>2021-08-26T14:31:44Z</time>
      </trkpt>
      <trkpt lat="47.07148" lon="2.41216">
        <ele>157</ele>
        <time>2021-08-26T14:31:44Z</time>
      </trkpt>
      <trkpt lat="47.07148" lon="2.41216">
        <ele>157</ele>
        <time>2021-08-26T14:31:44Z</time>
      </trkpt>
      <trkpt lat="47.07148" lon="2.41215">
        <ele>157</ele>
        <time>2021-08-26T14:31:44Z</time>
      </trkpt>
      <trkpt lat="47.07149" lon="2.41213">
        <ele>157</ele>
        <time>2021-08-26T14:31:44Z</time>
      </trkpt>
      <trkpt lat="47.0715" lon="2.4121">
        <ele>157</ele>
        <time>2021-08-26T14:31:44Z</time>
      </trkpt>
      <trkpt lat="47.07152" lon="2.41207">
        <ele>157</ele>
        <time>2021-08-26T14:31:44Z</time>
      </trkpt>
      <trkpt lat="47.07155" lon="2.41205">
        <ele>157</ele>
        <time>2021-08-26T14:31:44Z</time>
      </trkpt>
      <trkpt lat="47.07158" lon="2.41202">
        <ele>157</ele>
        <time>2021-08-26T14:31:44Z</time>
      </trkpt>
      <trkpt lat="47.07161" lon="2.41198">
        <ele>157</ele>
        <time>2021-08-26T14:31:44Z</time>
      </trkpt>
      <trkpt lat="47.07182" lon="2.41177">
        <ele>158</ele>
        <time>2021-08-26T14:31:44Z</time>
      </trkpt>
      <trkpt lat="47.07205" lon="2.41151">
        <ele>157</ele>
        <time>2021-08-26T14:31:44Z</time>
      </trkpt>
      <trkpt lat="47.07226" lon="2.41127">
        <ele>157</ele>
        <time>2021-08-26T14:31:44Z</time>
      </trkpt>
      <trkpt lat="47.07249" lon="2.41124">
        <ele>157</ele>
        <time>2021-08-26T14:31:44Z</time>
      </trkpt>
      <trkpt lat="47.07267" lon="2.41155">
        <ele>157</ele>
        <time>2021-08-26T14:31:44Z</time>
      </trkpt>
      <trkpt lat="47.07281" lon="2.41183">
        <ele>156</ele>
        <time>2021-08-26T14:31:44Z</time>
      </trkpt>
      <trkpt lat="47.07285" lon="2.4119">
        <ele>156</ele>
        <time>2021-08-26T14:31:44Z</time>
      </trkpt>
      <trkpt lat="47.07288" lon="2.41197">
        <ele>155</ele>
        <time>2021-08-26T14:31:44Z</time>
      </trkpt>
      <trkpt lat="47.07292" lon="2.41203">
        <ele>155</ele>
        <time>2021-08-26T14:31:44Z</time>
      </trkpt>
      <trkpt lat="47.07296" lon="2.4121">
        <ele>155</ele>
        <time>2021-08-26T14:31:44Z</time>
      </trkpt>
      <trkpt lat="47.07299" lon="2.41217">
        <ele>155</ele>
        <time>2021-08-26T14:31:44Z</time>
      </trkpt>
      <trkpt lat="47.07303" lon="2.41223">
        <ele>154</ele>
        <time>2021-08-26T14:31:44Z</time>
      </trkpt>
      <trkpt lat="47.07307" lon="2.4123">
        <ele>154</ele>
        <time>2021-08-26T14:31:44Z</time>
      </trkpt>
      <trkpt lat="47.0731" lon="2.41237">
        <ele>154</ele>
        <time>2021-08-26T14:31:44Z</time>
      </trkpt>
      <trkpt lat="47.07314" lon="2.41244">
        <ele>154</ele>
        <time>2021-08-26T14:31:44Z</time>
      </trkpt>
      <trkpt lat="47.07333" lon="2.41279">
        <ele>153</ele>
        <time>2021-08-26T14:31:44Z</time>
      </trkpt>
      <trkpt lat="47.07352" lon="2.41314">
        <ele>153</ele>
        <time>2021-08-26T14:31:44Z</time>
      </trkpt>
      <trkpt lat="47.07371" lon="2.41349">
        <ele>153</ele>
        <time>2021-08-26T14:31:44Z</time>
      </trkpt>
      <trkpt lat="47.07389" lon="2.41382">
        <ele>153</ele>
        <time>2021-08-26T14:31:44Z</time>
      </trkpt>
      <trkpt lat="47.07405" lon="2.41411">
        <ele>152</ele>
        <time>2021-08-26T14:31:44Z</time>
      </trkpt>
      <trkpt lat="47.07415" lon="2.41428">
        <ele>152</ele>
        <time>2021-08-26T14:31:44Z</time>
      </trkpt>
      <trkpt lat="47.07413" lon="2.41431">
        <ele>152</ele>
        <time>2021-08-26T14:31:44Z</time>
      </trkpt>
      <trkpt lat="47.07414" lon="2.41433">
        <ele>152</ele>
        <time>2021-08-26T14:31:44Z</time>
      </trkpt>
      <trkpt lat="47.07416" lon="2.41437">
        <ele>152</ele>
        <time>2021-08-26T14:31:44Z</time>
      </trkpt>
      <trkpt lat="47.07419" lon="2.4144">
        <ele>151</ele>
        <time>2021-08-26T14:31:44Z</time>
      </trkpt>
      <trkpt lat="47.07421" lon="2.41441">
        <ele>151</ele>
        <time>2021-08-26T14:31:44Z</time>
      </trkpt>
      <trkpt lat="47.07423" lon="2.41443">
        <ele>151</ele>
        <time>2021-08-26T14:31:44Z</time>
      </trkpt>
      <trkpt lat="47.07426" lon="2.41446">
        <ele>151</ele>
        <time>2021-08-26T14:31:44Z</time>
      </trkpt>
      <trkpt lat="47.07428" lon="2.41451">
        <ele>151</ele>
        <time>2021-08-26T14:31:44Z</time>
      </trkpt>
      <trkpt lat="47.07431" lon="2.41456">
        <ele>151</ele>
        <time>2021-08-26T14:31:44Z</time>
      </trkpt>
      <trkpt lat="47.07434" lon="2.41461">
        <ele>151</ele>
        <time>2021-08-26T14:31:44Z</time>
      </trkpt>
      <trkpt lat="47.07448" lon="2.41492">
        <ele>151</ele>
        <time>2021-08-26T14:31:44Z</time>
      </trkpt>
      <trkpt lat="47.07467" lon="2.41523">
        <ele>151</ele>
        <time>2021-08-26T14:31:44Z</time>
      </trkpt>
      <trkpt lat="47.07485" lon="2.41554">
        <ele>151</ele>
        <time>2021-08-26T14:31:44Z</time>
      </trkpt>
      <trkpt lat="47.07503" lon="2.41589">
        <ele>151</ele>
        <time>2021-08-26T14:31:44Z</time>
      </trkpt>
      <trkpt lat="47.07521" lon="2.41621">
        <ele>151</ele>
        <time>2021-08-26T14:31:44Z</time>
      </trkpt>
      <trkpt lat="47.07535" lon="2.41647">
        <ele>151</ele>
        <time>2021-08-26T14:31:44Z</time>
      </trkpt>
      <trkpt lat="47.0754" lon="2.41654">
        <ele>151</ele>
        <time>2021-08-26T14:31:44Z</time>
      </trkpt>
      <trkpt lat="47.07556" lon="2.41685">
        <ele>150</ele>
        <time>2021-08-26T14:31:44Z</time>
      </trkpt>
      <trkpt lat="47.07572" lon="2.41714">
        <ele>149</ele>
        <time>2021-08-26T14:31:44Z</time>
      </trkpt>
      <trkpt lat="47.07584" lon="2.41717">
        <ele>148</ele>
        <time>2021-08-26T14:31:44Z</time>
      </trkpt>
      <trkpt lat="47.076" lon="2.41734">
        <ele>149</ele>
        <time>2021-08-26T14:31:44Z</time>
      </trkpt>
      <trkpt lat="47.07618" lon="2.4175">
        <ele>149</ele>
        <time>2021-08-26T14:31:44Z</time>
      </trkpt>
      <trkpt lat="47.07629" lon="2.41767">
        <ele>149</ele>
        <time>2021-08-26T14:31:44Z</time>
      </trkpt>
      <trkpt lat="47.07631" lon="2.41772">
        <ele>149</ele>
        <time>2021-08-26T14:31:44Z</time>
      </trkpt>
      <trkpt lat="47.07644" lon="2.41802">
        <ele>148</ele>
        <time>2021-08-26T14:31:44Z</time>
      </trkpt>
      <trkpt lat="47.07659" lon="2.4182">
        <ele>148</ele>
        <time>2021-08-26T14:31:44Z</time>
      </trkpt>
      <trkpt lat="47.07676" lon="2.41794">
        <ele>147</ele>
        <time>2021-08-26T14:31:44Z</time>
      </trkpt>
      <trkpt lat="47.07698" lon="2.41769">
        <ele>147</ele>
        <time>2021-08-26T14:31:44Z</time>
      </trkpt>
      <trkpt lat="47.07702" lon="2.41763">
        <ele>147</ele>
        <time>2021-08-26T14:31:44Z</time>
      </trkpt>
      <trkpt lat="47.07706" lon="2.41757">
        <ele>147</ele>
        <time>2021-08-26T14:31:44Z</time>
      </trkpt>
      <trkpt lat="47.0771" lon="2.41751">
        <ele>147</ele>
        <time>2021-08-26T14:31:44Z</time>
      </trkpt>
      <trkpt lat="47.07715" lon="2.41746">
        <ele>147</ele>
        <time>2021-08-26T14:31:44Z</time>
      </trkpt>
      <trkpt lat="47.0772" lon="2.41743">
        <ele>146</ele>
        <time>2021-08-26T14:31:44Z</time>
      </trkpt>
      <trkpt lat="47.07724" lon="2.4174">
        <ele>146</ele>
        <time>2021-08-26T14:31:44Z</time>
      </trkpt>
      <trkpt lat="47.07727" lon="2.41736">
        <ele>146</ele>
        <time>2021-08-26T14:31:44Z</time>
      </trkpt>
      <trkpt lat="47.07746" lon="2.41715">
        <ele>145</ele>
        <time>2021-08-26T14:31:44Z</time>
      </trkpt>
      <trkpt lat="47.07759" lon="2.41699">
        <ele>144</ele>
        <time>2021-08-26T14:31:44Z</time>
      </trkpt>
      <trkpt lat="47.07762" lon="2.41693">
        <ele>144</ele>
        <time>2021-08-26T14:31:44Z</time>
      </trkpt>
      <trkpt lat="47.07767" lon="2.41687">
        <ele>144</ele>
        <time>2021-08-26T14:31:44Z</time>
      </trkpt>
      <trkpt lat="47.07771" lon="2.41682">
        <ele>144</ele>
        <time>2021-08-26T14:31:44Z</time>
      </trkpt>
      <trkpt lat="47.07776" lon="2.41677">
        <ele>144</ele>
        <time>2021-08-26T14:31:44Z</time>
      </trkpt>
      <trkpt lat="47.0778" lon="2.41672">
        <ele>144</ele>
        <time>2021-08-26T14:31:44Z</time>
      </trkpt>
      <trkpt lat="47.07784" lon="2.41667">
        <ele>144</ele>
        <time>2021-08-26T14:31:44Z</time>
      </trkpt>
      <trkpt lat="47.07788" lon="2.41661">
        <ele>144</ele>
        <time>2021-08-26T14:31:44Z</time>
      </trkpt>
      <trkpt lat="47.0781" lon="2.41636">
        <ele>144</ele>
        <time>2021-08-26T14:31:44Z</time>
      </trkpt>
      <trkpt lat="47.07832" lon="2.41609">
        <ele>144</ele>
        <time>2021-08-26T14:31:44Z</time>
      </trkpt>
      <trkpt lat="47.07854" lon="2.41582">
        <ele>142</ele>
        <time>2021-08-26T14:31:44Z</time>
      </trkpt>
      <trkpt lat="47.0787" lon="2.41556">
        <ele>142</ele>
        <time>2021-08-26T14:31:44Z</time>
      </trkpt>
      <trkpt lat="47.07884" lon="2.41545">
        <ele>141</ele>
        <time>2021-08-26T14:31:44Z</time>
      </trkpt>
      <trkpt lat="47.07902" lon="2.41555">
        <ele>141</ele>
        <time>2021-08-26T14:31:44Z</time>
      </trkpt>
      <trkpt lat="47.07908" lon="2.41554">
        <ele>141</ele>
        <time>2021-08-26T14:31:44Z</time>
      </trkpt>
      <trkpt lat="47.07937" lon="2.41546">
        <ele>142</ele>
        <time>2021-08-26T14:31:44Z</time>
      </trkpt>
      <trkpt lat="47.07965" lon="2.41531">
        <ele>144</ele>
        <time>2021-08-26T14:31:44Z</time>
      </trkpt>
      <trkpt lat="47.07994" lon="2.41517">
        <ele>144</ele>
        <time>2021-08-26T14:31:44Z</time>
      </trkpt>
      <trkpt lat="47.08021" lon="2.41506">
        <ele>142</ele>
        <time>2021-08-26T14:31:44Z</time>
      </trkpt>
      <trkpt lat="47.08047" lon="2.41493">
        <ele>139</ele>
        <time>2021-08-26T14:31:44Z</time>
      </trkpt>
      <trkpt lat="47.08069" lon="2.41484">
        <ele>139</ele>
        <time>2021-08-26T14:31:44Z</time>
      </trkpt>
      <trkpt lat="47.08075" lon="2.4148">
        <ele>139</ele>
        <time>2021-08-26T14:31:44Z</time>
      </trkpt>
      <trkpt lat="47.08103" lon="2.41467">
        <ele>139</ele>
        <time>2021-08-26T14:31:44Z</time>
      </trkpt>
      <trkpt lat="47.08134" lon="2.41454">
        <ele>139</ele>
        <time>2021-08-26T14:31:44Z</time>
      </trkpt>
      <trkpt lat="47.08161" lon="2.4144">
        <ele>138</ele>
        <time>2021-08-26T14:31:44Z</time>
      </trkpt>
      <trkpt lat="47.08184" lon="2.41428">
        <ele>137</ele>
        <time>2021-08-26T14:31:44Z</time>
      </trkpt>
      <trkpt lat="47.0821" lon="2.41417">
        <ele>137</ele>
        <time>2021-08-26T14:31:44Z</time>
      </trkpt>
      <trkpt lat="47.08226" lon="2.4141">
        <ele>137</ele>
        <time>2021-08-26T14:31:44Z</time>
      </trkpt>
      <trkpt lat="47.08229" lon="2.4141">
        <ele>137</ele>
        <time>2021-08-26T14:31:44Z</time>
      </trkpt>
      <trkpt lat="47.08242" lon="2.41422">
        <ele>138</ele>
        <time>2021-08-26T14:31:44Z</time>
      </trkpt>
      <trkpt lat="47.08247" lon="2.41456">
        <ele>139</ele>
        <time>2021-08-26T14:31:44Z</time>
      </trkpt>
      <trkpt lat="47.08255" lon="2.41496">
        <ele>138</ele>
        <time>2021-08-26T14:31:44Z</time>
      </trkpt>
      <trkpt lat="47.08261" lon="2.41526">
        <ele>138</ele>
        <time>2021-08-26T14:31:44Z</time>
      </trkpt>
      <trkpt lat="47.08263" lon="2.41533">
        <ele>138</ele>
        <time>2021-08-26T14:31:44Z</time>
      </trkpt>
      <trkpt lat="47.08265" lon="2.41541">
        <ele>138</ele>
        <time>2021-08-26T14:31:44Z</time>
      </trkpt>
      <trkpt lat="47.08266" lon="2.41549">
        <ele>138</ele>
        <time>2021-08-26T14:31:44Z</time>
      </trkpt>
      <trkpt lat="47.08268" lon="2.41555">
        <ele>138</ele>
        <time>2021-08-26T14:31:44Z</time>
      </trkpt>
      <trkpt lat="47.0827" lon="2.4156">
        <ele>138</ele>
        <time>2021-08-26T14:31:44Z</time>
      </trkpt>
      <trkpt lat="47.08271" lon="2.41566">
        <ele>138</ele>
        <time>2021-08-26T14:31:44Z</time>
      </trkpt>
      <trkpt lat="47.08271" lon="2.41572">
        <ele>138</ele>
        <time>2021-08-26T14:31:44Z</time>
      </trkpt>
      <trkpt lat="47.08277" lon="2.416">
        <ele>139</ele>
        <time>2021-08-26T14:31:44Z</time>
      </trkpt>
      <trkpt lat="47.08281" lon="2.41628">
        <ele>139</ele>
        <time>2021-08-26T14:31:44Z</time>
      </trkpt>
      <trkpt lat="47.08288" lon="2.41665">
        <ele>138</ele>
        <time>2021-08-26T14:31:44Z</time>
      </trkpt>
      <trkpt lat="47.08298" lon="2.41706">
        <ele>139</ele>
        <time>2021-08-26T14:31:44Z</time>
      </trkpt>
      <trkpt lat="47.08301" lon="2.41722">
        <ele>140</ele>
        <time>2021-08-26T14:31:44Z</time>
      </trkpt>
      <trkpt lat="47.08304" lon="2.41729">
        <ele>141</ele>
        <time>2021-08-26T14:31:44Z</time>
      </trkpt>
      <trkpt lat="47.08305" lon="2.41737">
        <ele>141</ele>
        <time>2021-08-26T14:31:44Z</time>
      </trkpt>
      <trkpt lat="47.08307" lon="2.41745">
        <ele>141</ele>
        <time>2021-08-26T14:31:44Z</time>
      </trkpt>
      <trkpt lat="47.08309" lon="2.41753">
        <ele>141</ele>
        <time>2021-08-26T14:31:44Z</time>
      </trkpt>
      <trkpt lat="47.08311" lon="2.41761">
        <ele>141</ele>
        <time>2021-08-26T14:31:44Z</time>
      </trkpt>
      <trkpt lat="47.08314" lon="2.4177">
        <ele>140</ele>
        <time>2021-08-26T14:31:44Z</time>
      </trkpt>
      <trkpt lat="47.08317" lon="2.41779">
        <ele>140</ele>
        <time>2021-08-26T14:31:44Z</time>
      </trkpt>
      <trkpt lat="47.08318" lon="2.41787">
        <ele>139</ele>
        <time>2021-08-26T14:31:44Z</time>
      </trkpt>
      <trkpt lat="47.08326" lon="2.41826">
        <ele>139</ele>
        <time>2021-08-26T14:31:44Z</time>
      </trkpt>
      <trkpt lat="47.08333" lon="2.41858">
        <ele>139</ele>
        <time>2021-08-26T14:31:44Z</time>
      </trkpt>
      <trkpt lat="47.08338" lon="2.4189">
        <ele>137</ele>
        <time>2021-08-26T14:31:44Z</time>
      </trkpt>
      <trkpt lat="47.08345" lon="2.4192">
        <ele>135</ele>
        <time>2021-08-26T14:31:44Z</time>
      </trkpt>
      <trkpt lat="47.08349" lon="2.41939">
        <ele>134</ele>
        <time>2021-08-26T14:31:44Z</time>
      </trkpt>
      <trkpt lat="47.08359" lon="2.41952">
        <ele>134</ele>
        <time>2021-08-26T14:31:44Z</time>
      </trkpt>
      <trkpt lat="47.0836" lon="2.41957">
        <ele>134</ele>
        <time>2021-08-26T14:31:44Z</time>
      </trkpt>
      <trkpt lat="47.08362" lon="2.41961">
        <ele>133</ele>
        <time>2021-08-26T14:31:44Z</time>
      </trkpt>
      <trkpt lat="47.08365" lon="2.41963">
        <ele>133</ele>
        <time>2021-08-26T14:31:44Z</time>
      </trkpt>
      <trkpt lat="47.0837" lon="2.41962">
        <ele>133</ele>
        <time>2021-08-26T14:31:44Z</time>
      </trkpt>
      <trkpt lat="47.08374" lon="2.41959">
        <ele>133</ele>
        <time>2021-08-26T14:31:44Z</time>
      </trkpt>
      <trkpt lat="47.08377" lon="2.41956">
        <ele>133</ele>
        <time>2021-08-26T14:31:44Z</time>
      </trkpt>
      <trkpt lat="47.08381" lon="2.41957">
        <ele>133</ele>
        <time>2021-08-26T14:31:44Z</time>
      </trkpt>
      <trkpt lat="47.08385" lon="2.4196">
        <ele>133</ele>
        <time>2021-08-26T14:31:44Z</time>
      </trkpt>
      <trkpt lat="47.08388" lon="2.41964">
        <ele>133</ele>
        <time>2021-08-26T14:31:44Z</time>
      </trkpt>
      <trkpt lat="47.08392" lon="2.41967">
        <ele>133</ele>
        <time>2021-08-26T14:31:44Z</time>
      </trkpt>
      <trkpt lat="47.08398" lon="2.41976">
        <ele>133</ele>
        <time>2021-08-26T14:31:44Z</time>
      </trkpt>
      <trkpt lat="47.08403" lon="2.41981">
        <ele>132</ele>
        <time>2021-08-26T14:31:44Z</time>
      </trkpt>
      <trkpt lat="47.08408" lon="2.41986">
        <ele>132</ele>
        <time>2021-08-26T14:31:44Z</time>
      </trkpt>
      <trkpt lat="47.08414" lon="2.4199">
        <ele>132</ele>
        <time>2021-08-26T14:31:44Z</time>
      </trkpt>
      <trkpt lat="47.08418" lon="2.41995">
        <ele>132</ele>
        <time>2021-08-26T14:31:44Z</time>
      </trkpt>
      <trkpt lat="47.08423" lon="2.41999">
        <ele>132</ele>
        <time>2021-08-26T14:31:44Z</time>
      </trkpt>
      <trkpt lat="47.08429" lon="2.42004">
        <ele>131</ele>
        <time>2021-08-26T14:31:44Z</time>
      </trkpt>
      <trkpt lat="47.08434" lon="2.4201">
        <ele>131</ele>
        <time>2021-08-26T14:31:44Z</time>
      </trkpt>
      <trkpt lat="47.08439" lon="2.42014">
        <ele>131</ele>
        <time>2021-08-26T14:31:44Z</time>
      </trkpt>
      <trkpt lat="47.08445" lon="2.42018">
        <ele>131</ele>
        <time>2021-08-26T14:31:44Z</time>
      </trkpt>
      <trkpt lat="47.08451" lon="2.42022">
        <ele>130</ele>
        <time>2021-08-26T14:31:44Z</time>
      </trkpt>
      <trkpt lat="47.08457" lon="2.42026">
        <ele>130</ele>
        <time>2021-08-26T14:31:44Z</time>
      </trkpt>
      <trkpt lat="47.08463" lon="2.4203">
        <ele>130</ele>
        <time>2021-08-26T14:31:44Z</time>
      </trkpt>
      <trkpt lat="47.0847" lon="2.42033">
        <ele>129</ele>
        <time>2021-08-26T14:31:44Z</time>
      </trkpt>
      <trkpt lat="47.08476" lon="2.42037">
        <ele>129</ele>
        <time>2021-08-26T14:31:44Z</time>
      </trkpt>
      <trkpt lat="47.08483" lon="2.42041">
        <ele>129</ele>
        <time>2021-08-26T14:31:44Z</time>
      </trkpt>
      <trkpt lat="47.08491" lon="2.42044">
        <ele>129</ele>
        <time>2021-08-26T14:31:44Z</time>
      </trkpt>
      <trkpt lat="47.08498" lon="2.42046">
        <ele>129</ele>
        <time>2021-08-26T14:31:44Z</time>
      </trkpt>
      <trkpt lat="47.08505" lon="2.42048">
        <ele>129</ele>
        <time>2021-08-26T14:31:44Z</time>
      </trkpt>
      <trkpt lat="47.08512" lon="2.4205">
        <ele>129</ele>
        <time>2021-08-26T14:31:44Z</time>
      </trkpt>
      <trkpt lat="47.08518" lon="2.42052">
        <ele>129</ele>
        <time>2021-08-26T14:31:44Z</time>
      </trkpt>
      <trkpt lat="47.08525" lon="2.42053">
        <ele>129</ele>
        <time>2021-08-26T14:31:44Z</time>
      </trkpt>
      <trkpt lat="47.08532" lon="2.42055">
        <ele>129</ele>
        <time>2021-08-26T14:31:44Z</time>
      </trkpt>
      <trkpt lat="47.08539" lon="2.42057">
        <ele>129</ele>
        <time>2021-08-26T14:31:44Z</time>
      </trkpt>
      <trkpt lat="47.08545" lon="2.42058">
        <ele>129</ele>
        <time>2021-08-26T14:31:44Z</time>
      </trkpt>
      <trkpt lat="47.08552" lon="2.4206">
        <ele>129</ele>
        <time>2021-08-26T14:31:44Z</time>
      </trkpt>
      <trkpt lat="47.08558" lon="2.42061">
        <ele>129</ele>
        <time>2021-08-26T14:31:44Z</time>
      </trkpt>
      <trkpt lat="47.08565" lon="2.42063">
        <ele>129</ele>
        <time>2021-08-26T14:31:44Z</time>
      </trkpt>
      <trkpt lat="47.08572" lon="2.42064">
        <ele>129</ele>
        <time>2021-08-26T14:31:44Z</time>
      </trkpt>
      <trkpt lat="47.08579" lon="2.42067">
        <ele>129</ele>
        <time>2021-08-26T14:31:44Z</time>
      </trkpt>
      <trkpt lat="47.08587" lon="2.42069">
        <ele>129</ele>
        <time>2021-08-26T14:31:44Z</time>
      </trkpt>
      <trkpt lat="47.08595" lon="2.42071">
        <ele>129</ele>
        <time>2021-08-26T14:31:44Z</time>
      </trkpt>
      <trkpt lat="47.08602" lon="2.42072">
        <ele>129</ele>
        <time>2021-08-26T14:31:44Z</time>
      </trkpt>
      <trkpt lat="47.08609" lon="2.42075">
        <ele>129</ele>
        <time>2021-08-26T14:31:44Z</time>
      </trkpt>
      <trkpt lat="47.08616" lon="2.42077">
        <ele>130</ele>
        <time>2021-08-26T14:31:44Z</time>
      </trkpt>
      <trkpt lat="47.08623" lon="2.42078">
        <ele>130</ele>
        <time>2021-08-26T14:31:44Z</time>
      </trkpt>
      <trkpt lat="47.08631" lon="2.4208">
        <ele>130</ele>
        <time>2021-08-26T14:31:44Z</time>
      </trkpt>
      <trkpt lat="47.08637" lon="2.42081">
        <ele>130</ele>
        <time>2021-08-26T14:31:44Z</time>
      </trkpt>
      <trkpt lat="47.08643" lon="2.42081">
        <ele>130</ele>
        <time>2021-08-26T14:31:44Z</time>
      </trkpt>
      <trkpt lat="47.08649" lon="2.42083">
        <ele>130</ele>
        <time>2021-08-26T14:31:44Z</time>
      </trkpt>
      <trkpt lat="47.08656" lon="2.42085">
        <ele>130</ele>
        <time>2021-08-26T14:31:44Z</time>
      </trkpt>
      <trkpt lat="47.08663" lon="2.42087">
        <ele>130</ele>
        <time>2021-08-26T14:31:44Z</time>
      </trkpt>
      <trkpt lat="47.08669" lon="2.42088">
        <ele>130</ele>
        <time>2021-08-26T14:31:44Z</time>
      </trkpt>
      <trkpt lat="47.08676" lon="2.42091">
        <ele>130</ele>
        <time>2021-08-26T14:31:44Z</time>
      </trkpt>
      <trkpt lat="47.08683" lon="2.42092">
        <ele>129</ele>
        <time>2021-08-26T14:31:44Z</time>
      </trkpt>
      <trkpt lat="47.08694" lon="2.42096">
        <ele>129</ele>
        <time>2021-08-26T14:31:44Z</time>
      </trkpt>
      <trkpt lat="47.087" lon="2.42097">
        <ele>129</ele>
        <time>2021-08-26T14:31:44Z</time>
      </trkpt>
      <trkpt lat="47.08705" lon="2.42099">
        <ele>128</ele>
        <time>2021-08-26T14:31:44Z</time>
      </trkpt>
      <trkpt lat="47.08712" lon="2.421">
        <ele>128</ele>
        <time>2021-08-26T14:31:44Z</time>
      </trkpt>
      <trkpt lat="47.08724" lon="2.42103">
        <ele>127</ele>
        <time>2021-08-26T14:31:44Z</time>
      </trkpt>
      <trkpt lat="47.0873" lon="2.42104">
        <ele>127</ele>
        <time>2021-08-26T14:31:44Z</time>
      </trkpt>
      <trkpt lat="47.08768" lon="2.42114">
        <ele>126</ele>
        <time>2021-08-26T14:31:44Z</time>
      </trkpt>
      <trkpt lat="47.08806" lon="2.42122">
        <ele>127</ele>
        <time>2021-08-26T14:31:44Z</time>
      </trkpt>
      <trkpt lat="47.08843" lon="2.42131">
        <ele>127</ele>
        <time>2021-08-26T14:31:44Z</time>
      </trkpt>
      <trkpt lat="47.08879" lon="2.42143">
        <ele>126</ele>
        <time>2021-08-26T14:31:44Z</time>
      </trkpt>
      <trkpt lat="47.08908" lon="2.42155">
        <ele>126</ele>
        <time>2021-08-26T14:31:44Z</time>
      </trkpt>
      <trkpt lat="47.08935" lon="2.42161">
        <ele>126</ele>
        <time>2021-08-26T14:31:44Z</time>
      </trkpt>
      <trkpt lat="47.08942" lon="2.42162">
        <ele>126</ele>
        <time>2021-08-26T14:31:44Z</time>
      </trkpt>
      <trkpt lat="47.0897" lon="2.4217">
        <ele>127</ele>
        <time>2021-08-26T14:31:44Z</time>
      </trkpt>
      <trkpt lat="47.09005" lon="2.42177">
        <ele>129</ele>
        <time>2021-08-26T14:31:44Z</time>
      </trkpt>
      <trkpt lat="47.09026" lon="2.42178">
        <ele>129</ele>
        <time>2021-08-26T14:31:44Z</time>
      </trkpt>
      <trkpt lat="47.09049" lon="2.42181">
        <ele>130</ele>
        <time>2021-08-26T14:31:44Z</time>
      </trkpt>
      <trkpt lat="47.09074" lon="2.42187">
        <ele>130</ele>
        <time>2021-08-26T14:31:44Z</time>
      </trkpt>
      <trkpt lat="47.09094" lon="2.42192">
        <ele>132</ele>
        <time>2021-08-26T14:31:44Z</time>
      </trkpt>
      <trkpt lat="47.09099" lon="2.42194">
        <ele>132</ele>
        <time>2021-08-26T14:31:44Z</time>
      </trkpt>
      <trkpt lat="47.0913" lon="2.422">
        <ele>134</ele>
        <time>2021-08-26T14:31:44Z</time>
      </trkpt>
      <trkpt lat="47.09149" lon="2.42206">
        <ele>135</ele>
        <time>2021-08-26T14:31:44Z</time>
      </trkpt>
      <trkpt lat="47.09166" lon="2.4221">
        <ele>135</ele>
        <time>2021-08-26T14:31:44Z</time>
      </trkpt>
      <trkpt lat="47.09186" lon="2.42215">
        <ele>135</ele>
        <time>2021-08-26T14:31:44Z</time>
      </trkpt>
      <trkpt lat="47.09211" lon="2.4222">
        <ele>134</ele>
        <time>2021-08-26T14:31:44Z</time>
      </trkpt>
      <trkpt lat="47.09231" lon="2.42226">
        <ele>134</ele>
        <time>2021-08-26T14:31:44Z</time>
      </trkpt>
      <trkpt lat="47.09236" lon="2.42228">
        <ele>134</ele>
        <time>2021-08-26T14:31:44Z</time>
      </trkpt>
      <trkpt lat="47.09242" lon="2.42229">
        <ele>134</ele>
        <time>2021-08-26T14:31:44Z</time>
      </trkpt>
      <trkpt lat="47.09246" lon="2.4223">
        <ele>134</ele>
        <time>2021-08-26T14:31:44Z</time>
      </trkpt>
      <trkpt lat="47.09252" lon="2.42231">
        <ele>134</ele>
        <time>2021-08-26T14:31:44Z</time>
      </trkpt>
      <trkpt lat="47.09257" lon="2.42233">
        <ele>134</ele>
        <time>2021-08-26T14:31:44Z</time>
      </trkpt>
      <trkpt lat="47.09262" lon="2.42234">
        <ele>134</ele>
        <time>2021-08-26T14:31:44Z</time>
      </trkpt>
      <trkpt lat="47.09267" lon="2.42234">
        <ele>134</ele>
        <time>2021-08-26T14:31:44Z</time>
      </trkpt>
      <trkpt lat="47.09272" lon="2.42235">
        <ele>134</ele>
        <time>2021-08-26T14:31:44Z</time>
      </trkpt>
      <trkpt lat="47.09276" lon="2.42235">
        <ele>134</ele>
        <time>2021-08-26T14:31:44Z</time>
      </trkpt>
      <trkpt lat="47.09282" lon="2.42237">
        <ele>134</ele>
        <time>2021-08-26T14:31:44Z</time>
      </trkpt>
      <trkpt lat="47.09287" lon="2.42238">
        <ele>134</ele>
        <time>2021-08-26T14:31:44Z</time>
      </trkpt>
      <trkpt lat="47.09292" lon="2.42239">
        <ele>134</ele>
        <time>2021-08-26T14:31:44Z</time>
      </trkpt>
      <trkpt lat="47.09299" lon="2.42243">
        <ele>134</ele>
        <time>2021-08-26T14:31:44Z</time>
      </trkpt>
      <trkpt lat="47.09305" lon="2.42246">
        <ele>134</ele>
        <time>2021-08-26T14:31:44Z</time>
      </trkpt>
      <trkpt lat="47.09311" lon="2.42249">
        <ele>134</ele>
        <time>2021-08-26T14:31:44Z</time>
      </trkpt>
      <trkpt lat="47.09317" lon="2.42252">
        <ele>134</ele>
        <time>2021-08-26T14:31:44Z</time>
      </trkpt>
      <trkpt lat="47.09323" lon="2.42257">
        <ele>134</ele>
        <time>2021-08-26T14:31:44Z</time>
      </trkpt>
      <trkpt lat="47.09331" lon="2.42259">
        <ele>133</ele>
        <time>2021-08-26T14:31:44Z</time>
      </trkpt>
      <trkpt lat="47.09337" lon="2.42264">
        <ele>133</ele>
        <time>2021-08-26T14:31:44Z</time>
      </trkpt>
      <trkpt lat="47.09344" lon="2.42269">
        <ele>132</ele>
        <time>2021-08-26T14:31:44Z</time>
      </trkpt>
      <trkpt lat="47.09351" lon="2.42274">
        <ele>132</ele>
        <time>2021-08-26T14:31:44Z</time>
      </trkpt>
      <trkpt lat="47.09358" lon="2.4228">
        <ele>132</ele>
        <time>2021-08-26T14:31:44Z</time>
      </trkpt>
      <trkpt lat="47.09364" lon="2.42286">
        <ele>131</ele>
        <time>2021-08-26T14:31:44Z</time>
      </trkpt>
      <trkpt lat="47.09371" lon="2.42291">
        <ele>131</ele>
        <time>2021-08-26T14:31:44Z</time>
      </trkpt>
      <trkpt lat="47.09378" lon="2.42297">
        <ele>130</ele>
        <time>2021-08-26T14:31:44Z</time>
      </trkpt>
      <trkpt lat="47.09383" lon="2.42303">
        <ele>130</ele>
        <time>2021-08-26T14:31:44Z</time>
      </trkpt>
      <trkpt lat="47.0939" lon="2.42308">
        <ele>130</ele>
        <time>2021-08-26T14:31:44Z</time>
      </trkpt>
      <trkpt lat="47.09396" lon="2.42314">
        <ele>130</ele>
        <time>2021-08-26T14:31:44Z</time>
      </trkpt>
      <trkpt lat="47.09401" lon="2.42319">
        <ele>130</ele>
        <time>2021-08-26T14:31:44Z</time>
      </trkpt>
      <trkpt lat="47.09408" lon="2.42325">
        <ele>130</ele>
        <time>2021-08-26T14:31:44Z</time>
      </trkpt>
      <trkpt lat="47.09413" lon="2.4233">
        <ele>130</ele>
        <time>2021-08-26T14:31:44Z</time>
      </trkpt>
      <trkpt lat="47.09419" lon="2.42335">
        <ele>131</ele>
        <time>2021-08-26T14:31:44Z</time>
      </trkpt>
      <trkpt lat="47.09424" lon="2.42342">
        <ele>131</ele>
        <time>2021-08-26T14:31:44Z</time>
      </trkpt>
      <trkpt lat="47.0943" lon="2.42346">
        <ele>131</ele>
        <time>2021-08-26T14:31:44Z</time>
      </trkpt>
      <trkpt lat="47.09436" lon="2.4235">
        <ele>131</ele>
        <time>2021-08-26T14:31:44Z</time>
      </trkpt>
      <trkpt lat="47.09443" lon="2.42353">
        <ele>131</ele>
        <time>2021-08-26T14:31:44Z</time>
      </trkpt>
      <trkpt lat="47.0945" lon="2.42354">
        <ele>131</ele>
        <time>2021-08-26T14:31:44Z</time>
      </trkpt>
      <trkpt lat="47.09456" lon="2.42355">
        <ele>131</ele>
        <time>2021-08-26T14:31:44Z</time>
      </trkpt>
      <trkpt lat="47.09463" lon="2.42356">
        <ele>131</ele>
        <time>2021-08-26T14:31:44Z</time>
      </trkpt>
      <trkpt lat="47.0947" lon="2.42357">
        <ele>131</ele>
        <time>2021-08-26T14:31:44Z</time>
      </trkpt>
      <trkpt lat="47.09476" lon="2.42358">
        <ele>130</ele>
        <time>2021-08-26T14:31:44Z</time>
      </trkpt>
      <trkpt lat="47.09482" lon="2.42359">
        <ele>130</ele>
        <time>2021-08-26T14:31:44Z</time>
      </trkpt>
      <trkpt lat="47.09489" lon="2.42367">
        <ele>130</ele>
        <time>2021-08-26T14:31:44Z</time>
      </trkpt>
      <trkpt lat="47.09494" lon="2.42373">
        <ele>130</ele>
        <time>2021-08-26T14:31:44Z</time>
      </trkpt>
      <trkpt lat="47.09497" lon="2.42381">
        <ele>130</ele>
        <time>2021-08-26T14:31:44Z</time>
      </trkpt>
      <trkpt lat="47.095" lon="2.42387">
        <ele>130</ele>
        <time>2021-08-26T14:31:44Z</time>
      </trkpt>
      <trkpt lat="47.09501" lon="2.42396">
        <ele>129</ele>
        <time>2021-08-26T14:31:44Z</time>
      </trkpt>
      <trkpt lat="47.09501" lon="2.42405">
        <ele>129</ele>
        <time>2021-08-26T14:31:44Z</time>
      </trkpt>
      <trkpt lat="47.09501" lon="2.42414">
        <ele>129</ele>
        <time>2021-08-26T14:31:44Z</time>
      </trkpt>
      <trkpt lat="47.09501" lon="2.42422">
        <ele>128</ele>
        <time>2021-08-26T14:31:44Z</time>
      </trkpt>
      <trkpt lat="47.09503" lon="2.42431">
        <ele>128</ele>
        <time>2021-08-26T14:31:44Z</time>
      </trkpt>
      <trkpt lat="47.09502" lon="2.42439">
        <ele>128</ele>
        <time>2021-08-26T14:31:44Z</time>
      </trkpt>
      <trkpt lat="47.09503" lon="2.42446">
        <ele>128</ele>
        <time>2021-08-26T14:31:44Z</time>
      </trkpt>
      <trkpt lat="47.09503" lon="2.42453">
        <ele>129</ele>
        <time>2021-08-26T14:31:44Z</time>
      </trkpt>
      <trkpt lat="47.09503" lon="2.42459">
        <ele>129</ele>
        <time>2021-08-26T14:31:44Z</time>
      </trkpt>
      <trkpt lat="47.09504" lon="2.42465">
        <ele>129</ele>
        <time>2021-08-26T14:31:44Z</time>
      </trkpt>
      <trkpt lat="47.09504" lon="2.42469">
        <ele>129</ele>
        <time>2021-08-26T14:31:44Z</time>
      </trkpt>
      <trkpt lat="47.09506" lon="2.42472">
        <ele>129</ele>
        <time>2021-08-26T14:31:44Z</time>
      </trkpt>
      <trkpt lat="47.0951" lon="2.42476">
        <ele>129</ele>
        <time>2021-08-26T14:31:44Z</time>
      </trkpt>
      <trkpt lat="47.09514" lon="2.42476">
        <ele>129</ele>
        <time>2021-08-26T14:31:44Z</time>
      </trkpt>
      <trkpt lat="47.09518" lon="2.42476">
        <ele>128</ele>
        <time>2021-08-26T14:31:44Z</time>
      </trkpt>
      <trkpt lat="47.09521" lon="2.42476">
        <ele>128</ele>
        <time>2021-08-26T14:31:44Z</time>
      </trkpt>
      <trkpt lat="47.09528" lon="2.42463">
        <ele>127</ele>
        <time>2021-08-26T14:31:44Z</time>
      </trkpt>
      <trkpt lat="47.09556" lon="2.4247">
        <ele>127</ele>
        <time>2021-08-26T14:31:44Z</time>
      </trkpt>
      <trkpt lat="47.09586" lon="2.42478">
        <ele>128</ele>
        <time>2021-08-26T14:31:44Z</time>
      </trkpt>
      <trkpt lat="47.09613" lon="2.42495">
        <ele>128</ele>
        <time>2021-08-26T14:31:44Z</time>
      </trkpt>
      <trkpt lat="47.0964" lon="2.42523">
        <ele>128</ele>
        <time>2021-08-26T14:31:44Z</time>
      </trkpt>
      <trkpt lat="47.09659" lon="2.42545">
        <ele>128</ele>
        <time>2021-08-26T14:31:44Z</time>
      </trkpt>
      <trkpt lat="47.09664" lon="2.4255">
        <ele>128</ele>
        <time>2021-08-26T14:31:44Z</time>
      </trkpt>
      <trkpt lat="47.09686" lon="2.42585">
        <ele>129</ele>
        <time>2021-08-26T14:31:44Z</time>
      </trkpt>
      <trkpt lat="47.09706" lon="2.42618">
        <ele>128</ele>
        <time>2021-08-26T14:31:44Z</time>
      </trkpt>
      <trkpt lat="47.09724" lon="2.42652">
        <ele>127</ele>
        <time>2021-08-26T14:31:44Z</time>
      </trkpt>
      <trkpt lat="47.09743" lon="2.42687">
        <ele>127</ele>
        <time>2021-08-26T14:31:44Z</time>
      </trkpt>
      <trkpt lat="47.0976" lon="2.4272">
        <ele>128</ele>
        <time>2021-08-26T14:31:44Z</time>
      </trkpt>
      <trkpt lat="47.09769" lon="2.42724">
        <ele>128</ele>
        <time>2021-08-26T14:31:44Z</time>
      </trkpt>
      <trkpt lat="47.09771" lon="2.42724">
        <ele>128</ele>
        <time>2021-08-26T14:31:44Z</time>
      </trkpt>
      <trkpt lat="47.09773" lon="2.42722">
        <ele>128</ele>
        <time>2021-08-26T14:31:44Z</time>
      </trkpt>
      <trkpt lat="47.09774" lon="2.42717">
        <ele>128</ele>
        <time>2021-08-26T14:31:44Z</time>
      </trkpt>
      <trkpt lat="47.09783" lon="2.42686">
        <ele>128</ele>
        <time>2021-08-26T14:31:44Z</time>
      </trkpt>
      <trkpt lat="47.09795" lon="2.42645">
        <ele>126</ele>
        <time>2021-08-26T14:31:44Z</time>
      </trkpt>
      <trkpt lat="47.09807" lon="2.42605">
        <ele>125</ele>
        <time>2021-08-26T14:31:44Z</time>
      </trkpt>
      <trkpt lat="47.09816" lon="2.42573">
        <ele>125</ele>
        <time>2021-08-26T14:31:44Z</time>
      </trkpt>
      <trkpt lat="47.09819" lon="2.42567">
        <ele>124</ele>
        <time>2021-08-26T14:31:44Z</time>
      </trkpt>
      <trkpt lat="47.0983" lon="2.42527">
        <ele>124</ele>
        <time>2021-08-26T14:31:44Z</time>
      </trkpt>
      <trkpt lat="47.09842" lon="2.42486">
        <ele>126</ele>
        <time>2021-08-26T14:31:44Z</time>
      </trkpt>
      <trkpt lat="47.09853" lon="2.42448">
        <ele>127</ele>
        <time>2021-08-26T14:31:44Z</time>
      </trkpt>
      <trkpt lat="47.09867" lon="2.42428">
        <ele>128</ele>
        <time>2021-08-26T14:31:44Z</time>
      </trkpt>
      <trkpt lat="47.09889" lon="2.42409">
        <ele>129</ele>
        <time>2021-08-26T14:31:44Z</time>
      </trkpt>
      <trkpt lat="47.09909" lon="2.42393">
        <ele>130</ele>
        <time>2021-08-26T14:31:44Z</time>
      </trkpt>
      <trkpt lat="47.09914" lon="2.4239">
        <ele>130</ele>
        <time>2021-08-26T14:31:44Z</time>
      </trkpt>
      <trkpt lat="47.09919" lon="2.42386">
        <ele>131</ele>
        <time>2021-08-26T14:31:44Z</time>
      </trkpt>
      <trkpt lat="47.09923" lon="2.42382">
        <ele>131</ele>
        <time>2021-08-26T14:31:44Z</time>
      </trkpt>
      <trkpt lat="47.09928" lon="2.42378">
        <ele>132</ele>
        <time>2021-08-26T14:31:44Z</time>
      </trkpt>
      <trkpt lat="47.09934" lon="2.42374">
        <ele>132</ele>
        <time>2021-08-26T14:31:44Z</time>
      </trkpt>
      <trkpt lat="47.09939" lon="2.4237">
        <ele>132</ele>
        <time>2021-08-26T14:31:44Z</time>
      </trkpt>
      <trkpt lat="47.09944" lon="2.42365">
        <ele>132</ele>
        <time>2021-08-26T14:31:44Z</time>
      </trkpt>
      <trkpt lat="47.09949" lon="2.42361">
        <ele>132</ele>
        <time>2021-08-26T14:31:44Z</time>
      </trkpt>
      <trkpt lat="47.09952" lon="2.42357">
        <ele>133</ele>
        <time>2021-08-26T14:31:44Z</time>
      </trkpt>
      <trkpt lat="47.09954" lon="2.42352">
        <ele>133</ele>
        <time>2021-08-26T14:31:44Z</time>
      </trkpt>
      <trkpt lat="47.09956" lon="2.42349">
        <ele>133</ele>
        <time>2021-08-26T14:31:44Z</time>
      </trkpt>
      <trkpt lat="47.09957" lon="2.42345">
        <ele>134</ele>
        <time>2021-08-26T14:31:44Z</time>
      </trkpt>
      <trkpt lat="47.09959" lon="2.42342">
        <ele>134</ele>
        <time>2021-08-26T14:31:44Z</time>
      </trkpt>
      <trkpt lat="47.09959" lon="2.42339">
        <ele>134</ele>
        <time>2021-08-26T14:31:44Z</time>
      </trkpt>
      <trkpt lat="47.09962" lon="2.42336">
        <ele>134</ele>
        <time>2021-08-26T14:31:44Z</time>
      </trkpt>
      <trkpt lat="47.09966" lon="2.42334">
        <ele>134</ele>
        <time>2021-08-26T14:31:44Z</time>
      </trkpt>
      <trkpt lat="47.0997" lon="2.42331">
        <ele>135</ele>
        <time>2021-08-26T14:31:44Z</time>
      </trkpt>
      <trkpt lat="47.09974" lon="2.42327">
        <ele>135</ele>
        <time>2021-08-26T14:31:44Z</time>
      </trkpt>
      <trkpt lat="47.09978" lon="2.42324">
        <ele>135</ele>
        <time>2021-08-26T14:31:44Z</time>
      </trkpt>
      <trkpt lat="47.09983" lon="2.42321">
        <ele>135</ele>
        <time>2021-08-26T14:31:44Z</time>
      </trkpt>
      <trkpt lat="47.09988" lon="2.42318">
        <ele>135</ele>
        <time>2021-08-26T14:31:44Z</time>
      </trkpt>
      <trkpt lat="47.09992" lon="2.42314">
        <ele>135</ele>
        <time>2021-08-26T14:31:44Z</time>
      </trkpt>
      <trkpt lat="47.09997" lon="2.4231">
        <ele>135</ele>
        <time>2021-08-26T14:31:44Z</time>
      </trkpt>
      <trkpt lat="47.10002" lon="2.42307">
        <ele>135</ele>
        <time>2021-08-26T14:31:44Z</time>
      </trkpt>
      <trkpt lat="47.10006" lon="2.42303">
        <ele>136</ele>
        <time>2021-08-26T14:31:44Z</time>
      </trkpt>
      <trkpt lat="47.10011" lon="2.42298">
        <ele>136</ele>
        <time>2021-08-26T14:31:44Z</time>
      </trkpt>
      <trkpt lat="47.10017" lon="2.42295">
        <ele>136</ele>
        <time>2021-08-26T14:31:44Z</time>
      </trkpt>
      <trkpt lat="47.1002" lon="2.4229">
        <ele>136</ele>
        <time>2021-08-26T14:31:44Z</time>
      </trkpt>
      <trkpt lat="47.10025" lon="2.42286">
        <ele>136</ele>
        <time>2021-08-26T14:31:44Z</time>
      </trkpt>
      <trkpt lat="47.1003" lon="2.42282">
        <ele>136</ele>
        <time>2021-08-26T14:31:44Z</time>
      </trkpt>
      <trkpt lat="47.10035" lon="2.42278">
        <ele>136</ele>
        <time>2021-08-26T14:31:44Z</time>
      </trkpt>
      <trkpt lat="47.10041" lon="2.42275">
        <ele>136</ele>
        <time>2021-08-26T14:31:44Z</time>
      </trkpt>
      <trkpt lat="47.10046" lon="2.4227">
        <ele>137</ele>
        <time>2021-08-26T14:31:44Z</time>
      </trkpt>
      <trkpt lat="47.1005" lon="2.42266">
        <ele>137</ele>
        <time>2021-08-26T14:31:44Z</time>
      </trkpt>
      <trkpt lat="47.10055" lon="2.42261">
        <ele>137</ele>
        <time>2021-08-26T14:31:44Z</time>
      </trkpt>
      <trkpt lat="47.10059" lon="2.42256">
        <ele>137</ele>
        <time>2021-08-26T14:31:44Z</time>
      </trkpt>
      <trkpt lat="47.10061" lon="2.42251">
        <ele>137</ele>
        <time>2021-08-26T14:31:44Z</time>
      </trkpt>
      <trkpt lat="47.10064" lon="2.42247">
        <ele>136</ele>
        <time>2021-08-26T14:31:44Z</time>
      </trkpt>
      <trkpt lat="47.10067" lon="2.42245">
        <ele>136</ele>
        <time>2021-08-26T14:31:44Z</time>
      </trkpt>
      <trkpt lat="47.1007" lon="2.42243">
        <ele>136</ele>
        <time>2021-08-26T14:31:44Z</time>
      </trkpt>
      <trkpt lat="47.10072" lon="2.4224">
        <ele>136</ele>
        <time>2021-08-26T14:31:44Z</time>
      </trkpt>
      <trkpt lat="47.10073" lon="2.42235">
        <ele>136</ele>
        <time>2021-08-26T14:31:44Z</time>
      </trkpt>
      <trkpt lat="47.10075" lon="2.4223">
        <ele>136</ele>
        <time>2021-08-26T14:31:44Z</time>
      </trkpt>
      <trkpt lat="47.10077" lon="2.42224">
        <ele>136</ele>
        <time>2021-08-26T14:31:44Z</time>
      </trkpt>
      <trkpt lat="47.10078" lon="2.42219">
        <ele>136</ele>
        <time>2021-08-26T14:31:44Z</time>
      </trkpt>
      <trkpt lat="47.1008" lon="2.42215">
        <ele>136</ele>
        <time>2021-08-26T14:31:44Z</time>
      </trkpt>
      <trkpt lat="47.1008" lon="2.42211">
        <ele>136</ele>
        <time>2021-08-26T14:31:44Z</time>
      </trkpt>
      <trkpt lat="47.1008" lon="2.4221">
        <ele>136</ele>
        <time>2021-08-26T14:31:44Z</time>
      </trkpt>
      <trkpt lat="47.10079" lon="2.4221">
        <ele>136</ele>
        <time>2021-08-26T14:31:44Z</time>
      </trkpt>
      <trkpt lat="47.10079" lon="2.42209">
        <ele>136</ele>
        <time>2021-08-26T14:31:44Z</time>
      </trkpt>
      <trkpt lat="47.10079" lon="2.42209">
        <ele>136</ele>
        <time>2021-08-26T14:31:44Z</time>
      </trkpt>
      <trkpt lat="47.10079" lon="2.42209">
        <ele>136</ele>
        <time>2021-08-26T14:31:44Z</time>
      </trkpt>
      <trkpt lat="47.10079" lon="2.4221">
        <ele>136</ele>
        <time>2021-08-26T14:31:44Z</time>
      </trkpt>
      <trkpt lat="47.10079" lon="2.4221">
        <ele>136</ele>
        <time>2021-08-26T14:31:44Z</time>
      </trkpt>
      <trkpt lat="47.10079" lon="2.42209">
        <ele>136</ele>
        <time>2021-08-26T14:31:44Z</time>
      </trkpt>
      <trkpt lat="47.10078" lon="2.42208">
        <ele>136</ele>
        <time>2021-08-26T14:31:44Z</time>
      </trkpt>
      <trkpt lat="47.10079" lon="2.42206">
        <ele>136</ele>
        <time>2021-08-26T14:31:44Z</time>
      </trkpt>
      <trkpt lat="47.1008" lon="2.42203">
        <ele>136</ele>
        <time>2021-08-26T14:31:44Z</time>
      </trkpt>
      <trkpt lat="47.10083" lon="2.42199">
        <ele>136</ele>
        <time>2021-08-26T14:31:44Z</time>
      </trkpt>
      <trkpt lat="47.10091" lon="2.42197">
        <ele>136</ele>
        <time>2021-08-26T14:31:44Z</time>
      </trkpt>
      <trkpt lat="47.10097" lon="2.42195">
        <ele>136</ele>
        <time>2021-08-26T14:31:44Z</time>
      </trkpt>
      <trkpt lat="47.10102" lon="2.42192">
        <ele>136</ele>
        <time>2021-08-26T14:31:44Z</time>
      </trkpt>
      <trkpt lat="47.10128" lon="2.42173">
        <ele>135</ele>
        <time>2021-08-26T14:31:44Z</time>
      </trkpt>
      <trkpt lat="47.10147" lon="2.42144">
        <ele>135</ele>
        <time>2021-08-26T14:31:44Z</time>
      </trkpt>
      <trkpt lat="47.10175" lon="2.42125">
        <ele>136</ele>
        <time>2021-08-26T14:31:44Z</time>
      </trkpt>
      <trkpt lat="47.10202" lon="2.42106">
        <ele>136</ele>
        <time>2021-08-26T14:31:44Z</time>
      </trkpt>
      <trkpt lat="47.1023" lon="2.42087">
        <ele>137</ele>
        <time>2021-08-26T14:31:44Z</time>
      </trkpt>
      <trkpt lat="47.10234" lon="2.42063">
        <ele>137</ele>
        <time>2021-08-26T14:31:44Z</time>
      </trkpt>
      <trkpt lat="47.10231" lon="2.42056">
        <ele>137</ele>
        <time>2021-08-26T14:31:44Z</time>
      </trkpt>
      <trkpt lat="47.10217" lon="2.42017">
        <ele>138</ele>
        <time>2021-08-26T14:31:44Z</time>
      </trkpt>
      <trkpt lat="47.10203" lon="2.41983">
        <ele>139</ele>
        <time>2021-08-26T14:31:44Z</time>
      </trkpt>
      <trkpt lat="47.10206" lon="2.41965">
        <ele>140</ele>
        <time>2021-08-26T14:31:44Z</time>
      </trkpt>
      <trkpt lat="47.10214" lon="2.41958">
        <ele>141</ele>
        <time>2021-08-26T14:31:44Z</time>
      </trkpt>
      <trkpt lat="47.10226" lon="2.41956">
        <ele>142</ele>
        <time>2021-08-26T14:31:44Z</time>
      </trkpt>
      <trkpt lat="47.10227" lon="2.41935">
        <ele>143</ele>
        <time>2021-08-26T14:31:44Z</time>
      </trkpt>
      <trkpt lat="47.10225" lon="2.41929">
        <ele>143</ele>
        <time>2021-08-26T14:31:44Z</time>
      </trkpt>
      <trkpt lat="47.1021" lon="2.41894">
        <ele>142</ele>
        <time>2021-08-26T14:31:44Z</time>
      </trkpt>
      <trkpt lat="47.10208" lon="2.4188">
        <ele>141</ele>
        <time>2021-08-26T14:31:44Z</time>
      </trkpt>
      <trkpt lat="47.10207" lon="2.4188">
        <ele>141</ele>
        <time>2021-08-26T14:31:44Z</time>
      </trkpt>
      <trkpt lat="47.10208" lon="2.4188">
        <ele>141</ele>
        <time>2021-08-26T14:31:44Z</time>
      </trkpt>
      <trkpt lat="47.10208" lon="2.41879">
        <ele>141</ele>
        <time>2021-08-26T14:31:44Z</time>
      </trkpt>
      <trkpt lat="47.10209" lon="2.41879">
        <ele>142</ele>
        <time>2021-08-26T14:31:44Z</time>
      </trkpt>
      <trkpt lat="47.10209" lon="2.41878">
        <ele>142</ele>
        <time>2021-08-26T14:31:44Z</time>
      </trkpt>
      <trkpt lat="47.10209" lon="2.41878">
        <ele>142</ele>
        <time>2021-08-26T14:31:44Z</time>
      </trkpt>
      <trkpt lat="47.1021" lon="2.41877">
        <ele>142</ele>
        <time>2021-08-26T14:31:44Z</time>
      </trkpt>
      <trkpt lat="47.10212" lon="2.41876">
        <ele>142</ele>
        <time>2021-08-26T14:31:44Z</time>
      </trkpt>
      <trkpt lat="47.10214" lon="2.41875">
        <ele>142</ele>
        <time>2021-08-26T14:31:44Z</time>
      </trkpt>
      <trkpt lat="47.10234" lon="2.41851">
        <ele>143</ele>
        <time>2021-08-26T14:31:44Z</time>
      </trkpt>
      <trkpt lat="47.10243" lon="2.41815">
        <ele>143</ele>
        <time>2021-08-26T14:31:44Z</time>
      </trkpt>
      <trkpt lat="47.10242" lon="2.41775">
        <ele>143</ele>
        <time>2021-08-26T14:31:44Z</time>
      </trkpt>
      <trkpt lat="47.1024" lon="2.4173">
        <ele>143</ele>
        <time>2021-08-26T14:31:44Z</time>
      </trkpt>
      <trkpt lat="47.10239" lon="2.41687">
        <ele>144</ele>
        <time>2021-08-26T14:31:44Z</time>
      </trkpt>
      <trkpt lat="47.10245" lon="2.41653">
        <ele>144</ele>
        <time>2021-08-26T14:31:44Z</time>
      </trkpt>
      <trkpt lat="47.10248" lon="2.41646">
        <ele>144</ele>
        <time>2021-08-26T14:31:44Z</time>
      </trkpt>
      <trkpt lat="47.10261" lon="2.41611">
        <ele>144</ele>
        <time>2021-08-26T14:31:44Z</time>
      </trkpt>
      <trkpt lat="47.10279" lon="2.41577">
        <ele>146</ele>
        <time>2021-08-26T14:31:44Z</time>
      </trkpt>
      <trkpt lat="47.10306" lon="2.41565">
        <ele>145</ele>
        <time>2021-08-26T14:31:44Z</time>
      </trkpt>
      <trkpt lat="47.10336" lon="2.4156">
        <ele>145</ele>
        <time>2021-08-26T14:31:44Z</time>
      </trkpt>
      <trkpt lat="47.10364" lon="2.4155">
        <ele>145</ele>
        <time>2021-08-26T14:31:44Z</time>
      </trkpt>
      <trkpt lat="47.10376" lon="2.41532">
        <ele>146</ele>
        <time>2021-08-26T14:31:44Z</time>
      </trkpt>
      <trkpt lat="47.10378" lon="2.41528">
        <ele>147</ele>
        <time>2021-08-26T14:31:44Z</time>
      </trkpt>
      <trkpt lat="47.10382" lon="2.4152">
        <ele>148</ele>
        <time>2021-08-26T14:31:44Z</time>
      </trkpt>
      <trkpt lat="47.10384" lon="2.41517">
        <ele>148</ele>
        <time>2021-08-26T14:31:44Z</time>
      </trkpt>
      <trkpt lat="47.10385" lon="2.41515">
        <ele>148</ele>
        <time>2021-08-26T14:31:44Z</time>
      </trkpt>
      <trkpt lat="47.10386" lon="2.41514">
        <ele>148</ele>
        <time>2021-08-26T14:31:44Z</time>
      </trkpt>
      <trkpt lat="47.10386" lon="2.41513">
        <ele>148</ele>
        <time>2021-08-26T14:31:44Z</time>
      </trkpt>
      <trkpt lat="47.10386" lon="2.41513">
        <ele>148</ele>
        <time>2021-08-26T14:31:44Z</time>
      </trkpt>
      <trkpt lat="47.10386" lon="2.41514">
        <ele>148</ele>
        <time>2021-08-26T14:31:44Z</time>
      </trkpt>
      <trkpt lat="47.10386" lon="2.41514">
        <ele>148</ele>
        <time>2021-08-26T14:31:44Z</time>
      </trkpt>
      <trkpt lat="47.10386" lon="2.41514">
        <ele>148</ele>
        <time>2021-08-26T14:31:44Z</time>
      </trkpt>
      <trkpt lat="47.10386" lon="2.41514">
        <ele>148</ele>
        <time>2021-08-26T14:31:44Z</time>
      </trkpt>
      <trkpt lat="47.10386" lon="2.41515">
        <ele>148</ele>
        <time>2021-08-26T14:31:44Z</time>
      </trkpt>
      <trkpt lat="47.10386" lon="2.41515">
        <ele>148</ele>
        <time>2021-08-26T14:31:44Z</time>
      </trkpt>
      <trkpt lat="47.10386" lon="2.41515">
        <ele>148</ele>
        <time>2021-08-26T14:31:44Z</time>
      </trkpt>
      <trkpt lat="47.10386" lon="2.41515">
        <ele>148</ele>
        <time>2021-08-26T14:31:44Z</time>
      </trkpt>
      <trkpt lat="47.10386" lon="2.41514">
        <ele>148</ele>
        <time>2021-08-26T14:31:44Z</time>
      </trkpt>
      <trkpt lat="47.10385" lon="2.41515">
        <ele>148</ele>
        <time>2021-08-26T14:31:44Z</time>
      </trkpt>
      <trkpt lat="47.10386" lon="2.41516">
        <ele>148</ele>
        <time>2021-08-26T14:31:44Z</time>
      </trkpt>
      <trkpt lat="47.10387" lon="2.41517">
        <ele>148</ele>
        <time>2021-08-26T14:31:44Z</time>
      </trkpt>
      <trkpt lat="47.10388" lon="2.41519">
        <ele>148</ele>
        <time>2021-08-26T14:31:44Z</time>
      </trkpt>
      <trkpt lat="47.1039" lon="2.41522">
        <ele>148</ele>
        <time>2021-08-26T14:31:44Z</time>
      </trkpt>
      <trkpt lat="47.10392" lon="2.41527">
        <ele>148</ele>
        <time>2021-08-26T14:31:44Z</time>
      </trkpt>
      <trkpt lat="47.10395" lon="2.41532">
        <ele>148</ele>
        <time>2021-08-26T14:31:44Z</time>
      </trkpt>
      <trkpt lat="47.104" lon="2.41537">
        <ele>149</ele>
        <time>2021-08-26T14:31:44Z</time>
      </trkpt>
      <trkpt lat="47.10419" lon="2.41565">
        <ele>150</ele>
        <time>2021-08-26T14:31:44Z</time>
      </trkpt>
      <trkpt lat="47.10438" lon="2.41594">
        <ele>150</ele>
        <time>2021-08-26T14:31:44Z</time>
      </trkpt>
      <trkpt lat="47.1046" lon="2.41619">
        <ele>148</ele>
        <time>2021-08-26T14:31:44Z</time>
      </trkpt>
      <trkpt lat="47.10482" lon="2.41646">
        <ele>146</ele>
        <time>2021-08-26T14:31:44Z</time>
      </trkpt>
      <trkpt lat="47.10505" lon="2.41669">
        <ele>147</ele>
        <time>2021-08-26T14:31:44Z</time>
      </trkpt>
      <trkpt lat="47.10525" lon="2.41689">
        <ele>146</ele>
        <time>2021-08-26T14:31:44Z</time>
      </trkpt>
      <trkpt lat="47.10529" lon="2.41694">
        <ele>146</ele>
        <time>2021-08-26T14:31:44Z</time>
      </trkpt>
      <trkpt lat="47.10554" lon="2.41719">
        <ele>146</ele>
        <time>2021-08-26T14:31:44Z</time>
      </trkpt>
      <trkpt lat="47.10578" lon="2.41744">
        <ele>146</ele>
        <time>2021-08-26T14:31:44Z</time>
      </trkpt>
      <trkpt lat="47.10602" lon="2.41769">
        <ele>146</ele>
        <time>2021-08-26T14:31:44Z</time>
      </trkpt>
      <trkpt lat="47.10627" lon="2.41795">
        <ele>145</ele>
        <time>2021-08-26T14:31:44Z</time>
      </trkpt>
      <trkpt lat="47.10651" lon="2.41822">
        <ele>144</ele>
        <time>2021-08-26T14:31:44Z</time>
      </trkpt>
      <trkpt lat="47.10672" lon="2.41842">
        <ele>144</ele>
        <time>2021-08-26T14:31:44Z</time>
      </trkpt>
      <trkpt lat="47.10677" lon="2.41848">
        <ele>144</ele>
        <time>2021-08-26T14:31:44Z</time>
      </trkpt>
      <trkpt lat="47.10701" lon="2.41871">
        <ele>144</ele>
        <time>2021-08-26T14:31:44Z</time>
      </trkpt>
      <trkpt lat="47.10726" lon="2.419">
        <ele>143</ele>
        <time>2021-08-26T14:31:44Z</time>
      </trkpt>
      <trkpt lat="47.10752" lon="2.41927">
        <ele>143</ele>
        <time>2021-08-26T14:31:44Z</time>
      </trkpt>
      <trkpt lat="47.10777" lon="2.41952">
        <ele>145</ele>
        <time>2021-08-26T14:31:44Z</time>
      </trkpt>
      <trkpt lat="47.10802" lon="2.41978">
        <ele>145</ele>
        <time>2021-08-26T14:31:44Z</time>
      </trkpt>
      <trkpt lat="47.10816" lon="2.41996">
        <ele>145</ele>
        <time>2021-08-26T14:31:44Z</time>
      </trkpt>
      <trkpt lat="47.10817" lon="2.42001">
        <ele>144</ele>
        <time>2021-08-26T14:31:44Z</time>
      </trkpt>
      <trkpt lat="47.10821" lon="2.42026">
        <ele>144</ele>
        <time>2021-08-26T14:31:44Z</time>
      </trkpt>
      <trkpt lat="47.10845" lon="2.42028">
        <ele>144</ele>
        <time>2021-08-26T14:31:44Z</time>
      </trkpt>
      <trkpt lat="47.10859" lon="2.42047">
        <ele>144</ele>
        <time>2021-08-26T14:31:44Z</time>
      </trkpt>
      <trkpt lat="47.10881" lon="2.42069">
        <ele>144</ele>
        <time>2021-08-26T14:31:44Z</time>
      </trkpt>
      <trkpt lat="47.10904" lon="2.42094">
        <ele>146</ele>
        <time>2021-08-26T14:31:44Z</time>
      </trkpt>
      <trkpt lat="47.10921" lon="2.42113">
        <ele>147</ele>
        <time>2021-08-26T14:31:44Z</time>
      </trkpt>
      <trkpt lat="47.10926" lon="2.42116">
        <ele>147</ele>
        <time>2021-08-26T14:31:44Z</time>
      </trkpt>
      <trkpt lat="47.10946" lon="2.42141">
        <ele>146</ele>
        <time>2021-08-26T14:31:44Z</time>
      </trkpt>
      <trkpt lat="47.10969" lon="2.42164">
        <ele>146</ele>
        <time>2021-08-26T14:31:44Z</time>
      </trkpt>
      <trkpt lat="47.10988" lon="2.42184">
        <ele>146</ele>
        <time>2021-08-26T14:31:44Z</time>
      </trkpt>
      <trkpt lat="47.11007" lon="2.42206">
        <ele>147</ele>
        <time>2021-08-26T14:31:44Z</time>
      </trkpt>
      <trkpt lat="47.11023" lon="2.42216">
        <ele>147</ele>
        <time>2021-08-26T14:31:44Z</time>
      </trkpt>
      <trkpt lat="47.11021" lon="2.42201">
        <ele>147</ele>
        <time>2021-08-26T14:31:44Z</time>
      </trkpt>
      <trkpt lat="47.11016" lon="2.42196">
        <ele>147</ele>
        <time>2021-08-26T14:31:44Z</time>
      </trkpt>
      <trkpt lat="47.11012" lon="2.42192">
        <ele>147</ele>
        <time>2021-08-26T14:31:44Z</time>
      </trkpt>
      <trkpt lat="47.11008" lon="2.42187">
        <ele>147</ele>
        <time>2021-08-26T14:31:44Z</time>
      </trkpt>
      <trkpt lat="47.11003" lon="2.42182">
        <ele>147</ele>
        <time>2021-08-26T14:31:44Z</time>
      </trkpt>
      <trkpt lat="47.10999" lon="2.42177">
        <ele>146</ele>
        <time>2021-08-26T14:31:44Z</time>
      </trkpt>
      <trkpt lat="47.10994" lon="2.42171">
        <ele>146</ele>
        <time>2021-08-26T14:31:44Z</time>
      </trkpt>
      <trkpt lat="47.10989" lon="2.42165">
        <ele>146</ele>
        <time>2021-08-26T14:31:44Z</time>
      </trkpt>
      <trkpt lat="47.10984" lon="2.42159">
        <ele>146</ele>
        <time>2021-08-26T14:31:44Z</time>
      </trkpt>
      <trkpt lat="47.1098" lon="2.42152">
        <ele>146</ele>
        <time>2021-08-26T14:31:44Z</time>
      </trkpt>
      <trkpt lat="47.10974" lon="2.42147">
        <ele>146</ele>
        <time>2021-08-26T14:31:44Z</time>
      </trkpt>
      <trkpt lat="47.10969" lon="2.42141">
        <ele>146</ele>
        <time>2021-08-26T14:31:44Z</time>
      </trkpt>
      <trkpt lat="47.10964" lon="2.42136">
        <ele>147</ele>
        <time>2021-08-26T14:31:44Z</time>
      </trkpt>
      <trkpt lat="47.10958" lon="2.42131">
        <ele>147</ele>
        <time>2021-08-26T14:31:44Z</time>
      </trkpt>
      <trkpt lat="47.10953" lon="2.42125">
        <ele>147</ele>
        <time>2021-08-26T14:31:44Z</time>
      </trkpt>
      <trkpt lat="47.10947" lon="2.42119">
        <ele>147</ele>
        <time>2021-08-26T14:31:44Z</time>
      </trkpt>
      <trkpt lat="47.10942" lon="2.42113">
        <ele>147</ele>
        <time>2021-08-26T14:31:44Z</time>
      </trkpt>
      <trkpt lat="47.10937" lon="2.42107">
        <ele>147</ele>
        <time>2021-08-26T14:31:44Z</time>
      </trkpt>
      <trkpt lat="47.10932" lon="2.42102">
        <ele>147</ele>
        <time>2021-08-26T14:31:44Z</time>
      </trkpt>
      <trkpt lat="47.10927" lon="2.42096">
        <ele>147</ele>
        <time>2021-08-26T14:31:44Z</time>
      </trkpt>
      <trkpt lat="47.10921" lon="2.4209">
        <ele>147</ele>
        <time>2021-08-26T14:31:44Z</time>
      </trkpt>
      <trkpt lat="47.10916" lon="2.42085">
        <ele>146</ele>
        <time>2021-08-26T14:31:44Z</time>
      </trkpt>
      <trkpt lat="47.10911" lon="2.42079">
        <ele>146</ele>
        <time>2021-08-26T14:31:44Z</time>
      </trkpt>
      <trkpt lat="47.10905" lon="2.42074">
        <ele>146</ele>
        <time>2021-08-26T14:31:44Z</time>
      </trkpt>
      <trkpt lat="47.10899" lon="2.42069">
        <ele>145</ele>
        <time>2021-08-26T14:31:44Z</time>
      </trkpt>
      <trkpt lat="47.10894" lon="2.42062">
        <ele>145</ele>
        <time>2021-08-26T14:31:44Z</time>
      </trkpt>
      <trkpt lat="47.10888" lon="2.42056">
        <ele>144</ele>
        <time>2021-08-26T14:31:44Z</time>
      </trkpt>
      <trkpt lat="47.10883" lon="2.42049">
        <ele>145</ele>
        <time>2021-08-26T14:31:44Z</time>
      </trkpt>
      <trkpt lat="47.10878" lon="2.42044">
        <ele>145</ele>
        <time>2021-08-26T14:31:44Z</time>
      </trkpt>
      <trkpt lat="47.10873" lon="2.42038">
        <ele>145</ele>
        <time>2021-08-26T14:31:44Z</time>
      </trkpt>
      <trkpt lat="47.10867" lon="2.42032">
        <ele>145</ele>
        <time>2021-08-26T14:31:44Z</time>
      </trkpt>
      <trkpt lat="47.10862" lon="2.42025">
        <ele>145</ele>
        <time>2021-08-26T14:31:44Z</time>
      </trkpt>
      <trkpt lat="47.10857" lon="2.42019">
        <ele>145</ele>
        <time>2021-08-26T14:31:44Z</time>
      </trkpt>
      <trkpt lat="47.10854" lon="2.42012">
        <ele>145</ele>
        <time>2021-08-26T14:31:44Z</time>
      </trkpt>
      <trkpt lat="47.10851" lon="2.42005">
        <ele>145</ele>
        <time>2021-08-26T14:31:44Z</time>
      </trkpt>
      <trkpt lat="47.10847" lon="2.41997">
        <ele>145</ele>
        <time>2021-08-26T14:31:44Z</time>
      </trkpt>
      <trkpt lat="47.10843" lon="2.4199">
        <ele>145</ele>
        <time>2021-08-26T14:31:44Z</time>
      </trkpt>
      <trkpt lat="47.10837" lon="2.41987">
        <ele>145</ele>
        <time>2021-08-26T14:31:44Z</time>
      </trkpt>
      <trkpt lat="47.10831" lon="2.41988">
        <ele>145</ele>
        <time>2021-08-26T14:31:44Z</time>
      </trkpt>
      <trkpt lat="47.10826" lon="2.41992">
        <ele>145</ele>
        <time>2021-08-26T14:31:44Z</time>
      </trkpt>
      <trkpt lat="47.10822" lon="2.42001">
        <ele>144</ele>
        <time>2021-08-26T14:31:44Z</time>
      </trkpt>
      <trkpt lat="47.10821" lon="2.42009">
        <ele>144</ele>
        <time>2021-08-26T14:31:44Z</time>
      </trkpt>
      <trkpt lat="47.10823" lon="2.42017">
        <ele>144</ele>
        <time>2021-08-26T14:31:44Z</time>
      </trkpt>
      <trkpt lat="47.10827" lon="2.42023">
        <ele>144</ele>
        <time>2021-08-26T14:31:44Z</time>
      </trkpt>
      <trkpt lat="47.10832" lon="2.42027">
        <ele>144</ele>
        <time>2021-08-26T14:31:44Z</time>
      </trkpt>
      <trkpt lat="47.10837" lon="2.42029">
        <ele>144</ele>
        <time>2021-08-26T14:31:44Z</time>
      </trkpt>
      <trkpt lat="47.10842" lon="2.42028">
        <ele>144</ele>
        <time>2021-08-26T14:31:44Z</time>
      </trkpt>
      <trkpt lat="47.10846" lon="2.42028">
        <ele>144</ele>
        <time>2021-08-26T14:31:44Z</time>
      </trkpt>
      <trkpt lat="47.10849" lon="2.42029">
        <ele>144</ele>
        <time>2021-08-26T14:31:44Z</time>
      </trkpt>
      <trkpt lat="47.10851" lon="2.42032">
        <ele>144</ele>
        <time>2021-08-26T14:31:44Z</time>
      </trkpt>
      <trkpt lat="47.10851" lon="2.42036">
        <ele>144</ele>
        <time>2021-08-26T14:31:44Z</time>
      </trkpt>
      <trkpt lat="47.1085" lon="2.42037">
        <ele>144</ele>
        <time>2021-08-26T14:31:44Z</time>
      </trkpt>
      <trkpt lat="47.1085" lon="2.42037">
        <ele>144</ele>
        <time>2021-08-26T14:31:44Z</time>
      </trkpt>
      <trkpt lat="47.1085" lon="2.42037">
        <ele>144</ele>
        <time>2021-08-26T14:31:44Z</time>
      </trkpt>
      <trkpt lat="47.1085" lon="2.42037">
        <ele>144</ele>
        <time>2021-08-26T14:31:44Z</time>
      </trkpt>
      <trkpt lat="47.10851" lon="2.42037">
        <ele>144</ele>
        <time>2021-08-26T14:31:44Z</time>
      </trkpt>
      <trkpt lat="47.10851" lon="2.42037">
        <ele>144</ele>
        <time>2021-08-26T14:31:44Z</time>
      </trkpt>
      <trkpt lat="47.10851" lon="2.42037">
        <ele>144</ele>
        <time>2021-08-26T14:31:44Z</time>
      </trkpt>
      <trkpt lat="47.10851" lon="2.42037">
        <ele>144</ele>
        <time>2021-08-26T14:31:44Z</time>
      </trkpt>
      <trkpt lat="47.10851" lon="2.42037">
        <ele>144</ele>
        <time>2021-08-26T14:31:44Z</time>
      </trkpt>
      <trkpt lat="47.1085" lon="2.42037">
        <ele>144</ele>
        <time>2021-08-26T14:31:44Z</time>
      </trkpt>
      <trkpt lat="47.10851" lon="2.42038">
        <ele>144</ele>
        <time>2021-08-26T14:31:44Z</time>
      </trkpt>
      <trkpt lat="47.10851" lon="2.42039">
        <ele>144</ele>
        <time>2021-08-26T14:31:44Z</time>
      </trkpt>
      <trkpt lat="47.10851" lon="2.42039">
        <ele>144</ele>
        <time>2021-08-26T14:31:44Z</time>
      </trkpt>
      <trkpt lat="47.10851" lon="2.42039">
        <ele>144</ele>
        <time>2021-08-26T14:31:44Z</time>
      </trkpt>
      <trkpt lat="47.10851" lon="2.42039">
        <ele>144</ele>
        <time>2021-08-26T14:31:44Z</time>
      </trkpt>
      <trkpt lat="47.1085" lon="2.4204">
        <ele>144</ele>
        <time>2021-08-26T14:31:44Z</time>
      </trkpt>
      <trkpt lat="47.1085" lon="2.42039">
        <ele>144</ele>
        <time>2021-08-26T14:31:44Z</time>
      </trkpt>
      <trkpt lat="47.10849" lon="2.42038">
        <ele>144</ele>
        <time>2021-08-26T14:31:44Z</time>
      </trkpt>
      <trkpt lat="47.10849" lon="2.42038">
        <ele>144</ele>
        <time>2021-08-26T14:31:44Z</time>
      </trkpt>
      <trkpt lat="47.10849" lon="2.42038">
        <ele>144</ele>
        <time>2021-08-26T14:31:44Z</time>
      </trkpt>
      <trkpt lat="47.10849" lon="2.42038">
        <ele>144</ele>
        <time>2021-08-26T14:31:44Z</time>
      </trkpt>
      <trkpt lat="47.10849" lon="2.42039">
        <ele>144</ele>
        <time>2021-08-26T14:31:44Z</time>
      </trkpt>
      <trkpt lat="47.10849" lon="2.42039">
        <ele>144</ele>
        <time>2021-08-26T14:31:44Z</time>
      </trkpt>
      <trkpt lat="47.10849" lon="2.42039">
        <ele>144</ele>
        <time>2021-08-26T14:31:44Z</time>
      </trkpt>
      <trkpt lat="47.10849" lon="2.4204">
        <ele>144</ele>
        <time>2021-08-26T14:31:44Z</time>
      </trkpt>
      <trkpt lat="47.1085" lon="2.4204">
        <ele>144</ele>
        <time>2021-08-26T14:31:44Z</time>
      </trkpt>
      <trkpt lat="47.1085" lon="2.42041">
        <ele>144</ele>
        <time>2021-08-26T14:31:44Z</time>
      </trkpt>
      <trkpt lat="47.10851" lon="2.42041">
        <ele>144</ele>
        <time>2021-08-26T14:31:44Z</time>
      </trkpt>
      <trkpt lat="47.10852" lon="2.42041">
        <ele>144</ele>
        <time>2021-08-26T14:31:44Z</time>
      </trkpt>
      <trkpt lat="47.10853" lon="2.42041">
        <ele>144</ele>
        <time>2021-08-26T14:31:44Z</time>
      </trkpt>
      <trkpt lat="47.10854" lon="2.42041">
        <ele>144</ele>
        <time>2021-08-26T14:31:44Z</time>
      </trkpt>
      <trkpt lat="47.10854" lon="2.4204">
        <ele>144</ele>
        <time>2021-08-26T14:31:44Z</time>
      </trkpt>
      <trkpt lat="47.10853" lon="2.42039">
        <ele>144</ele>
        <time>2021-08-26T14:31:44Z</time>
      </trkpt>
      <trkpt lat="47.10853" lon="2.42039">
        <ele>144</ele>
        <time>2021-08-26T14:31:44Z</time>
      </trkpt>
      <trkpt lat="47.10853" lon="2.4204">
        <ele>144</ele>
        <time>2021-08-26T14:31:44Z</time>
      </trkpt>
      <trkpt lat="47.10853" lon="2.42039">
        <ele>144</ele>
        <time>2021-08-26T14:31:44Z</time>
      </trkpt>
      <trkpt lat="47.10853" lon="2.4204">
        <ele>144</ele>
        <time>2021-08-26T14:31:44Z</time>
      </trkpt>
      <trkpt lat="47.10853" lon="2.4204">
        <ele>144</ele>
        <time>2021-08-26T14:31:44Z</time>
      </trkpt>
      <trkpt lat="47.10854" lon="2.4204">
        <ele>144</ele>
        <time>2021-08-26T14:31:44Z</time>
      </trkpt>
      <trkpt lat="47.10854" lon="2.42039">
        <ele>144</ele>
        <time>2021-08-26T14:31:44Z</time>
      </trkpt>
      <trkpt lat="47.10854" lon="2.4204">
        <ele>144</ele>
        <time>2021-08-26T14:31:44Z</time>
      </trkpt>
      <trkpt lat="47.10855" lon="2.42039">
        <ele>144</ele>
        <time>2021-08-26T14:31:44Z</time>
      </trkpt>
      <trkpt lat="47.10854" lon="2.42038">
        <ele>144</ele>
        <time>2021-08-26T14:31:44Z</time>
      </trkpt>
      <trkpt lat="47.10858" lon="2.42024">
        <ele>145</ele>
        <time>2021-08-26T14:31:44Z</time>
      </trkpt>
      <trkpt lat="47.10864" lon="2.41993">
        <ele>146</ele>
        <time>2021-08-26T14:31:44Z</time>
      </trkpt>
      <trkpt lat="47.10878" lon="2.41958">
        <ele>147</ele>
        <time>2021-08-26T14:31:44Z</time>
      </trkpt>
      <trkpt lat="47.10897" lon="2.41922">
        <ele>147</ele>
        <time>2021-08-26T14:31:44Z</time>
      </trkpt>
      <trkpt lat="47.10916" lon="2.41886">
        <ele>147</ele>
        <time>2021-08-26T14:31:44Z</time>
      </trkpt>
      <trkpt lat="47.10932" lon="2.41857">
        <ele>147</ele>
        <time>2021-08-26T14:31:44Z</time>
      </trkpt>
      <trkpt lat="47.10936" lon="2.4185">
        <ele>147</ele>
        <time>2021-08-26T14:31:44Z</time>
      </trkpt>
      <trkpt lat="47.10954" lon="2.41815">
        <ele>148</ele>
        <time>2021-08-26T14:31:44Z</time>
      </trkpt>
      <trkpt lat="47.10966" lon="2.41792">
        <ele>148</ele>
        <time>2021-08-26T14:31:44Z</time>
      </trkpt>
      <trkpt lat="47.10967" lon="2.4179">
        <ele>148</ele>
        <time>2021-08-26T14:31:44Z</time>
      </trkpt>
      <trkpt lat="47.10965" lon="2.4179">
        <ele>148</ele>
        <time>2021-08-26T14:31:44Z</time>
      </trkpt>
      <trkpt lat="47.10964" lon="2.4179">
        <ele>148</ele>
        <time>2021-08-26T14:31:44Z</time>
      </trkpt>
      <trkpt lat="47.10965" lon="2.41791">
        <ele>148</ele>
        <time>2021-08-26T14:31:44Z</time>
      </trkpt>
      <trkpt lat="47.10965" lon="2.41791">
        <ele>148</ele>
        <time>2021-08-26T14:31:44Z</time>
      </trkpt>
      <trkpt lat="47.10965" lon="2.4179">
        <ele>148</ele>
        <time>2021-08-26T14:31:44Z</time>
      </trkpt>
      <trkpt lat="47.10966" lon="2.41787">
        <ele>148</ele>
        <time>2021-08-26T14:31:44Z</time>
      </trkpt>
      <trkpt lat="47.10967" lon="2.41761">
        <ele>148</ele>
        <time>2021-08-26T14:31:44Z</time>
      </trkpt>
      <trkpt lat="47.1098" lon="2.41724">
        <ele>148</ele>
        <time>2021-08-26T14:31:44Z</time>
      </trkpt>
      <trkpt lat="47.10992" lon="2.41684">
        <ele>148</ele>
        <time>2021-08-26T14:31:44Z</time>
      </trkpt>
      <trkpt lat="47.11001" lon="2.41652">
        <ele>149</ele>
        <time>2021-08-26T14:31:44Z</time>
      </trkpt>
      <trkpt lat="47.11004" lon="2.41646">
        <ele>149</ele>
        <time>2021-08-26T14:31:44Z</time>
      </trkpt>
      <trkpt lat="47.11015" lon="2.41623">
        <ele>149</ele>
        <time>2021-08-26T14:31:44Z</time>
      </trkpt>
      <trkpt lat="47.11017" lon="2.4162">
        <ele>149</ele>
        <time>2021-08-26T14:31:44Z</time>
      </trkpt>
      <trkpt lat="47.11019" lon="2.41617">
        <ele>149</ele>
        <time>2021-08-26T14:31:44Z</time>
      </trkpt>
      <trkpt lat="47.1102" lon="2.41612">
        <ele>149</ele>
        <time>2021-08-26T14:31:44Z</time>
      </trkpt>
      <trkpt lat="47.1102" lon="2.41607">
        <ele>149</ele>
        <time>2021-08-26T14:31:44Z</time>
      </trkpt>
      <trkpt lat="47.11019" lon="2.41603">
        <ele>149</ele>
        <time>2021-08-26T14:31:44Z</time>
      </trkpt>
      <trkpt lat="47.11019" lon="2.41597">
        <ele>149</ele>
        <time>2021-08-26T14:31:44Z</time>
      </trkpt>
      <trkpt lat="47.11019" lon="2.41591">
        <ele>149</ele>
        <time>2021-08-26T14:31:44Z</time>
      </trkpt>
      <trkpt lat="47.11022" lon="2.41585">
        <ele>149</ele>
        <time>2021-08-26T14:31:44Z</time>
      </trkpt>
      <trkpt lat="47.11031" lon="2.4155">
        <ele>149</ele>
        <time>2021-08-26T14:31:44Z</time>
      </trkpt>
      <trkpt lat="47.1104" lon="2.41507">
        <ele>147</ele>
        <time>2021-08-26T14:31:44Z</time>
      </trkpt>
      <trkpt lat="47.11054" lon="2.41475">
        <ele>147</ele>
        <time>2021-08-26T14:31:44Z</time>
      </trkpt>
      <trkpt lat="47.11056" lon="2.41471">
        <ele>146</ele>
        <time>2021-08-26T14:31:44Z</time>
      </trkpt>
      <trkpt lat="47.11057" lon="2.41466">
        <ele>146</ele>
        <time>2021-08-26T14:31:44Z</time>
      </trkpt>
      <trkpt lat="47.11065" lon="2.41456">
        <ele>145</ele>
        <time>2021-08-26T14:31:44Z</time>
      </trkpt>
      <trkpt lat="47.11068" lon="2.41452">
        <ele>145</ele>
        <time>2021-08-26T14:31:44Z</time>
      </trkpt>
      <trkpt lat="47.11075" lon="2.41421">
        <ele>144</ele>
        <time>2021-08-26T14:31:44Z</time>
      </trkpt>
      <trkpt lat="47.11089" lon="2.41378">
        <ele>141</ele>
        <time>2021-08-26T14:31:44Z</time>
      </trkpt>
      <trkpt lat="47.11096" lon="2.4133">
        <ele>140</ele>
        <time>2021-08-26T14:31:44Z</time>
      </trkpt>
      <trkpt lat="47.11095" lon="2.41284">
        <ele>141</ele>
        <time>2021-08-26T14:31:44Z</time>
      </trkpt>
      <trkpt lat="47.1109" lon="2.41249">
        <ele>141</ele>
        <time>2021-08-26T14:31:44Z</time>
      </trkpt>
      <trkpt lat="47.1108" lon="2.41219">
        <ele>142</ele>
        <time>2021-08-26T14:31:44Z</time>
      </trkpt>
      <trkpt lat="47.11077" lon="2.41211">
        <ele>142</ele>
        <time>2021-08-26T14:31:44Z</time>
      </trkpt>
      <trkpt lat="47.11074" lon="2.41205">
        <ele>142</ele>
        <time>2021-08-26T14:31:44Z</time>
      </trkpt>
      <trkpt lat="47.11071" lon="2.41198">
        <ele>142</ele>
        <time>2021-08-26T14:31:44Z</time>
      </trkpt>
      <trkpt lat="47.11067" lon="2.4119">
        <ele>142</ele>
        <time>2021-08-26T14:31:44Z</time>
      </trkpt>
      <trkpt lat="47.11063" lon="2.41184">
        <ele>141</ele>
        <time>2021-08-26T14:31:44Z</time>
      </trkpt>
      <trkpt lat="47.11059" lon="2.41177">
        <ele>141</ele>
        <time>2021-08-26T14:31:44Z</time>
      </trkpt>
      <trkpt lat="47.11055" lon="2.4117">
        <ele>141</ele>
        <time>2021-08-26T14:31:44Z</time>
      </trkpt>
      <trkpt lat="47.11052" lon="2.41164">
        <ele>141</ele>
        <time>2021-08-26T14:31:44Z</time>
      </trkpt>
      <trkpt lat="47.11047" lon="2.41156">
        <ele>141</ele>
        <time>2021-08-26T14:31:44Z</time>
      </trkpt>
      <trkpt lat="47.11043" lon="2.4115">
        <ele>141</ele>
        <time>2021-08-26T14:31:44Z</time>
      </trkpt>
      <trkpt lat="47.11038" lon="2.41142">
        <ele>141</ele>
        <time>2021-08-26T14:31:44Z</time>
      </trkpt>
      <trkpt lat="47.11035" lon="2.41136">
        <ele>141</ele>
        <time>2021-08-26T14:31:44Z</time>
      </trkpt>
      <trkpt lat="47.11032" lon="2.41131">
        <ele>141</ele>
        <time>2021-08-26T14:31:44Z</time>
      </trkpt>
      <trkpt lat="47.11029" lon="2.41126">
        <ele>142</ele>
        <time>2021-08-26T14:31:44Z</time>
      </trkpt>
      <trkpt lat="47.11026" lon="2.41122">
        <ele>142</ele>
        <time>2021-08-26T14:31:44Z</time>
      </trkpt>
      <trkpt lat="47.11022" lon="2.41117">
        <ele>143</ele>
        <time>2021-08-26T14:31:44Z</time>
      </trkpt>
      <trkpt lat="47.11019" lon="2.41111">
        <ele>143</ele>
        <time>2021-08-26T14:31:44Z</time>
      </trkpt>
      <trkpt lat="47.11015" lon="2.41105">
        <ele>144</ele>
        <time>2021-08-26T14:31:44Z</time>
      </trkpt>
      <trkpt lat="47.11011" lon="2.41099">
        <ele>144</ele>
        <time>2021-08-26T14:31:44Z</time>
      </trkpt>
      <trkpt lat="47.11007" lon="2.41093">
        <ele>145</ele>
        <time>2021-08-26T14:31:44Z</time>
      </trkpt>
      <trkpt lat="47.11004" lon="2.41087">
        <ele>145</ele>
        <time>2021-08-26T14:31:44Z</time>
      </trkpt>
      <trkpt lat="47.11" lon="2.41081">
        <ele>145</ele>
        <time>2021-08-26T14:31:44Z</time>
      </trkpt>
      <trkpt lat="47.10996" lon="2.41075">
        <ele>145</ele>
        <time>2021-08-26T14:31:44Z</time>
      </trkpt>
      <trkpt lat="47.10993" lon="2.41069">
        <ele>145</ele>
        <time>2021-08-26T14:31:44Z</time>
      </trkpt>
      <trkpt lat="47.1099" lon="2.41065">
        <ele>144</ele>
        <time>2021-08-26T14:31:44Z</time>
      </trkpt>
      <trkpt lat="47.10987" lon="2.4106">
        <ele>144</ele>
        <time>2021-08-26T14:31:44Z</time>
      </trkpt>
      <trkpt lat="47.10984" lon="2.41055">
        <ele>144</ele>
        <time>2021-08-26T14:31:44Z</time>
      </trkpt>
      <trkpt lat="47.10981" lon="2.41051">
        <ele>144</ele>
        <time>2021-08-26T14:31:44Z</time>
      </trkpt>
      <trkpt lat="47.10978" lon="2.41047">
        <ele>143</ele>
        <time>2021-08-26T14:31:44Z</time>
      </trkpt>
      <trkpt lat="47.10975" lon="2.41043">
        <ele>143</ele>
        <time>2021-08-26T14:31:44Z</time>
      </trkpt>
      <trkpt lat="47.10972" lon="2.41039">
        <ele>143</ele>
        <time>2021-08-26T14:31:44Z</time>
      </trkpt>
      <trkpt lat="47.1097" lon="2.41034">
        <ele>143</ele>
        <time>2021-08-26T14:31:44Z</time>
      </trkpt>
      <trkpt lat="47.10968" lon="2.41029">
        <ele>143</ele>
        <time>2021-08-26T14:31:44Z</time>
      </trkpt>
      <trkpt lat="47.10966" lon="2.41025">
        <ele>143</ele>
        <time>2021-08-26T14:31:44Z</time>
      </trkpt>
      <trkpt lat="47.10963" lon="2.4102">
        <ele>142</ele>
        <time>2021-08-26T14:31:44Z</time>
      </trkpt>
      <trkpt lat="47.1096" lon="2.41015">
        <ele>142</ele>
        <time>2021-08-26T14:31:44Z</time>
      </trkpt>
      <trkpt lat="47.10956" lon="2.41011">
        <ele>142</ele>
        <time>2021-08-26T14:31:44Z</time>
      </trkpt>
      <trkpt lat="47.10953" lon="2.41007">
        <ele>142</ele>
        <time>2021-08-26T14:31:44Z</time>
      </trkpt>
      <trkpt lat="47.10949" lon="2.41001">
        <ele>141</ele>
        <time>2021-08-26T14:31:44Z</time>
      </trkpt>
      <trkpt lat="47.10945" lon="2.40996">
        <ele>141</ele>
        <time>2021-08-26T14:31:44Z</time>
      </trkpt>
      <trkpt lat="47.10942" lon="2.40991">
        <ele>141</ele>
        <time>2021-08-26T14:31:44Z</time>
      </trkpt>
      <trkpt lat="47.10938" lon="2.40987">
        <ele>141</ele>
        <time>2021-08-26T14:31:44Z</time>
      </trkpt>
      <trkpt lat="47.10934" lon="2.40981">
        <ele>141</ele>
        <time>2021-08-26T14:31:44Z</time>
      </trkpt>
      <trkpt lat="47.10931" lon="2.40978">
        <ele>141</ele>
        <time>2021-08-26T14:31:44Z</time>
      </trkpt>
      <trkpt lat="47.1093" lon="2.40973">
        <ele>141</ele>
        <time>2021-08-26T14:31:44Z</time>
      </trkpt>
      <trkpt lat="47.10928" lon="2.4097">
        <ele>140</ele>
        <time>2021-08-26T14:31:44Z</time>
      </trkpt>
      <trkpt lat="47.10926" lon="2.40966">
        <ele>140</ele>
        <time>2021-08-26T14:31:44Z</time>
      </trkpt>
      <trkpt lat="47.10923" lon="2.40961">
        <ele>140</ele>
        <time>2021-08-26T14:31:44Z</time>
      </trkpt>
      <trkpt lat="47.1092" lon="2.40956">
        <ele>140</ele>
        <time>2021-08-26T14:31:44Z</time>
      </trkpt>
      <trkpt lat="47.10916" lon="2.40951">
        <ele>140</ele>
        <time>2021-08-26T14:31:44Z</time>
      </trkpt>
      <trkpt lat="47.10913" lon="2.40945">
        <ele>140</ele>
        <time>2021-08-26T14:31:44Z</time>
      </trkpt>
      <trkpt lat="47.1091" lon="2.40939">
        <ele>140</ele>
        <time>2021-08-26T14:31:44Z</time>
      </trkpt>
      <trkpt lat="47.10906" lon="2.40933">
        <ele>140</ele>
        <time>2021-08-26T14:31:44Z</time>
      </trkpt>
      <trkpt lat="47.10903" lon="2.40926">
        <ele>140</ele>
        <time>2021-08-26T14:31:44Z</time>
      </trkpt>
      <trkpt lat="47.10898" lon="2.4092">
        <ele>140</ele>
        <time>2021-08-26T14:31:44Z</time>
      </trkpt>
      <trkpt lat="47.10894" lon="2.40913">
        <ele>140</ele>
        <time>2021-08-26T14:31:44Z</time>
      </trkpt>
      <trkpt lat="47.1089" lon="2.40907">
        <ele>140</ele>
        <time>2021-08-26T14:31:44Z</time>
      </trkpt>
      <trkpt lat="47.10886" lon="2.40902">
        <ele>141</ele>
        <time>2021-08-26T14:31:44Z</time>
      </trkpt>
      <trkpt lat="47.10882" lon="2.40894">
        <ele>141</ele>
        <time>2021-08-26T14:31:44Z</time>
      </trkpt>
      <trkpt lat="47.10877" lon="2.40887">
        <ele>141</ele>
        <time>2021-08-26T14:31:44Z</time>
      </trkpt>
      <trkpt lat="47.10873" lon="2.40881">
        <ele>141</ele>
        <time>2021-08-26T14:31:44Z</time>
      </trkpt>
      <trkpt lat="47.10869" lon="2.40875">
        <ele>141</ele>
        <time>2021-08-26T14:31:44Z</time>
      </trkpt>
      <trkpt lat="47.10849" lon="2.40845">
        <ele>141</ele>
        <time>2021-08-26T14:31:44Z</time>
      </trkpt>
      <trkpt lat="47.10839" lon="2.40827">
        <ele>140</ele>
        <time>2021-08-26T14:31:44Z</time>
      </trkpt>
      <trkpt lat="47.10854" lon="2.40804">
        <ele>139</ele>
        <time>2021-08-26T14:31:44Z</time>
      </trkpt>
      <trkpt lat="47.10877" lon="2.40773">
        <ele>139</ele>
        <time>2021-08-26T14:31:44Z</time>
      </trkpt>
      <trkpt lat="47.10901" lon="2.40788">
        <ele>137</ele>
        <time>2021-08-26T14:31:44Z</time>
      </trkpt>
      <trkpt lat="47.1092" lon="2.40823">
        <ele>137</ele>
        <time>2021-08-26T14:31:44Z</time>
      </trkpt>
      <trkpt lat="47.10929" lon="2.40837">
        <ele>137</ele>
        <time>2021-08-26T14:31:44Z</time>
      </trkpt>
      <trkpt lat="47.10964" lon="2.40891">
        <ele>138</ele>
        <time>2021-08-26T14:31:44Z</time>
      </trkpt>
      <trkpt lat="47.10975" lon="2.40906">
        <ele>137</ele>
        <time>2021-08-26T14:31:44Z</time>
      </trkpt>
      <trkpt lat="47.10968" lon="2.40887">
        <ele>137</ele>
        <time>2021-08-26T14:31:44Z</time>
      </trkpt>
      <trkpt lat="47.10944" lon="2.40851">
        <ele>136</ele>
        <time>2021-08-26T14:31:44Z</time>
      </trkpt>
      <trkpt lat="47.10921" lon="2.40815">
        <ele>137</ele>
        <time>2021-08-26T14:31:44Z</time>
      </trkpt>
      <trkpt lat="47.10902" lon="2.40785">
        <ele>137</ele>
        <time>2021-08-26T14:31:44Z</time>
      </trkpt>
      <trkpt lat="47.10897" lon="2.40777">
        <ele>137</ele>
        <time>2021-08-26T14:31:44Z</time>
      </trkpt>
      <trkpt lat="47.10865" lon="2.40752">
        <ele>139</ele>
        <time>2021-08-26T14:31:44Z</time>
      </trkpt>
      <trkpt lat="47.10837" lon="2.40722">
        <ele>137</ele>
        <time>2021-08-26T14:31:44Z</time>
      </trkpt>
      <trkpt lat="47.10816" lon="2.40683">
        <ele>136</ele>
        <time>2021-08-26T14:31:44Z</time>
      </trkpt>
      <trkpt lat="47.10794" lon="2.40642">
        <ele>134</ele>
        <time>2021-08-26T14:31:44Z</time>
      </trkpt>
      <trkpt lat="47.10765" lon="2.40666">
        <ele>136</ele>
        <time>2021-08-26T14:31:44Z</time>
      </trkpt>
      <trkpt lat="47.1075" lon="2.40683">
        <ele>137</ele>
        <time>2021-08-26T14:31:44Z</time>
      </trkpt>
      <trkpt lat="47.10747" lon="2.40683">
        <ele>137</ele>
        <time>2021-08-26T14:31:44Z</time>
      </trkpt>
      <trkpt lat="47.10745" lon="2.4068">
        <ele>136</ele>
        <time>2021-08-26T14:31:44Z</time>
      </trkpt>
      <trkpt lat="47.1074" lon="2.4067">
        <ele>136</ele>
        <time>2021-08-26T14:31:44Z</time>
      </trkpt>
      <trkpt lat="47.10737" lon="2.40664">
        <ele>136</ele>
        <time>2021-08-26T14:31:44Z</time>
      </trkpt>
      <trkpt lat="47.10733" lon="2.40657">
        <ele>136</ele>
        <time>2021-08-26T14:31:44Z</time>
      </trkpt>
      <trkpt lat="47.1073" lon="2.40649">
        <ele>136</ele>
        <time>2021-08-26T14:31:44Z</time>
      </trkpt>
      <trkpt lat="47.10726" lon="2.40641">
        <ele>135</ele>
        <time>2021-08-26T14:31:44Z</time>
      </trkpt>
      <trkpt lat="47.10723" lon="2.40632">
        <ele>135</ele>
        <time>2021-08-26T14:31:44Z</time>
      </trkpt>
      <trkpt lat="47.10718" lon="2.40625">
        <ele>135</ele>
        <time>2021-08-26T14:31:44Z</time>
      </trkpt>
      <trkpt lat="47.10715" lon="2.40617">
        <ele>135</ele>
        <time>2021-08-26T14:31:44Z</time>
      </trkpt>
      <trkpt lat="47.10711" lon="2.40608">
        <ele>135</ele>
        <time>2021-08-26T14:31:44Z</time>
      </trkpt>
      <trkpt lat="47.10706" lon="2.406">
        <ele>135</ele>
        <time>2021-08-26T14:31:44Z</time>
      </trkpt>
      <trkpt lat="47.10703" lon="2.40592">
        <ele>135</ele>
        <time>2021-08-26T14:31:44Z</time>
      </trkpt>
      <trkpt lat="47.10699" lon="2.40583">
        <ele>134</ele>
        <time>2021-08-26T14:31:44Z</time>
      </trkpt>
      <trkpt lat="47.10695" lon="2.40574">
        <ele>134</ele>
        <time>2021-08-26T14:31:44Z</time>
      </trkpt>
      <trkpt lat="47.10691" lon="2.40565">
        <ele>133</ele>
        <time>2021-08-26T14:31:44Z</time>
      </trkpt>
      <trkpt lat="47.10687" lon="2.40556">
        <ele>133</ele>
        <time>2021-08-26T14:31:44Z</time>
      </trkpt>
      <trkpt lat="47.10684" lon="2.40547">
        <ele>132</ele>
        <time>2021-08-26T14:31:44Z</time>
      </trkpt>
      <trkpt lat="47.10679" lon="2.40538">
        <ele>132</ele>
        <time>2021-08-26T14:31:44Z</time>
      </trkpt>
      <trkpt lat="47.10675" lon="2.4053">
        <ele>132</ele>
        <time>2021-08-26T14:31:44Z</time>
      </trkpt>
      <trkpt lat="47.10672" lon="2.4052">
        <ele>131</ele>
        <time>2021-08-26T14:31:44Z</time>
      </trkpt>
      <trkpt lat="47.10669" lon="2.40511">
        <ele>131</ele>
        <time>2021-08-26T14:31:44Z</time>
      </trkpt>
      <trkpt lat="47.10665" lon="2.40503">
        <ele>131</ele>
        <time>2021-08-26T14:31:44Z</time>
      </trkpt>
      <trkpt lat="47.10661" lon="2.40495">
        <ele>131</ele>
        <time>2021-08-26T14:31:44Z</time>
      </trkpt>
      <trkpt lat="47.10658" lon="2.40485">
        <ele>130</ele>
        <time>2021-08-26T14:31:44Z</time>
      </trkpt>
      <trkpt lat="47.10655" lon="2.40476">
        <ele>130</ele>
        <time>2021-08-26T14:31:44Z</time>
      </trkpt>
      <trkpt lat="47.10652" lon="2.40468">
        <ele>130</ele>
        <time>2021-08-26T14:31:44Z</time>
      </trkpt>
      <trkpt lat="47.10649" lon="2.40459">
        <ele>130</ele>
        <time>2021-08-26T14:31:44Z</time>
      </trkpt>
      <trkpt lat="47.10645" lon="2.40449">
        <ele>129</ele>
        <time>2021-08-26T14:31:44Z</time>
      </trkpt>
      <trkpt lat="47.10641" lon="2.4044">
        <ele>129</ele>
        <time>2021-08-26T14:31:44Z</time>
      </trkpt>
      <trkpt lat="47.10638" lon="2.40431">
        <ele>130</ele>
        <time>2021-08-26T14:31:44Z</time>
      </trkpt>
      <trkpt lat="47.10636" lon="2.40421">
        <ele>130</ele>
        <time>2021-08-26T14:31:44Z</time>
      </trkpt>
      <trkpt lat="47.10633" lon="2.40412">
        <ele>130</ele>
        <time>2021-08-26T14:31:44Z</time>
      </trkpt>
      <trkpt lat="47.10629" lon="2.40403">
        <ele>129</ele>
        <time>2021-08-26T14:31:44Z</time>
      </trkpt>
      <trkpt lat="47.10626" lon="2.40395">
        <ele>129</ele>
        <time>2021-08-26T14:31:44Z</time>
      </trkpt>
      <trkpt lat="47.10624" lon="2.40389">
        <ele>129</ele>
        <time>2021-08-26T14:31:44Z</time>
      </trkpt>
      <trkpt lat="47.10622" lon="2.40382">
        <ele>129</ele>
        <time>2021-08-26T14:31:44Z</time>
      </trkpt>
      <trkpt lat="47.10621" lon="2.40377">
        <ele>129</ele>
        <time>2021-08-26T14:31:44Z</time>
      </trkpt>
      <trkpt lat="47.1062" lon="2.40372">
        <ele>129</ele>
        <time>2021-08-26T14:31:44Z</time>
      </trkpt>
      <trkpt lat="47.10622" lon="2.40367">
        <ele>129</ele>
        <time>2021-08-26T14:31:44Z</time>
      </trkpt>
      <trkpt lat="47.10624" lon="2.40362">
        <ele>129</ele>
        <time>2021-08-26T14:31:44Z</time>
      </trkpt>
      <trkpt lat="47.10629" lon="2.4036">
        <ele>129</ele>
        <time>2021-08-26T14:31:44Z</time>
      </trkpt>
      <trkpt lat="47.10633" lon="2.40357">
        <ele>129</ele>
        <time>2021-08-26T14:31:44Z</time>
      </trkpt>
      <trkpt lat="47.10638" lon="2.40353">
        <ele>129</ele>
        <time>2021-08-26T14:31:44Z</time>
      </trkpt>
      <trkpt lat="47.10642" lon="2.40349">
        <ele>129</ele>
        <time>2021-08-26T14:31:44Z</time>
      </trkpt>
      <trkpt lat="47.10645" lon="2.40346">
        <ele>129</ele>
        <time>2021-08-26T14:31:44Z</time>
      </trkpt>
      <trkpt lat="47.10646" lon="2.40343">
        <ele>129</ele>
        <time>2021-08-26T14:31:44Z</time>
      </trkpt>
      <trkpt lat="47.10645" lon="2.40341">
        <ele>129</ele>
        <time>2021-08-26T14:31:44Z</time>
      </trkpt>
      <trkpt lat="47.10643" lon="2.4034">
        <ele>129</ele>
        <time>2021-08-26T14:31:44Z</time>
      </trkpt>
      <trkpt lat="47.1064" lon="2.40342">
        <ele>129</ele>
        <time>2021-08-26T14:31:44Z</time>
      </trkpt>
      <trkpt lat="47.10639" lon="2.40345">
        <ele>129</ele>
        <time>2021-08-26T14:31:44Z</time>
      </trkpt>
      <trkpt lat="47.10637" lon="2.40348">
        <ele>129</ele>
        <time>2021-08-26T14:31:44Z</time>
      </trkpt>
      <trkpt lat="47.10633" lon="2.40351">
        <ele>129</ele>
        <time>2021-08-26T14:31:44Z</time>
      </trkpt>
      <trkpt lat="47.1063" lon="2.40354">
        <ele>129</ele>
        <time>2021-08-26T14:31:44Z</time>
      </trkpt>
      <trkpt lat="47.10627" lon="2.40359">
        <ele>129</ele>
        <time>2021-08-26T14:31:44Z</time>
      </trkpt>
      <trkpt lat="47.10624" lon="2.40362">
        <ele>129</ele>
        <time>2021-08-26T14:31:44Z</time>
      </trkpt>
      <trkpt lat="47.10621" lon="2.40364">
        <ele>129</ele>
        <time>2021-08-26T14:31:44Z</time>
      </trkpt>
      <trkpt lat="47.10619" lon="2.4036">
        <ele>129</ele>
        <time>2021-08-26T14:31:44Z</time>
      </trkpt>
      <trkpt lat="47.10617" lon="2.40357">
        <ele>129</ele>
        <time>2021-08-26T14:31:44Z</time>
      </trkpt>
      <trkpt lat="47.10615" lon="2.40351">
        <ele>129</ele>
        <time>2021-08-26T14:31:44Z</time>
      </trkpt>
      <trkpt lat="47.10613" lon="2.40346">
        <ele>129</ele>
        <time>2021-08-26T14:31:44Z</time>
      </trkpt>
      <trkpt lat="47.10601" lon="2.40309">
        <ele>128</ele>
        <time>2021-08-26T14:31:44Z</time>
      </trkpt>
      <trkpt lat="47.10587" lon="2.40269">
        <ele>128</ele>
        <time>2021-08-26T14:31:44Z</time>
      </trkpt>
      <trkpt lat="47.10574" lon="2.40229">
        <ele>128</ele>
        <time>2021-08-26T14:31:44Z</time>
      </trkpt>
      <trkpt lat="47.1056" lon="2.4019">
        <ele>129</ele>
        <time>2021-08-26T14:31:44Z</time>
      </trkpt>
      <trkpt lat="47.10546" lon="2.40147">
        <ele>128</ele>
        <time>2021-08-26T14:31:44Z</time>
      </trkpt>
      <trkpt lat="47.10534" lon="2.40113">
        <ele>128</ele>
        <time>2021-08-26T14:31:44Z</time>
      </trkpt>
      <trkpt lat="47.10531" lon="2.40105">
        <ele>128</ele>
        <time>2021-08-26T14:31:44Z</time>
      </trkpt>
      <trkpt lat="47.10516" lon="2.40067">
        <ele>128</ele>
        <time>2021-08-26T14:31:44Z</time>
      </trkpt>
      <trkpt lat="47.105" lon="2.40027">
        <ele>128</ele>
        <time>2021-08-26T14:31:44Z</time>
      </trkpt>
      <trkpt lat="47.10483" lon="2.39992">
        <ele>129</ele>
        <time>2021-08-26T14:31:44Z</time>
      </trkpt>
      <trkpt lat="47.10468" lon="2.3996">
        <ele>130</ele>
        <time>2021-08-26T14:31:44Z</time>
      </trkpt>
      <trkpt lat="47.10458" lon="2.39938">
        <ele>130</ele>
        <time>2021-08-26T14:31:44Z</time>
      </trkpt>
      <trkpt lat="47.10453" lon="2.39927">
        <ele>130</ele>
        <time>2021-08-26T14:31:44Z</time>
      </trkpt>
      <trkpt lat="47.10453" lon="2.39924">
        <ele>130</ele>
        <time>2021-08-26T14:31:44Z</time>
      </trkpt>
      <trkpt lat="47.10462" lon="2.39913">
        <ele>130</ele>
        <time>2021-08-26T14:31:44Z</time>
      </trkpt>
      <trkpt lat="47.10474" lon="2.39915">
        <ele>130</ele>
        <time>2021-08-26T14:31:44Z</time>
      </trkpt>
      <trkpt lat="47.10484" lon="2.39918">
        <ele>131</ele>
        <time>2021-08-26T14:31:44Z</time>
      </trkpt>
      <trkpt lat="47.10487" lon="2.39917">
        <ele>131</ele>
        <time>2021-08-26T14:31:44Z</time>
      </trkpt>
      <trkpt lat="47.1049" lon="2.39904">
        <ele>130</ele>
        <time>2021-08-26T14:31:44Z</time>
      </trkpt>
      <trkpt lat="47.10488" lon="2.399">
        <ele>130</ele>
        <time>2021-08-26T14:31:44Z</time>
      </trkpt>
      <trkpt lat="47.10489" lon="2.399">
        <ele>130</ele>
        <time>2021-08-26T14:31:44Z</time>
      </trkpt>
      <trkpt lat="47.10489" lon="2.399">
        <ele>130</ele>
        <time>2021-08-26T14:31:44Z</time>
      </trkpt>
      <trkpt lat="47.10489" lon="2.39899">
        <ele>130</ele>
        <time>2021-08-26T14:31:44Z</time>
      </trkpt>
      <trkpt lat="47.10489" lon="2.399">
        <ele>130</ele>
        <time>2021-08-26T14:31:44Z</time>
      </trkpt>
      <trkpt lat="47.10489" lon="2.399">
        <ele>130</ele>
        <time>2021-08-26T14:31:44Z</time>
      </trkpt>
      <trkpt lat="47.10489" lon="2.399">
        <ele>130</ele>
        <time>2021-08-26T14:31:44Z</time>
      </trkpt>
      <trkpt lat="47.10488" lon="2.399">
        <ele>130</ele>
        <time>2021-08-26T14:31:44Z</time>
      </trkpt>
      <trkpt lat="47.10489" lon="2.399">
        <ele>130</ele>
        <time>2021-08-26T14:31:44Z</time>
      </trkpt>
      <trkpt lat="47.10486" lon="2.399">
        <ele>130</ele>
        <time>2021-08-26T14:31:44Z</time>
      </trkpt>
      <trkpt lat="47.10478" lon="2.39898">
        <ele>129</ele>
        <time>2021-08-26T14:31:44Z</time>
      </trkpt>
      <trkpt lat="47.10476" lon="2.39897">
        <ele>129</ele>
        <time>2021-08-26T14:31:44Z</time>
      </trkpt>
      <trkpt lat="47.10473" lon="2.39895">
        <ele>129</ele>
        <time>2021-08-26T14:31:44Z</time>
      </trkpt>
      <trkpt lat="47.10469" lon="2.39894">
        <ele>129</ele>
        <time>2021-08-26T14:31:44Z</time>
      </trkpt>
      <trkpt lat="47.10465" lon="2.39892">
        <ele>129</ele>
        <time>2021-08-26T14:31:44Z</time>
      </trkpt>
      <trkpt lat="47.10461" lon="2.39892">
        <ele>129</ele>
        <time>2021-08-26T14:31:44Z</time>
      </trkpt>
      <trkpt lat="47.10458" lon="2.3989">
        <ele>129</ele>
        <time>2021-08-26T14:31:44Z</time>
      </trkpt>
      <trkpt lat="47.10454" lon="2.39889">
        <ele>129</ele>
        <time>2021-08-26T14:31:44Z</time>
      </trkpt>
      <trkpt lat="47.10437" lon="2.39885">
        <ele>129</ele>
        <time>2021-08-26T14:31:44Z</time>
      </trkpt>
      <trkpt lat="47.10428" lon="2.39874">
        <ele>128</ele>
        <time>2021-08-26T14:31:44Z</time>
      </trkpt>
      <trkpt lat="47.1042" lon="2.39859">
        <ele>127</ele>
        <time>2021-08-26T14:31:44Z</time>
      </trkpt>
      <trkpt lat="47.10411" lon="2.39865">
        <ele>128</ele>
        <time>2021-08-26T14:31:44Z</time>
      </trkpt>
      <trkpt lat="47.1041" lon="2.39867">
        <ele>128</ele>
        <time>2021-08-26T14:31:44Z</time>
      </trkpt>
      <trkpt lat="47.1041" lon="2.39867">
        <ele>128</ele>
        <time>2021-08-26T14:31:44Z</time>
      </trkpt>
      <trkpt lat="47.1041" lon="2.39867">
        <ele>128</ele>
        <time>2021-08-26T14:31:44Z</time>
      </trkpt>
      <trkpt lat="47.10409" lon="2.39867">
        <ele>128</ele>
        <time>2021-08-26T14:31:44Z</time>
      </trkpt>
      <trkpt lat="47.10409" lon="2.39867">
        <ele>128</ele>
        <time>2021-08-26T14:31:44Z</time>
      </trkpt>
      <trkpt lat="47.10409" lon="2.39867">
        <ele>128</ele>
        <time>2021-08-26T14:31:44Z</time>
      </trkpt>
      <trkpt lat="47.1041" lon="2.39867">
        <ele>128</ele>
        <time>2021-08-26T14:31:44Z</time>
      </trkpt>
      <trkpt lat="47.10411" lon="2.39867">
        <ele>128</ele>
        <time>2021-08-26T14:31:44Z</time>
      </trkpt>
      <trkpt lat="47.1041" lon="2.39868">
        <ele>128</ele>
        <time>2021-08-26T14:31:44Z</time>
      </trkpt>
      <trkpt lat="47.1041" lon="2.39868">
        <ele>128</ele>
        <time>2021-08-26T14:31:44Z</time>
      </trkpt>
      <trkpt lat="47.10413" lon="2.39877">
        <ele>129</ele>
        <time>2021-08-26T14:31:44Z</time>
      </trkpt>
      <trkpt lat="47.10404" lon="2.3988">
        <ele>129</ele>
        <time>2021-08-26T14:31:44Z</time>
      </trkpt>
      <trkpt lat="47.1038" lon="2.39872">
        <ele>131</ele>
        <time>2021-08-26T14:31:44Z</time>
      </trkpt>
      <trkpt lat="47.10354" lon="2.39864">
        <ele>133</ele>
        <time>2021-08-26T14:31:44Z</time>
      </trkpt>
      <trkpt lat="47.10326" lon="2.39854">
        <ele>135</ele>
        <time>2021-08-26T14:31:44Z</time>
      </trkpt>
      <trkpt lat="47.10304" lon="2.39848">
        <ele>136</ele>
        <time>2021-08-26T14:31:44Z</time>
      </trkpt>
      <trkpt lat="47.10298" lon="2.39846">
        <ele>136</ele>
        <time>2021-08-26T14:31:44Z</time>
      </trkpt>
      <trkpt lat="47.10293" lon="2.39845">
        <ele>136</ele>
        <time>2021-08-26T14:31:44Z</time>
      </trkpt>
      <trkpt lat="47.10288" lon="2.39843">
        <ele>136</ele>
        <time>2021-08-26T14:31:44Z</time>
      </trkpt>
      <trkpt lat="47.10283" lon="2.39842">
        <ele>136</ele>
        <time>2021-08-26T14:31:44Z</time>
      </trkpt>
      <trkpt lat="47.10277" lon="2.39841">
        <ele>137</ele>
        <time>2021-08-26T14:31:44Z</time>
      </trkpt>
      <trkpt lat="47.10272" lon="2.39839">
        <ele>137</ele>
        <time>2021-08-26T14:31:44Z</time>
      </trkpt>
      <trkpt lat="47.10267" lon="2.39837">
        <ele>137</ele>
        <time>2021-08-26T14:31:44Z</time>
      </trkpt>
      <trkpt lat="47.10262" lon="2.39835">
        <ele>138</ele>
        <time>2021-08-26T14:31:44Z</time>
      </trkpt>
      <trkpt lat="47.10257" lon="2.39834">
        <ele>138</ele>
        <time>2021-08-26T14:31:44Z</time>
      </trkpt>
      <trkpt lat="47.10251" lon="2.39832">
        <ele>138</ele>
        <time>2021-08-26T14:31:44Z</time>
      </trkpt>
      <trkpt lat="47.10246" lon="2.3983">
        <ele>139</ele>
        <time>2021-08-26T14:31:44Z</time>
      </trkpt>
      <trkpt lat="47.10241" lon="2.39829">
        <ele>139</ele>
        <time>2021-08-26T14:31:44Z</time>
      </trkpt>
      <trkpt lat="47.10235" lon="2.39827">
        <ele>140</ele>
        <time>2021-08-26T14:31:44Z</time>
      </trkpt>
      <trkpt lat="47.10229" lon="2.39826">
        <ele>140</ele>
        <time>2021-08-26T14:31:44Z</time>
      </trkpt>
      <trkpt lat="47.10224" lon="2.39824">
        <ele>140</ele>
        <time>2021-08-26T14:31:44Z</time>
      </trkpt>
      <trkpt lat="47.10219" lon="2.39822">
        <ele>141</ele>
        <time>2021-08-26T14:31:44Z</time>
      </trkpt>
      <trkpt lat="47.10213" lon="2.39821">
        <ele>141</ele>
        <time>2021-08-26T14:31:44Z</time>
      </trkpt>
      <trkpt lat="47.10208" lon="2.39819">
        <ele>141</ele>
        <time>2021-08-26T14:31:44Z</time>
      </trkpt>
      <trkpt lat="47.10202" lon="2.39817">
        <ele>141</ele>
        <time>2021-08-26T14:31:44Z</time>
      </trkpt>
      <trkpt lat="47.10197" lon="2.39815">
        <ele>141</ele>
        <time>2021-08-26T14:31:44Z</time>
      </trkpt>
      <trkpt lat="47.10191" lon="2.39814">
        <ele>142</ele>
        <time>2021-08-26T14:31:44Z</time>
      </trkpt>
      <trkpt lat="47.10185" lon="2.39814">
        <ele>142</ele>
        <time>2021-08-26T14:31:44Z</time>
      </trkpt>
      <trkpt lat="47.1018" lon="2.39815">
        <ele>142</ele>
        <time>2021-08-26T14:31:44Z</time>
      </trkpt>
      <trkpt lat="47.10174" lon="2.39815">
        <ele>142</ele>
        <time>2021-08-26T14:31:44Z</time>
      </trkpt>
      <trkpt lat="47.10169" lon="2.39816">
        <ele>143</ele>
        <time>2021-08-26T14:31:44Z</time>
      </trkpt>
      <trkpt lat="47.10163" lon="2.39818">
        <ele>143</ele>
        <time>2021-08-26T14:31:44Z</time>
      </trkpt>
      <trkpt lat="47.10157" lon="2.39819">
        <ele>144</ele>
        <time>2021-08-26T14:31:44Z</time>
      </trkpt>
      <trkpt lat="47.10151" lon="2.39821">
        <ele>144</ele>
        <time>2021-08-26T14:31:44Z</time>
      </trkpt>
      <trkpt lat="47.10145" lon="2.39822">
        <ele>145</ele>
        <time>2021-08-26T14:31:44Z</time>
      </trkpt>
      <trkpt lat="47.10139" lon="2.39823">
        <ele>145</ele>
        <time>2021-08-26T14:31:44Z</time>
      </trkpt>
      <trkpt lat="47.10133" lon="2.39824">
        <ele>145</ele>
        <time>2021-08-26T14:31:44Z</time>
      </trkpt>
      <trkpt lat="47.10128" lon="2.39824">
        <ele>146</ele>
        <time>2021-08-26T14:31:44Z</time>
      </trkpt>
      <trkpt lat="47.10123" lon="2.39824">
        <ele>146</ele>
        <time>2021-08-26T14:31:44Z</time>
      </trkpt>
      <trkpt lat="47.1012" lon="2.39822">
        <ele>146</ele>
        <time>2021-08-26T14:31:44Z</time>
      </trkpt>
      <trkpt lat="47.10116" lon="2.39818">
        <ele>146</ele>
        <time>2021-08-26T14:31:44Z</time>
      </trkpt>
      <trkpt lat="47.10112" lon="2.39814">
        <ele>146</ele>
        <time>2021-08-26T14:31:44Z</time>
      </trkpt>
      <trkpt lat="47.10107" lon="2.39811">
        <ele>147</ele>
        <time>2021-08-26T14:31:44Z</time>
      </trkpt>
      <trkpt lat="47.10103" lon="2.39807">
        <ele>147</ele>
        <time>2021-08-26T14:31:44Z</time>
      </trkpt>
      <trkpt lat="47.10098" lon="2.39802">
        <ele>146</ele>
        <time>2021-08-26T14:31:44Z</time>
      </trkpt>
      <trkpt lat="47.10094" lon="2.39796">
        <ele>146</ele>
        <time>2021-08-26T14:31:44Z</time>
      </trkpt>
      <trkpt lat="47.10091" lon="2.39789">
        <ele>146</ele>
        <time>2021-08-26T14:31:44Z</time>
      </trkpt>
      <trkpt lat="47.10088" lon="2.39782">
        <ele>146</ele>
        <time>2021-08-26T14:31:44Z</time>
      </trkpt>
      <trkpt lat="47.10085" lon="2.39775">
        <ele>146</ele>
        <time>2021-08-26T14:31:44Z</time>
      </trkpt>
      <trkpt lat="47.10081" lon="2.39769">
        <ele>147</ele>
        <time>2021-08-26T14:31:44Z</time>
      </trkpt>
      <trkpt lat="47.10078" lon="2.39761">
        <ele>147</ele>
        <time>2021-08-26T14:31:44Z</time>
      </trkpt>
      <trkpt lat="47.10075" lon="2.39754">
        <ele>147</ele>
        <time>2021-08-26T14:31:44Z</time>
      </trkpt>
      <trkpt lat="47.10071" lon="2.39747">
        <ele>147</ele>
        <time>2021-08-26T14:31:44Z</time>
      </trkpt>
      <trkpt lat="47.10067" lon="2.39739">
        <ele>147</ele>
        <time>2021-08-26T14:31:44Z</time>
      </trkpt>
      <trkpt lat="47.10064" lon="2.39732">
        <ele>147</ele>
        <time>2021-08-26T14:31:44Z</time>
      </trkpt>
      <trkpt lat="47.1006" lon="2.39724">
        <ele>147</ele>
        <time>2021-08-26T14:31:44Z</time>
      </trkpt>
      <trkpt lat="47.10057" lon="2.39716">
        <ele>146</ele>
        <time>2021-08-26T14:31:44Z</time>
      </trkpt>
      <trkpt lat="47.10053" lon="2.39709">
        <ele>145</ele>
        <time>2021-08-26T14:31:44Z</time>
      </trkpt>
      <trkpt lat="47.10049" lon="2.39701">
        <ele>145</ele>
        <time>2021-08-26T14:31:44Z</time>
      </trkpt>
      <trkpt lat="47.10046" lon="2.39694">
        <ele>144</ele>
        <time>2021-08-26T14:31:44Z</time>
      </trkpt>
      <trkpt lat="47.10042" lon="2.39687">
        <ele>144</ele>
        <time>2021-08-26T14:31:44Z</time>
      </trkpt>
      <trkpt lat="47.10039" lon="2.3968">
        <ele>143</ele>
        <time>2021-08-26T14:31:44Z</time>
      </trkpt>
      <trkpt lat="47.10037" lon="2.39674">
        <ele>143</ele>
        <time>2021-08-26T14:31:44Z</time>
      </trkpt>
      <trkpt lat="47.10035" lon="2.39668">
        <ele>143</ele>
        <time>2021-08-26T14:31:44Z</time>
      </trkpt>
      <trkpt lat="47.10032" lon="2.3966">
        <ele>143</ele>
        <time>2021-08-26T14:31:44Z</time>
      </trkpt>
      <trkpt lat="47.10029" lon="2.39654">
        <ele>143</ele>
        <time>2021-08-26T14:31:44Z</time>
      </trkpt>
      <trkpt lat="47.10026" lon="2.39647">
        <ele>143</ele>
        <time>2021-08-26T14:31:44Z</time>
      </trkpt>
      <trkpt lat="47.10023" lon="2.3964">
        <ele>143</ele>
        <time>2021-08-26T14:31:44Z</time>
      </trkpt>
      <trkpt lat="47.10008" lon="2.39603">
        <ele>143</ele>
        <time>2021-08-26T14:31:44Z</time>
      </trkpt>
      <trkpt lat="47.09994" lon="2.39562">
        <ele>142</ele>
        <time>2021-08-26T14:31:44Z</time>
      </trkpt>
      <trkpt lat="47.09977" lon="2.39521">
        <ele>140</ele>
        <time>2021-08-26T14:31:44Z</time>
      </trkpt>
      <trkpt lat="47.0996" lon="2.39494">
        <ele>139</ele>
        <time>2021-08-26T14:31:44Z</time>
      </trkpt>
      <trkpt lat="47.09966" lon="2.39477">
        <ele>139</ele>
        <time>2021-08-26T14:31:44Z</time>
      </trkpt>
      <trkpt lat="47.0998" lon="2.39461">
        <ele>138</ele>
        <time>2021-08-26T14:31:44Z</time>
      </trkpt>
      <trkpt lat="47.09985" lon="2.39458">
        <ele>138</ele>
        <time>2021-08-26T14:31:44Z</time>
      </trkpt>
      <trkpt lat="47.10012" lon="2.39434">
        <ele>136</ele>
        <time>2021-08-26T14:31:44Z</time>
      </trkpt>
      <trkpt lat="47.1004" lon="2.39405">
        <ele>136</ele>
        <time>2021-08-26T14:31:44Z</time>
      </trkpt>
      <trkpt lat="47.10068" lon="2.39384">
        <ele>136</ele>
        <time>2021-08-26T14:31:44Z</time>
      </trkpt>
      <trkpt lat="47.10099" lon="2.39374">
        <ele>135</ele>
        <time>2021-08-26T14:31:44Z</time>
      </trkpt>
      <trkpt lat="47.10113" lon="2.39397">
        <ele>135</ele>
        <time>2021-08-26T14:31:44Z</time>
      </trkpt>
      <trkpt lat="47.10117" lon="2.39425">
        <ele>135</ele>
        <time>2021-08-26T14:31:44Z</time>
      </trkpt>
      <trkpt lat="47.10118" lon="2.39433">
        <ele>135</ele>
        <time>2021-08-26T14:31:44Z</time>
      </trkpt>
      <trkpt lat="47.10116" lon="2.39465">
        <ele>136</ele>
        <time>2021-08-26T14:31:44Z</time>
      </trkpt>
      <trkpt lat="47.10095" lon="2.39484">
        <ele>136</ele>
        <time>2021-08-26T14:31:44Z</time>
      </trkpt>
      <trkpt lat="47.10074" lon="2.39505">
        <ele>137</ele>
        <time>2021-08-26T14:31:44Z</time>
      </trkpt>
      <trkpt lat="47.10053" lon="2.39526">
        <ele>140</ele>
        <time>2021-08-26T14:31:44Z</time>
      </trkpt>
      <trkpt lat="47.1003" lon="2.39548">
        <ele>141</ele>
        <time>2021-08-26T14:31:44Z</time>
      </trkpt>
      <trkpt lat="47.10012" lon="2.39565">
        <ele>142</ele>
        <time>2021-08-26T14:31:44Z</time>
      </trkpt>
      <trkpt lat="47.10008" lon="2.39569">
        <ele>142</ele>
        <time>2021-08-26T14:31:44Z</time>
      </trkpt>
      <trkpt lat="47.09994" lon="2.39564">
        <ele>142</ele>
        <time>2021-08-26T14:31:44Z</time>
      </trkpt>
      <trkpt lat="47.09978" lon="2.39525">
        <ele>140</ele>
        <time>2021-08-26T14:31:44Z</time>
      </trkpt>
      <trkpt lat="47.0996" lon="2.39492">
        <ele>139</ele>
        <time>2021-08-26T14:31:44Z</time>
      </trkpt>
      <trkpt lat="47.09943" lon="2.39477">
        <ele>138</ele>
        <time>2021-08-26T14:31:44Z</time>
      </trkpt>
      <trkpt lat="47.09914" lon="2.39474">
        <ele>138</ele>
        <time>2021-08-26T14:31:44Z</time>
      </trkpt>
      <trkpt lat="47.09887" lon="2.39476">
        <ele>138</ele>
        <time>2021-08-26T14:31:44Z</time>
      </trkpt>
      <trkpt lat="47.0988" lon="2.39477">
        <ele>138</ele>
        <time>2021-08-26T14:31:44Z</time>
      </trkpt>
      <trkpt lat="47.09865" lon="2.39479">
        <ele>137</ele>
        <time>2021-08-26T14:31:44Z</time>
      </trkpt>
      <trkpt lat="47.09857" lon="2.3948">
        <ele>137</ele>
        <time>2021-08-26T14:31:44Z</time>
      </trkpt>
      <trkpt lat="47.09849" lon="2.39483">
        <ele>137</ele>
        <time>2021-08-26T14:31:44Z</time>
      </trkpt>
      <trkpt lat="47.09842" lon="2.39485">
        <ele>137</ele>
        <time>2021-08-26T14:31:44Z</time>
      </trkpt>
      <trkpt lat="47.09834" lon="2.39486">
        <ele>137</ele>
        <time>2021-08-26T14:31:44Z</time>
      </trkpt>
      <trkpt lat="47.09826" lon="2.39488">
        <ele>136</ele>
        <time>2021-08-26T14:31:44Z</time>
      </trkpt>
      <trkpt lat="47.09818" lon="2.3949">
        <ele>136</ele>
        <time>2021-08-26T14:31:44Z</time>
      </trkpt>
      <trkpt lat="47.0981" lon="2.39493">
        <ele>136</ele>
        <time>2021-08-26T14:31:44Z</time>
      </trkpt>
      <trkpt lat="47.09802" lon="2.39495">
        <ele>136</ele>
        <time>2021-08-26T14:31:44Z</time>
      </trkpt>
      <trkpt lat="47.09794" lon="2.39497">
        <ele>136</ele>
        <time>2021-08-26T14:31:44Z</time>
      </trkpt>
      <trkpt lat="47.09786" lon="2.39499">
        <ele>135</ele>
        <time>2021-08-26T14:31:44Z</time>
      </trkpt>
      <trkpt lat="47.09778" lon="2.395">
        <ele>135</ele>
        <time>2021-08-26T14:31:44Z</time>
      </trkpt>
      <trkpt lat="47.09769" lon="2.39502">
        <ele>134</ele>
        <time>2021-08-26T14:31:44Z</time>
      </trkpt>
      <trkpt lat="47.09761" lon="2.39503">
        <ele>133</ele>
        <time>2021-08-26T14:31:44Z</time>
      </trkpt>
      <trkpt lat="47.09753" lon="2.39502">
        <ele>133</ele>
        <time>2021-08-26T14:31:44Z</time>
      </trkpt>
      <trkpt lat="47.09745" lon="2.39502">
        <ele>133</ele>
        <time>2021-08-26T14:31:44Z</time>
      </trkpt>
      <trkpt lat="47.09737" lon="2.39502">
        <ele>133</ele>
        <time>2021-08-26T14:31:44Z</time>
      </trkpt>
      <trkpt lat="47.09729" lon="2.39501">
        <ele>133</ele>
        <time>2021-08-26T14:31:44Z</time>
      </trkpt>
      <trkpt lat="47.09722" lon="2.395">
        <ele>133</ele>
        <time>2021-08-26T14:31:44Z</time>
      </trkpt>
      <trkpt lat="47.09714" lon="2.395">
        <ele>133</ele>
        <time>2021-08-26T14:31:44Z</time>
      </trkpt>
      <trkpt lat="47.09706" lon="2.39499">
        <ele>133</ele>
        <time>2021-08-26T14:31:44Z</time>
      </trkpt>
      <trkpt lat="47.09699" lon="2.39499">
        <ele>133</ele>
        <time>2021-08-26T14:31:44Z</time>
      </trkpt>
      <trkpt lat="47.09692" lon="2.395">
        <ele>132</ele>
        <time>2021-08-26T14:31:44Z</time>
      </trkpt>
      <trkpt lat="47.09685" lon="2.39501">
        <ele>132</ele>
        <time>2021-08-26T14:31:44Z</time>
      </trkpt>
      <trkpt lat="47.09679" lon="2.39501">
        <ele>132</ele>
        <time>2021-08-26T14:31:44Z</time>
      </trkpt>
      <trkpt lat="47.09674" lon="2.39503">
        <ele>132</ele>
        <time>2021-08-26T14:31:44Z</time>
      </trkpt>
      <trkpt lat="47.09668" lon="2.39503">
        <ele>132</ele>
        <time>2021-08-26T14:31:44Z</time>
      </trkpt>
      <trkpt lat="47.09662" lon="2.39503">
        <ele>132</ele>
        <time>2021-08-26T14:31:44Z</time>
      </trkpt>
      <trkpt lat="47.09657" lon="2.39503">
        <ele>132</ele>
        <time>2021-08-26T14:31:44Z</time>
      </trkpt>
      <trkpt lat="47.09652" lon="2.39504">
        <ele>132</ele>
        <time>2021-08-26T14:31:44Z</time>
      </trkpt>
      <trkpt lat="47.09647" lon="2.39504">
        <ele>132</ele>
        <time>2021-08-26T14:31:44Z</time>
      </trkpt>
      <trkpt lat="47.09641" lon="2.39504">
        <ele>132</ele>
        <time>2021-08-26T14:31:44Z</time>
      </trkpt>
      <trkpt lat="47.09635" lon="2.39504">
        <ele>133</ele>
        <time>2021-08-26T14:31:44Z</time>
      </trkpt>
      <trkpt lat="47.09629" lon="2.39505">
        <ele>133</ele>
        <time>2021-08-26T14:31:44Z</time>
      </trkpt>
      <trkpt lat="47.09623" lon="2.39505">
        <ele>133</ele>
        <time>2021-08-26T14:31:44Z</time>
      </trkpt>
      <trkpt lat="47.09617" lon="2.39505">
        <ele>133</ele>
        <time>2021-08-26T14:31:44Z</time>
      </trkpt>
      <trkpt lat="47.09611" lon="2.39505">
        <ele>134</ele>
        <time>2021-08-26T14:31:44Z</time>
      </trkpt>
      <trkpt lat="47.09604" lon="2.39506">
        <ele>134</ele>
        <time>2021-08-26T14:31:44Z</time>
      </trkpt>
      <trkpt lat="47.09598" lon="2.39506">
        <ele>134</ele>
        <time>2021-08-26T14:31:44Z</time>
      </trkpt>
      <trkpt lat="47.09591" lon="2.39507">
        <ele>134</ele>
        <time>2021-08-26T14:31:44Z</time>
      </trkpt>
      <trkpt lat="47.09585" lon="2.39507">
        <ele>134</ele>
        <time>2021-08-26T14:31:44Z</time>
      </trkpt>
      <trkpt lat="47.09579" lon="2.39508">
        <ele>133</ele>
        <time>2021-08-26T14:31:44Z</time>
      </trkpt>
      <trkpt lat="47.09572" lon="2.39508">
        <ele>133</ele>
        <time>2021-08-26T14:31:44Z</time>
      </trkpt>
      <trkpt lat="47.09566" lon="2.39508">
        <ele>133</ele>
        <time>2021-08-26T14:31:44Z</time>
      </trkpt>
      <trkpt lat="47.09558" lon="2.39509">
        <ele>133</ele>
        <time>2021-08-26T14:31:44Z</time>
      </trkpt>
      <trkpt lat="47.09552" lon="2.3951">
        <ele>132</ele>
        <time>2021-08-26T14:31:44Z</time>
      </trkpt>
      <trkpt lat="47.09545" lon="2.3951">
        <ele>132</ele>
        <time>2021-08-26T14:31:44Z</time>
      </trkpt>
      <trkpt lat="47.0954" lon="2.3951">
        <ele>132</ele>
        <time>2021-08-26T14:31:44Z</time>
      </trkpt>
      <trkpt lat="47.09535" lon="2.3951">
        <ele>132</ele>
        <time>2021-08-26T14:31:44Z</time>
      </trkpt>
      <trkpt lat="47.09531" lon="2.39508">
        <ele>132</ele>
        <time>2021-08-26T14:31:44Z</time>
      </trkpt>
      <trkpt lat="47.09527" lon="2.39502">
        <ele>131</ele>
        <time>2021-08-26T14:31:44Z</time>
      </trkpt>
      <trkpt lat="47.09523" lon="2.39495">
        <ele>131</ele>
        <time>2021-08-26T14:31:44Z</time>
      </trkpt>
      <trkpt lat="47.09522" lon="2.39488">
        <ele>131</ele>
        <time>2021-08-26T14:31:44Z</time>
      </trkpt>
      <trkpt lat="47.09521" lon="2.39478">
        <ele>131</ele>
        <time>2021-08-26T14:31:44Z</time>
      </trkpt>
      <trkpt lat="47.09523" lon="2.39468">
        <ele>131</ele>
        <time>2021-08-26T14:31:44Z</time>
      </trkpt>
      <trkpt lat="47.09524" lon="2.39458">
        <ele>131</ele>
        <time>2021-08-26T14:31:44Z</time>
      </trkpt>
      <trkpt lat="47.09525" lon="2.39447">
        <ele>131</ele>
        <time>2021-08-26T14:31:44Z</time>
      </trkpt>
      <trkpt lat="47.09525" lon="2.39437">
        <ele>131</ele>
        <time>2021-08-26T14:31:44Z</time>
      </trkpt>
      <trkpt lat="47.09527" lon="2.39426">
        <ele>131</ele>
        <time>2021-08-26T14:31:44Z</time>
      </trkpt>
      <trkpt lat="47.09528" lon="2.39415">
        <ele>130</ele>
        <time>2021-08-26T14:31:44Z</time>
      </trkpt>
      <trkpt lat="47.09529" lon="2.39404">
        <ele>130</ele>
        <time>2021-08-26T14:31:44Z</time>
      </trkpt>
      <trkpt lat="47.09534" lon="2.3935">
        <ele>129</ele>
        <time>2021-08-26T14:31:44Z</time>
      </trkpt>
      <trkpt lat="47.09537" lon="2.39299">
        <ele>127</ele>
        <time>2021-08-26T14:31:44Z</time>
      </trkpt>
      <trkpt lat="47.09515" lon="2.39262">
        <ele>128</ele>
        <time>2021-08-26T14:31:44Z</time>
      </trkpt>
      <trkpt lat="47.09485" lon="2.39246">
        <ele>129</ele>
        <time>2021-08-26T14:31:44Z</time>
      </trkpt>
      <trkpt lat="47.09443" lon="2.3925">
        <ele>127</ele>
        <time>2021-08-26T14:31:44Z</time>
      </trkpt>
      <trkpt lat="47.09417" lon="2.39243">
        <ele>127</ele>
        <time>2021-08-26T14:31:44Z</time>
      </trkpt>
      <trkpt lat="47.09411" lon="2.3924">
        <ele>127</ele>
        <time>2021-08-26T14:31:44Z</time>
      </trkpt>
      <trkpt lat="47.09385" lon="2.39227">
        <ele>127</ele>
        <time>2021-08-26T14:31:44Z</time>
      </trkpt>
      <trkpt lat="47.09389" lon="2.39181">
        <ele>126</ele>
        <time>2021-08-26T14:31:44Z</time>
      </trkpt>
      <trkpt lat="47.09393" lon="2.39132">
        <ele>124</ele>
        <time>2021-08-26T14:31:44Z</time>
      </trkpt>
      <trkpt lat="47.0939" lon="2.39081">
        <ele>123</ele>
        <time>2021-08-26T14:31:44Z</time>
      </trkpt>
      <trkpt lat="47.09386" lon="2.39031">
        <ele>124</ele>
        <time>2021-08-26T14:31:44Z</time>
      </trkpt>
      <trkpt lat="47.09381" lon="2.3899">
        <ele>124</ele>
        <time>2021-08-26T14:31:44Z</time>
      </trkpt>
      <trkpt lat="47.0938" lon="2.3898">
        <ele>124</ele>
        <time>2021-08-26T14:31:44Z</time>
      </trkpt>
      <trkpt lat="47.09378" lon="2.3897">
        <ele>124</ele>
        <time>2021-08-26T14:31:44Z</time>
      </trkpt>
      <trkpt lat="47.09378" lon="2.3896">
        <ele>124</ele>
        <time>2021-08-26T14:31:44Z</time>
      </trkpt>
      <trkpt lat="47.09377" lon="2.3895">
        <ele>124</ele>
        <time>2021-08-26T14:31:44Z</time>
      </trkpt>
      <trkpt lat="47.09376" lon="2.3894">
        <ele>124</ele>
        <time>2021-08-26T14:31:44Z</time>
      </trkpt>
      <trkpt lat="47.09375" lon="2.3893">
        <ele>125</ele>
        <time>2021-08-26T14:31:44Z</time>
      </trkpt>
      <trkpt lat="47.09374" lon="2.38919">
        <ele>125</ele>
        <time>2021-08-26T14:31:44Z</time>
      </trkpt>
      <trkpt lat="47.09373" lon="2.38909">
        <ele>125</ele>
        <time>2021-08-26T14:31:44Z</time>
      </trkpt>
      <trkpt lat="47.09372" lon="2.38899">
        <ele>126</ele>
        <time>2021-08-26T14:31:44Z</time>
      </trkpt>
      <trkpt lat="47.09371" lon="2.38889">
        <ele>126</ele>
        <time>2021-08-26T14:31:44Z</time>
      </trkpt>
      <trkpt lat="47.0937" lon="2.38878">
        <ele>126</ele>
        <time>2021-08-26T14:31:44Z</time>
      </trkpt>
      <trkpt lat="47.09369" lon="2.38868">
        <ele>125</ele>
        <time>2021-08-26T14:31:44Z</time>
      </trkpt>
      <trkpt lat="47.09368" lon="2.38857">
        <ele>125</ele>
        <time>2021-08-26T14:31:44Z</time>
      </trkpt>
      <trkpt lat="47.09366" lon="2.38847">
        <ele>124</ele>
        <time>2021-08-26T14:31:44Z</time>
      </trkpt>
      <trkpt lat="47.09365" lon="2.38837">
        <ele>124</ele>
        <time>2021-08-26T14:31:44Z</time>
      </trkpt>
      <trkpt lat="47.09365" lon="2.38827">
        <ele>124</ele>
        <time>2021-08-26T14:31:44Z</time>
      </trkpt>
      <trkpt lat="47.09364" lon="2.38816">
        <ele>123</ele>
        <time>2021-08-26T14:31:44Z</time>
      </trkpt>
      <trkpt lat="47.09363" lon="2.38805">
        <ele>123</ele>
        <time>2021-08-26T14:31:44Z</time>
      </trkpt>
      <trkpt lat="47.09362" lon="2.38794">
        <ele>123</ele>
        <time>2021-08-26T14:31:44Z</time>
      </trkpt>
      <trkpt lat="47.09361" lon="2.38785">
        <ele>123</ele>
        <time>2021-08-26T14:31:44Z</time>
      </trkpt>
      <trkpt lat="47.09361" lon="2.38775">
        <ele>124</ele>
        <time>2021-08-26T14:31:44Z</time>
      </trkpt>
      <trkpt lat="47.0936" lon="2.38765">
        <ele>124</ele>
        <time>2021-08-26T14:31:44Z</time>
      </trkpt>
      <trkpt lat="47.09358" lon="2.38754">
        <ele>124</ele>
        <time>2021-08-26T14:31:44Z</time>
      </trkpt>
      <trkpt lat="47.09357" lon="2.38744">
        <ele>125</ele>
        <time>2021-08-26T14:31:44Z</time>
      </trkpt>
      <trkpt lat="47.09355" lon="2.38733">
        <ele>125</ele>
        <time>2021-08-26T14:31:44Z</time>
      </trkpt>
      <trkpt lat="47.09353" lon="2.38723">
        <ele>125</ele>
        <time>2021-08-26T14:31:44Z</time>
      </trkpt>
      <trkpt lat="47.09352" lon="2.38713">
        <ele>124</ele>
        <time>2021-08-26T14:31:44Z</time>
      </trkpt>
      <trkpt lat="47.09349" lon="2.38704">
        <ele>124</ele>
        <time>2021-08-26T14:31:44Z</time>
      </trkpt>
      <trkpt lat="47.09348" lon="2.38694">
        <ele>124</ele>
        <time>2021-08-26T14:31:44Z</time>
      </trkpt>
      <trkpt lat="47.09346" lon="2.38685">
        <ele>124</ele>
        <time>2021-08-26T14:31:44Z</time>
      </trkpt>
      <trkpt lat="47.09345" lon="2.38676">
        <ele>124</ele>
        <time>2021-08-26T14:31:44Z</time>
      </trkpt>
      <trkpt lat="47.09342" lon="2.38667">
        <ele>124</ele>
        <time>2021-08-26T14:31:44Z</time>
      </trkpt>
      <trkpt lat="47.09341" lon="2.38657">
        <ele>124</ele>
        <time>2021-08-26T14:31:44Z</time>
      </trkpt>
      <trkpt lat="47.09339" lon="2.38648">
        <ele>124</ele>
        <time>2021-08-26T14:31:44Z</time>
      </trkpt>
      <trkpt lat="47.09338" lon="2.38638">
        <ele>125</ele>
        <time>2021-08-26T14:31:44Z</time>
      </trkpt>
      <trkpt lat="47.09335" lon="2.38629">
        <ele>125</ele>
        <time>2021-08-26T14:31:44Z</time>
      </trkpt>
      <trkpt lat="47.09334" lon="2.3862">
        <ele>125</ele>
        <time>2021-08-26T14:31:44Z</time>
      </trkpt>
      <trkpt lat="47.09331" lon="2.38611">
        <ele>125</ele>
        <time>2021-08-26T14:31:44Z</time>
      </trkpt>
      <trkpt lat="47.0933" lon="2.38601">
        <ele>125</ele>
        <time>2021-08-26T14:31:44Z</time>
      </trkpt>
      <trkpt lat="47.09328" lon="2.38592">
        <ele>125</ele>
        <time>2021-08-26T14:31:44Z</time>
      </trkpt>
      <trkpt lat="47.09327" lon="2.38582">
        <ele>126</ele>
        <time>2021-08-26T14:31:44Z</time>
      </trkpt>
      <trkpt lat="47.09325" lon="2.38574">
        <ele>126</ele>
        <time>2021-08-26T14:31:44Z</time>
      </trkpt>
      <trkpt lat="47.09324" lon="2.38564">
        <ele>126</ele>
        <time>2021-08-26T14:31:44Z</time>
      </trkpt>
      <trkpt lat="47.09321" lon="2.38555">
        <ele>127</ele>
        <time>2021-08-26T14:31:44Z</time>
      </trkpt>
      <trkpt lat="47.09319" lon="2.38545">
        <ele>127</ele>
        <time>2021-08-26T14:31:44Z</time>
      </trkpt>
      <trkpt lat="47.09318" lon="2.38536">
        <ele>127</ele>
        <time>2021-08-26T14:31:44Z</time>
      </trkpt>
      <trkpt lat="47.09317" lon="2.38529">
        <ele>127</ele>
        <time>2021-08-26T14:31:44Z</time>
      </trkpt>
      <trkpt lat="47.09316" lon="2.38525">
        <ele>126</ele>
        <time>2021-08-26T14:31:44Z</time>
      </trkpt>
      <trkpt lat="47.09315" lon="2.38522">
        <ele>126</ele>
        <time>2021-08-26T14:31:44Z</time>
      </trkpt>
      <trkpt lat="47.09315" lon="2.3852">
        <ele>126</ele>
        <time>2021-08-26T14:31:44Z</time>
      </trkpt>
      <trkpt lat="47.09315" lon="2.38519">
        <ele>126</ele>
        <time>2021-08-26T14:31:44Z</time>
      </trkpt>
      <trkpt lat="47.09317" lon="2.38517">
        <ele>126</ele>
        <time>2021-08-26T14:31:44Z</time>
      </trkpt>
      <trkpt lat="47.09318" lon="2.38517">
        <ele>126</ele>
        <time>2021-08-26T14:31:44Z</time>
      </trkpt>
      <trkpt lat="47.09319" lon="2.38518">
        <ele>126</ele>
        <time>2021-08-26T14:31:44Z</time>
      </trkpt>
      <trkpt lat="47.09321" lon="2.38518">
        <ele>126</ele>
        <time>2021-08-26T14:31:44Z</time>
      </trkpt>
      <trkpt lat="47.09324" lon="2.38517">
        <ele>126</ele>
        <time>2021-08-26T14:31:44Z</time>
      </trkpt>
      <trkpt lat="47.09328" lon="2.38516">
        <ele>126</ele>
        <time>2021-08-26T14:31:44Z</time>
      </trkpt>
      <trkpt lat="47.09333" lon="2.38515">
        <ele>126</ele>
        <time>2021-08-26T14:31:44Z</time>
      </trkpt>
      <trkpt lat="47.09338" lon="2.38512">
        <ele>126</ele>
        <time>2021-08-26T14:31:44Z</time>
      </trkpt>
      <trkpt lat="47.09342" lon="2.3851">
        <ele>126</ele>
        <time>2021-08-26T14:31:44Z</time>
      </trkpt>
      <trkpt lat="47.09347" lon="2.38508">
        <ele>126</ele>
        <time>2021-08-26T14:31:44Z</time>
      </trkpt>
      <trkpt lat="47.09352" lon="2.38506">
        <ele>126</ele>
        <time>2021-08-26T14:31:44Z</time>
      </trkpt>
      <trkpt lat="47.09379" lon="2.38493">
        <ele>125</ele>
        <time>2021-08-26T14:31:44Z</time>
      </trkpt>
      <trkpt lat="47.09382" lon="2.38459">
        <ele>124</ele>
        <time>2021-08-26T14:31:44Z</time>
      </trkpt>
      <trkpt lat="47.09375" lon="2.38418">
        <ele>124</ele>
        <time>2021-08-26T14:31:44Z</time>
      </trkpt>
      <trkpt lat="47.09369" lon="2.38376">
        <ele>124</ele>
        <time>2021-08-26T14:31:44Z</time>
      </trkpt>
      <trkpt lat="47.09365" lon="2.38351">
        <ele>124</ele>
        <time>2021-08-26T14:31:44Z</time>
      </trkpt>
      <trkpt lat="47.09364" lon="2.38345">
        <ele>124</ele>
        <time>2021-08-26T14:31:44Z</time>
      </trkpt>
      <trkpt lat="47.09363" lon="2.38343">
        <ele>124</ele>
        <time>2021-08-26T14:31:44Z</time>
      </trkpt>
      <trkpt lat="47.09376" lon="2.38338">
        <ele>124</ele>
        <time>2021-08-26T14:31:44Z</time>
      </trkpt>
      <trkpt lat="47.09392" lon="2.3833">
        <ele>124</ele>
        <time>2021-08-26T14:31:44Z</time>
      </trkpt>
      <trkpt lat="47.09416" lon="2.38319">
        <ele>124</ele>
        <time>2021-08-26T14:31:44Z</time>
      </trkpt>
      <trkpt lat="47.09445" lon="2.3831">
        <ele>126</ele>
        <time>2021-08-26T14:31:44Z</time>
      </trkpt>
      <trkpt lat="47.09472" lon="2.38301">
        <ele>126</ele>
        <time>2021-08-26T14:31:44Z</time>
      </trkpt>
      <trkpt lat="47.09491" lon="2.38291">
        <ele>126</ele>
        <time>2021-08-26T14:31:44Z</time>
      </trkpt>
      <trkpt lat="47.09495" lon="2.38286">
        <ele>126</ele>
        <time>2021-08-26T14:31:44Z</time>
      </trkpt>
      <trkpt lat="47.09502" lon="2.38243">
        <ele>125</ele>
        <time>2021-08-26T14:31:44Z</time>
      </trkpt>
      <trkpt lat="47.09502" lon="2.38189">
        <ele>125</ele>
        <time>2021-08-26T14:31:44Z</time>
      </trkpt>
      <trkpt lat="47.09501" lon="2.38139">
        <ele>124</ele>
        <time>2021-08-26T14:31:44Z</time>
      </trkpt>
      <trkpt lat="47.09501" lon="2.38091">
        <ele>124</ele>
        <time>2021-08-26T14:31:44Z</time>
      </trkpt>
      <trkpt lat="47.09501" lon="2.38044">
        <ele>125</ele>
        <time>2021-08-26T14:31:44Z</time>
      </trkpt>
      <trkpt lat="47.09501" lon="2.38006">
        <ele>124</ele>
        <time>2021-08-26T14:31:44Z</time>
      </trkpt>
      <trkpt lat="47.09501" lon="2.37996">
        <ele>123</ele>
        <time>2021-08-26T14:31:44Z</time>
      </trkpt>
      <trkpt lat="47.095" lon="2.37946">
        <ele>123</ele>
        <time>2021-08-26T14:31:44Z</time>
      </trkpt>
      <trkpt lat="47.09501" lon="2.379">
        <ele>124</ele>
        <time>2021-08-26T14:31:44Z</time>
      </trkpt>
      <trkpt lat="47.09495" lon="2.37863">
        <ele>124</ele>
        <time>2021-08-26T14:31:44Z</time>
      </trkpt>
      <trkpt lat="47.09488" lon="2.37853">
        <ele>124</ele>
        <time>2021-08-26T14:31:44Z</time>
      </trkpt>
      <trkpt lat="47.09475" lon="2.37837">
        <ele>123</ele>
        <time>2021-08-26T14:31:44Z</time>
      </trkpt>
      <trkpt lat="47.0946" lon="2.37814">
        <ele>123</ele>
        <time>2021-08-26T14:31:44Z</time>
      </trkpt>
      <trkpt lat="47.09455" lon="2.37808">
        <ele>123</ele>
        <time>2021-08-26T14:31:44Z</time>
      </trkpt>
      <trkpt lat="47.09446" lon="2.37797">
        <ele>122</ele>
        <time>2021-08-26T14:31:44Z</time>
      </trkpt>
      <trkpt lat="47.09441" lon="2.37791">
        <ele>122</ele>
        <time>2021-08-26T14:31:44Z</time>
      </trkpt>
      <trkpt lat="47.09436" lon="2.37785">
        <ele>122</ele>
        <time>2021-08-26T14:31:44Z</time>
      </trkpt>
      <trkpt lat="47.09431" lon="2.3778">
        <ele>122</ele>
        <time>2021-08-26T14:31:44Z</time>
      </trkpt>
      <trkpt lat="47.09426" lon="2.37775">
        <ele>122</ele>
        <time>2021-08-26T14:31:44Z</time>
      </trkpt>
      <trkpt lat="47.09421" lon="2.3777">
        <ele>122</ele>
        <time>2021-08-26T14:31:44Z</time>
      </trkpt>
      <trkpt lat="47.09415" lon="2.37765">
        <ele>121</ele>
        <time>2021-08-26T14:31:44Z</time>
      </trkpt>
      <trkpt lat="47.0941" lon="2.3776">
        <ele>121</ele>
        <time>2021-08-26T14:31:44Z</time>
      </trkpt>
      <trkpt lat="47.09404" lon="2.37755">
        <ele>121</ele>
        <time>2021-08-26T14:31:44Z</time>
      </trkpt>
      <trkpt lat="47.09399" lon="2.37749">
        <ele>122</ele>
        <time>2021-08-26T14:31:44Z</time>
      </trkpt>
      <trkpt lat="47.09394" lon="2.37745">
        <ele>122</ele>
        <time>2021-08-26T14:31:44Z</time>
      </trkpt>
      <trkpt lat="47.09388" lon="2.3774">
        <ele>122</ele>
        <time>2021-08-26T14:31:44Z</time>
      </trkpt>
      <trkpt lat="47.09383" lon="2.37735">
        <ele>122</ele>
        <time>2021-08-26T14:31:44Z</time>
      </trkpt>
      <trkpt lat="47.09377" lon="2.37731">
        <ele>122</ele>
        <time>2021-08-26T14:31:44Z</time>
      </trkpt>
      <trkpt lat="47.09371" lon="2.37727">
        <ele>122</ele>
        <time>2021-08-26T14:31:44Z</time>
      </trkpt>
      <trkpt lat="47.09365" lon="2.37724">
        <ele>122</ele>
        <time>2021-08-26T14:31:44Z</time>
      </trkpt>
      <trkpt lat="47.09359" lon="2.3772">
        <ele>122</ele>
        <time>2021-08-26T14:31:44Z</time>
      </trkpt>
      <trkpt lat="47.09352" lon="2.37717">
        <ele>122</ele>
        <time>2021-08-26T14:31:44Z</time>
      </trkpt>
      <trkpt lat="47.09346" lon="2.37713">
        <ele>122</ele>
        <time>2021-08-26T14:31:44Z</time>
      </trkpt>
      <trkpt lat="47.09341" lon="2.3771">
        <ele>122</ele>
        <time>2021-08-26T14:31:44Z</time>
      </trkpt>
      <trkpt lat="47.09334" lon="2.37708">
        <ele>122</ele>
        <time>2021-08-26T14:31:44Z</time>
      </trkpt>
      <trkpt lat="47.09328" lon="2.37705">
        <ele>122</ele>
        <time>2021-08-26T14:31:44Z</time>
      </trkpt>
      <trkpt lat="47.09322" lon="2.37703">
        <ele>122</ele>
        <time>2021-08-26T14:31:44Z</time>
      </trkpt>
      <trkpt lat="47.09315" lon="2.37703">
        <ele>122</ele>
        <time>2021-08-26T14:31:44Z</time>
      </trkpt>
      <trkpt lat="47.09309" lon="2.37702">
        <ele>122</ele>
        <time>2021-08-26T14:31:44Z</time>
      </trkpt>
      <trkpt lat="47.09303" lon="2.37701">
        <ele>121</ele>
        <time>2021-08-26T14:31:44Z</time>
      </trkpt>
      <trkpt lat="47.09297" lon="2.377">
        <ele>121</ele>
        <time>2021-08-26T14:31:44Z</time>
      </trkpt>
      <trkpt lat="47.09291" lon="2.37699">
        <ele>121</ele>
        <time>2021-08-26T14:31:44Z</time>
      </trkpt>
      <trkpt lat="47.09285" lon="2.37699">
        <ele>121</ele>
        <time>2021-08-26T14:31:44Z</time>
      </trkpt>
      <trkpt lat="47.09279" lon="2.37699">
        <ele>120</ele>
        <time>2021-08-26T14:31:44Z</time>
      </trkpt>
      <trkpt lat="47.09273" lon="2.37698">
        <ele>120</ele>
        <time>2021-08-26T14:31:44Z</time>
      </trkpt>
      <trkpt lat="47.09267" lon="2.37698">
        <ele>120</ele>
        <time>2021-08-26T14:31:44Z</time>
      </trkpt>
      <trkpt lat="47.0926" lon="2.37698">
        <ele>120</ele>
        <time>2021-08-26T14:31:44Z</time>
      </trkpt>
      <trkpt lat="47.09254" lon="2.37698">
        <ele>120</ele>
        <time>2021-08-26T14:31:44Z</time>
      </trkpt>
      <trkpt lat="47.09247" lon="2.37698">
        <ele>120</ele>
        <time>2021-08-26T14:31:44Z</time>
      </trkpt>
      <trkpt lat="47.0924" lon="2.37698">
        <ele>121</ele>
        <time>2021-08-26T14:31:44Z</time>
      </trkpt>
      <trkpt lat="47.09234" lon="2.37698">
        <ele>121</ele>
        <time>2021-08-26T14:31:44Z</time>
      </trkpt>
      <trkpt lat="47.09228" lon="2.37698">
        <ele>121</ele>
        <time>2021-08-26T14:31:44Z</time>
      </trkpt>
      <trkpt lat="47.09222" lon="2.37698">
        <ele>122</ele>
        <time>2021-08-26T14:31:44Z</time>
      </trkpt>
      <trkpt lat="47.09214" lon="2.37698">
        <ele>122</ele>
        <time>2021-08-26T14:31:44Z</time>
      </trkpt>
      <trkpt lat="47.09207" lon="2.37698">
        <ele>122</ele>
        <time>2021-08-26T14:31:44Z</time>
      </trkpt>
      <trkpt lat="47.09201" lon="2.37698">
        <ele>122</ele>
        <time>2021-08-26T14:31:44Z</time>
      </trkpt>
      <trkpt lat="47.09194" lon="2.37699">
        <ele>123</ele>
        <time>2021-08-26T14:31:44Z</time>
      </trkpt>
      <trkpt lat="47.09189" lon="2.37699">
        <ele>123</ele>
        <time>2021-08-26T14:31:44Z</time>
      </trkpt>
      <trkpt lat="47.09182" lon="2.37699">
        <ele>123</ele>
        <time>2021-08-26T14:31:44Z</time>
      </trkpt>
      <trkpt lat="47.09176" lon="2.37699">
        <ele>123</ele>
        <time>2021-08-26T14:31:44Z</time>
      </trkpt>
      <trkpt lat="47.0917" lon="2.37698">
        <ele>123</ele>
        <time>2021-08-26T14:31:44Z</time>
      </trkpt>
      <trkpt lat="47.09164" lon="2.37699">
        <ele>123</ele>
        <time>2021-08-26T14:31:44Z</time>
      </trkpt>
      <trkpt lat="47.09157" lon="2.377">
        <ele>123</ele>
        <time>2021-08-26T14:31:44Z</time>
      </trkpt>
      <trkpt lat="47.0915" lon="2.377">
        <ele>123</ele>
        <time>2021-08-26T14:31:44Z</time>
      </trkpt>
      <trkpt lat="47.09144" lon="2.37699">
        <ele>123</ele>
        <time>2021-08-26T14:31:44Z</time>
      </trkpt>
      <trkpt lat="47.09138" lon="2.37699">
        <ele>124</ele>
        <time>2021-08-26T14:31:44Z</time>
      </trkpt>
      <trkpt lat="47.0913" lon="2.377">
        <ele>124</ele>
        <time>2021-08-26T14:31:44Z</time>
      </trkpt>
      <trkpt lat="47.09124" lon="2.377">
        <ele>124</ele>
        <time>2021-08-26T14:31:44Z</time>
      </trkpt>
      <trkpt lat="47.09118" lon="2.377">
        <ele>124</ele>
        <time>2021-08-26T14:31:44Z</time>
      </trkpt>
      <trkpt lat="47.09111" lon="2.377">
        <ele>125</ele>
        <time>2021-08-26T14:31:44Z</time>
      </trkpt>
      <trkpt lat="47.09105" lon="2.377">
        <ele>125</ele>
        <time>2021-08-26T14:31:44Z</time>
      </trkpt>
      <trkpt lat="47.09098" lon="2.377">
        <ele>125</ele>
        <time>2021-08-26T14:31:44Z</time>
      </trkpt>
      <trkpt lat="47.09091" lon="2.37701">
        <ele>125</ele>
        <time>2021-08-26T14:31:44Z</time>
      </trkpt>
      <trkpt lat="47.09085" lon="2.37702">
        <ele>125</ele>
        <time>2021-08-26T14:31:44Z</time>
      </trkpt>
      <trkpt lat="47.09079" lon="2.37702">
        <ele>126</ele>
        <time>2021-08-26T14:31:44Z</time>
      </trkpt>
      <trkpt lat="47.09049" lon="2.37703">
        <ele>126</ele>
        <time>2021-08-26T14:31:44Z</time>
      </trkpt>
      <trkpt lat="47.09015" lon="2.37703">
        <ele>126</ele>
        <time>2021-08-26T14:31:44Z</time>
      </trkpt>
      <trkpt lat="47.08982" lon="2.37703">
        <ele>126</ele>
        <time>2021-08-26T14:31:44Z</time>
      </trkpt>
      <trkpt lat="47.08948" lon="2.37704">
        <ele>126</ele>
        <time>2021-08-26T14:31:44Z</time>
      </trkpt>
      <trkpt lat="47.08915" lon="2.37703">
        <ele>125</ele>
        <time>2021-08-26T14:31:44Z</time>
      </trkpt>
      <trkpt lat="47.08889" lon="2.37702">
        <ele>124</ele>
        <time>2021-08-26T14:31:44Z</time>
      </trkpt>
      <trkpt lat="47.08882" lon="2.37702">
        <ele>124</ele>
        <time>2021-08-26T14:31:44Z</time>
      </trkpt>
      <trkpt lat="47.0885" lon="2.37703">
        <ele>123</ele>
        <time>2021-08-26T14:31:44Z</time>
      </trkpt>
      <trkpt lat="47.08818" lon="2.37705">
        <ele>123</ele>
        <time>2021-08-26T14:31:44Z</time>
      </trkpt>
      <trkpt lat="47.08787" lon="2.37706">
        <ele>123</ele>
        <time>2021-08-26T14:31:44Z</time>
      </trkpt>
      <trkpt lat="47.08756" lon="2.37703">
        <ele>123</ele>
        <time>2021-08-26T14:31:44Z</time>
      </trkpt>
      <trkpt lat="47.08724" lon="2.37702">
        <ele>125</ele>
        <time>2021-08-26T14:31:44Z</time>
      </trkpt>
      <trkpt lat="47.08697" lon="2.37701">
        <ele>125</ele>
        <time>2021-08-26T14:31:44Z</time>
      </trkpt>
      <trkpt lat="47.08691" lon="2.37702">
        <ele>125</ele>
        <time>2021-08-26T14:31:44Z</time>
      </trkpt>
      <trkpt lat="47.08684" lon="2.37703">
        <ele>124</ele>
        <time>2021-08-26T14:31:44Z</time>
      </trkpt>
      <trkpt lat="47.08677" lon="2.37703">
        <ele>124</ele>
        <time>2021-08-26T14:31:44Z</time>
      </trkpt>
      <trkpt lat="47.08671" lon="2.37703">
        <ele>124</ele>
        <time>2021-08-26T14:31:44Z</time>
      </trkpt>
      <trkpt lat="47.08664" lon="2.37703">
        <ele>123</ele>
        <time>2021-08-26T14:31:44Z</time>
      </trkpt>
      <trkpt lat="47.08658" lon="2.37703">
        <ele>123</ele>
        <time>2021-08-26T14:31:44Z</time>
      </trkpt>
      <trkpt lat="47.08651" lon="2.37704">
        <ele>123</ele>
        <time>2021-08-26T14:31:44Z</time>
      </trkpt>
      <trkpt lat="47.08645" lon="2.37704">
        <ele>123</ele>
        <time>2021-08-26T14:31:44Z</time>
      </trkpt>
      <trkpt lat="47.08639" lon="2.37705">
        <ele>123</ele>
        <time>2021-08-26T14:31:44Z</time>
      </trkpt>
      <trkpt lat="47.08633" lon="2.37705">
        <ele>123</ele>
        <time>2021-08-26T14:31:44Z</time>
      </trkpt>
      <trkpt lat="47.08627" lon="2.37706">
        <ele>123</ele>
        <time>2021-08-26T14:31:44Z</time>
      </trkpt>
      <trkpt lat="47.0862" lon="2.37706">
        <ele>123</ele>
        <time>2021-08-26T14:31:44Z</time>
      </trkpt>
      <trkpt lat="47.08614" lon="2.37706">
        <ele>123</ele>
        <time>2021-08-26T14:31:44Z</time>
      </trkpt>
      <trkpt lat="47.08607" lon="2.37706">
        <ele>124</ele>
        <time>2021-08-26T14:31:44Z</time>
      </trkpt>
      <trkpt lat="47.086" lon="2.37706">
        <ele>124</ele>
        <time>2021-08-26T14:31:44Z</time>
      </trkpt>
      <trkpt lat="47.08594" lon="2.37705">
        <ele>124</ele>
        <time>2021-08-26T14:31:44Z</time>
      </trkpt>
      <trkpt lat="47.08587" lon="2.37704">
        <ele>124</ele>
        <time>2021-08-26T14:31:44Z</time>
      </trkpt>
      <trkpt lat="47.08581" lon="2.37703">
        <ele>124</ele>
        <time>2021-08-26T14:31:44Z</time>
      </trkpt>
      <trkpt lat="47.08574" lon="2.37702">
        <ele>125</ele>
        <time>2021-08-26T14:31:44Z</time>
      </trkpt>
      <trkpt lat="47.08568" lon="2.37701">
        <ele>125</ele>
        <time>2021-08-26T14:31:44Z</time>
      </trkpt>
      <trkpt lat="47.08562" lon="2.37699">
        <ele>126</ele>
        <time>2021-08-26T14:31:44Z</time>
      </trkpt>
      <trkpt lat="47.0855" lon="2.37695">
        <ele>127</ele>
        <time>2021-08-26T14:31:44Z</time>
      </trkpt>
      <trkpt lat="47.08545" lon="2.37691">
        <ele>128</ele>
        <time>2021-08-26T14:31:44Z</time>
      </trkpt>
      <trkpt lat="47.08533" lon="2.37685">
        <ele>129</ele>
        <time>2021-08-26T14:31:44Z</time>
      </trkpt>
      <trkpt lat="47.08528" lon="2.37681">
        <ele>130</ele>
        <time>2021-08-26T14:31:44Z</time>
      </trkpt>
      <trkpt lat="47.08523" lon="2.37678">
        <ele>130</ele>
        <time>2021-08-26T14:31:44Z</time>
      </trkpt>
      <trkpt lat="47.08517" lon="2.37672">
        <ele>130</ele>
        <time>2021-08-26T14:31:44Z</time>
      </trkpt>
      <trkpt lat="47.08513" lon="2.37668">
        <ele>130</ele>
        <time>2021-08-26T14:31:44Z</time>
      </trkpt>
      <trkpt lat="47.08504" lon="2.37659">
        <ele>131</ele>
        <time>2021-08-26T14:31:44Z</time>
      </trkpt>
      <trkpt lat="47.08498" lon="2.37655">
        <ele>130</ele>
        <time>2021-08-26T14:31:44Z</time>
      </trkpt>
      <trkpt lat="47.08494" lon="2.37649">
        <ele>130</ele>
        <time>2021-08-26T14:31:44Z</time>
      </trkpt>
      <trkpt lat="47.08485" lon="2.37637">
        <ele>129</ele>
        <time>2021-08-26T14:31:44Z</time>
      </trkpt>
      <trkpt lat="47.0848" lon="2.3763">
        <ele>128</ele>
        <time>2021-08-26T14:31:44Z</time>
      </trkpt>
      <trkpt lat="47.08475" lon="2.37623">
        <ele>128</ele>
        <time>2021-08-26T14:31:44Z</time>
      </trkpt>
      <trkpt lat="47.0847" lon="2.37615">
        <ele>127</ele>
        <time>2021-08-26T14:31:44Z</time>
      </trkpt>
      <trkpt lat="47.08465" lon="2.37609">
        <ele>127</ele>
        <time>2021-08-26T14:31:44Z</time>
      </trkpt>
      <trkpt lat="47.08461" lon="2.37602">
        <ele>127</ele>
        <time>2021-08-26T14:31:44Z</time>
      </trkpt>
      <trkpt lat="47.08455" lon="2.37589">
        <ele>127</ele>
        <time>2021-08-26T14:31:44Z</time>
      </trkpt>
      <trkpt lat="47.08452" lon="2.37583">
        <ele>127</ele>
        <time>2021-08-26T14:31:44Z</time>
      </trkpt>
      <trkpt lat="47.08449" lon="2.37576">
        <ele>128</ele>
        <time>2021-08-26T14:31:44Z</time>
      </trkpt>
      <trkpt lat="47.08446" lon="2.3757">
        <ele>128</ele>
        <time>2021-08-26T14:31:44Z</time>
      </trkpt>
      <trkpt lat="47.08445" lon="2.37565">
        <ele>129</ele>
        <time>2021-08-26T14:31:44Z</time>
      </trkpt>
      <trkpt lat="47.08442" lon="2.37556">
        <ele>130</ele>
        <time>2021-08-26T14:31:44Z</time>
      </trkpt>
      <trkpt lat="47.08439" lon="2.37555">
        <ele>130</ele>
        <time>2021-08-26T14:31:44Z</time>
      </trkpt>
      <trkpt lat="47.08437" lon="2.37553">
        <ele>130</ele>
        <time>2021-08-26T14:31:44Z</time>
      </trkpt>
      <trkpt lat="47.08436" lon="2.3755">
        <ele>130</ele>
        <time>2021-08-26T14:31:44Z</time>
      </trkpt>
      <trkpt lat="47.08436" lon="2.37546">
        <ele>131</ele>
        <time>2021-08-26T14:31:44Z</time>
      </trkpt>
      <trkpt lat="47.08436" lon="2.37542">
        <ele>131</ele>
        <time>2021-08-26T14:31:44Z</time>
      </trkpt>
      <trkpt lat="47.08435" lon="2.37538">
        <ele>131</ele>
        <time>2021-08-26T14:31:44Z</time>
      </trkpt>
      <trkpt lat="47.08433" lon="2.37535">
        <ele>132</ele>
        <time>2021-08-26T14:31:44Z</time>
      </trkpt>
      <trkpt lat="47.0843" lon="2.37532">
        <ele>132</ele>
        <time>2021-08-26T14:31:44Z</time>
      </trkpt>
      <trkpt lat="47.08428" lon="2.37528">
        <ele>133</ele>
        <time>2021-08-26T14:31:44Z</time>
      </trkpt>
      <trkpt lat="47.08422" lon="2.37491">
        <ele>135</ele>
        <time>2021-08-26T14:31:44Z</time>
      </trkpt>
      <trkpt lat="47.08415" lon="2.37452">
        <ele>134</ele>
        <time>2021-08-26T14:31:44Z</time>
      </trkpt>
      <trkpt lat="47.08409" lon="2.37412">
        <ele>134</ele>
        <time>2021-08-26T14:31:44Z</time>
      </trkpt>
      <trkpt lat="47.08403" lon="2.37365">
        <ele>134</ele>
        <time>2021-08-26T14:31:44Z</time>
      </trkpt>
      <trkpt lat="47.08395" lon="2.37323">
        <ele>133</ele>
        <time>2021-08-26T14:31:44Z</time>
      </trkpt>
      <trkpt lat="47.0839" lon="2.3729">
        <ele>133</ele>
        <time>2021-08-26T14:31:44Z</time>
      </trkpt>
      <trkpt lat="47.08389" lon="2.37282">
        <ele>133</ele>
        <time>2021-08-26T14:31:44Z</time>
      </trkpt>
      <trkpt lat="47.08384" lon="2.37241">
        <ele>132</ele>
        <time>2021-08-26T14:31:44Z</time>
      </trkpt>
      <trkpt lat="47.08378" lon="2.372">
        <ele>132</ele>
        <time>2021-08-26T14:31:44Z</time>
      </trkpt>
      <trkpt lat="47.08372" lon="2.37159">
        <ele>133</ele>
        <time>2021-08-26T14:31:44Z</time>
      </trkpt>
      <trkpt lat="47.08366" lon="2.3712">
        <ele>133</ele>
        <time>2021-08-26T14:31:44Z</time>
      </trkpt>
      <trkpt lat="47.08359" lon="2.37079">
        <ele>135</ele>
        <time>2021-08-26T14:31:44Z</time>
      </trkpt>
      <trkpt lat="47.08357" lon="2.37046">
        <ele>136</ele>
        <time>2021-08-26T14:31:44Z</time>
      </trkpt>
      <trkpt lat="47.08357" lon="2.37037">
        <ele>136</ele>
        <time>2021-08-26T14:31:44Z</time>
      </trkpt>
      <trkpt lat="47.08348" lon="2.36995">
        <ele>137</ele>
        <time>2021-08-26T14:31:44Z</time>
      </trkpt>
      <trkpt lat="47.08337" lon="2.36958">
        <ele>138</ele>
        <time>2021-08-26T14:31:44Z</time>
      </trkpt>
      <trkpt lat="47.08325" lon="2.36928">
        <ele>137</ele>
        <time>2021-08-26T14:31:44Z</time>
      </trkpt>
      <trkpt lat="47.08316" lon="2.36912">
        <ele>137</ele>
        <time>2021-08-26T14:31:44Z</time>
      </trkpt>
      <trkpt lat="47.08307" lon="2.36896">
        <ele>137</ele>
        <time>2021-08-26T14:31:44Z</time>
      </trkpt>
      <trkpt lat="47.08299" lon="2.36878">
        <ele>137</ele>
        <time>2021-08-26T14:31:44Z</time>
      </trkpt>
      <trkpt lat="47.08295" lon="2.36874">
        <ele>137</ele>
        <time>2021-08-26T14:31:44Z</time>
      </trkpt>
      <trkpt lat="47.08277" lon="2.36848">
        <ele>139</ele>
        <time>2021-08-26T14:31:44Z</time>
      </trkpt>
      <trkpt lat="47.08254" lon="2.36825">
        <ele>140</ele>
        <time>2021-08-26T14:31:44Z</time>
      </trkpt>
      <trkpt lat="47.08229" lon="2.36806">
        <ele>141</ele>
        <time>2021-08-26T14:31:44Z</time>
      </trkpt>
      <trkpt lat="47.08204" lon="2.36792">
        <ele>142</ele>
        <time>2021-08-26T14:31:44Z</time>
      </trkpt>
      <trkpt lat="47.08184" lon="2.36778">
        <ele>143</ele>
        <time>2021-08-26T14:31:44Z</time>
      </trkpt>
      <trkpt lat="47.08176" lon="2.36775">
        <ele>142</ele>
        <time>2021-08-26T14:31:44Z</time>
      </trkpt>
      <trkpt lat="47.08175" lon="2.36776">
        <ele>142</ele>
        <time>2021-08-26T14:31:44Z</time>
      </trkpt>
      <trkpt lat="47.08175" lon="2.36777">
        <ele>142</ele>
        <time>2021-08-26T14:31:44Z</time>
      </trkpt>
      <trkpt lat="47.08174" lon="2.36777">
        <ele>142</ele>
        <time>2021-08-26T14:31:44Z</time>
      </trkpt>
      <trkpt lat="47.08174" lon="2.36778">
        <ele>142</ele>
        <time>2021-08-26T14:31:44Z</time>
      </trkpt>
      <trkpt lat="47.08174" lon="2.36778">
        <ele>142</ele>
        <time>2021-08-26T14:31:44Z</time>
      </trkpt>
      <trkpt lat="47.08174" lon="2.36778">
        <ele>142</ele>
        <time>2021-08-26T14:31:44Z</time>
      </trkpt>
      <trkpt lat="47.08173" lon="2.36778">
        <ele>142</ele>
        <time>2021-08-26T14:31:44Z</time>
      </trkpt>
      <trkpt lat="47.08171" lon="2.36778">
        <ele>143</ele>
        <time>2021-08-26T14:31:44Z</time>
      </trkpt>
      <trkpt lat="47.08168" lon="2.36778">
        <ele>143</ele>
        <time>2021-08-26T14:31:44Z</time>
      </trkpt>
      <trkpt lat="47.08165" lon="2.36776">
        <ele>142</ele>
        <time>2021-08-26T14:31:44Z</time>
      </trkpt>
      <trkpt lat="47.08163" lon="2.36773">
        <ele>142</ele>
        <time>2021-08-26T14:31:44Z</time>
      </trkpt>
      <trkpt lat="47.08144" lon="2.36758">
        <ele>141</ele>
        <time>2021-08-26T14:31:44Z</time>
      </trkpt>
      <trkpt lat="47.08126" lon="2.36755">
        <ele>141</ele>
        <time>2021-08-26T14:31:44Z</time>
      </trkpt>
      <trkpt lat="47.08112" lon="2.36747">
        <ele>141</ele>
        <time>2021-08-26T14:31:44Z</time>
      </trkpt>
      <trkpt lat="47.08107" lon="2.36743">
        <ele>141</ele>
        <time>2021-08-26T14:31:44Z</time>
      </trkpt>
      <trkpt lat="47.08102" lon="2.3674">
        <ele>141</ele>
        <time>2021-08-26T14:31:44Z</time>
      </trkpt>
      <trkpt lat="47.08097" lon="2.36738">
        <ele>141</ele>
        <time>2021-08-26T14:31:44Z</time>
      </trkpt>
      <trkpt lat="47.08092" lon="2.36735">
        <ele>141</ele>
        <time>2021-08-26T14:31:44Z</time>
      </trkpt>
      <trkpt lat="47.08086" lon="2.36731">
        <ele>141</ele>
        <time>2021-08-26T14:31:44Z</time>
      </trkpt>
      <trkpt lat="47.08081" lon="2.36728">
        <ele>141</ele>
        <time>2021-08-26T14:31:44Z</time>
      </trkpt>
      <trkpt lat="47.08054" lon="2.36714">
        <ele>141</ele>
        <time>2021-08-26T14:31:44Z</time>
      </trkpt>
      <trkpt lat="47.08027" lon="2.36699">
        <ele>143</ele>
        <time>2021-08-26T14:31:44Z</time>
      </trkpt>
      <trkpt lat="47.08001" lon="2.36686">
        <ele>145</ele>
        <time>2021-08-26T14:31:44Z</time>
      </trkpt>
      <trkpt lat="47.07975" lon="2.36673">
        <ele>147</ele>
        <time>2021-08-26T14:31:44Z</time>
      </trkpt>
      <trkpt lat="47.07949" lon="2.3666">
        <ele>148</ele>
        <time>2021-08-26T14:31:44Z</time>
      </trkpt>
      <trkpt lat="47.07929" lon="2.36649">
        <ele>148</ele>
        <time>2021-08-26T14:31:44Z</time>
      </trkpt>
      <trkpt lat="47.07924" lon="2.36647">
        <ele>148</ele>
        <time>2021-08-26T14:31:44Z</time>
      </trkpt>
      <trkpt lat="47.07897" lon="2.36632">
        <ele>149</ele>
        <time>2021-08-26T14:31:44Z</time>
      </trkpt>
      <trkpt lat="47.0787" lon="2.36618">
        <ele>148</ele>
        <time>2021-08-26T14:31:44Z</time>
      </trkpt>
      <trkpt lat="47.07841" lon="2.36605">
        <ele>149</ele>
        <time>2021-08-26T14:31:44Z</time>
      </trkpt>
      <trkpt lat="47.07813" lon="2.3659">
        <ele>149</ele>
        <time>2021-08-26T14:31:44Z</time>
      </trkpt>
      <trkpt lat="47.07786" lon="2.36577">
        <ele>148</ele>
        <time>2021-08-26T14:31:44Z</time>
      </trkpt>
      <trkpt lat="47.07764" lon="2.36565">
        <ele>149</ele>
        <time>2021-08-26T14:31:44Z</time>
      </trkpt>
      <trkpt lat="47.07759" lon="2.36562">
        <ele>149</ele>
        <time>2021-08-26T14:31:44Z</time>
      </trkpt>
      <trkpt lat="47.07732" lon="2.36548">
        <ele>148</ele>
        <time>2021-08-26T14:31:44Z</time>
      </trkpt>
      <trkpt lat="47.07704" lon="2.36534">
        <ele>148</ele>
        <time>2021-08-26T14:31:44Z</time>
      </trkpt>
      <trkpt lat="47.07676" lon="2.36526">
        <ele>148</ele>
        <time>2021-08-26T14:31:44Z</time>
      </trkpt>
      <trkpt lat="47.07648" lon="2.36523">
        <ele>148</ele>
        <time>2021-08-26T14:31:44Z</time>
      </trkpt>
      <trkpt lat="47.07622" lon="2.36522">
        <ele>149</ele>
        <time>2021-08-26T14:31:44Z</time>
      </trkpt>
      <trkpt lat="47.07604" lon="2.36525">
        <ele>150</ele>
        <time>2021-08-26T14:31:44Z</time>
      </trkpt>
      <trkpt lat="47.07601" lon="2.36525">
        <ele>150</ele>
        <time>2021-08-26T14:31:44Z</time>
      </trkpt>
      <trkpt lat="47.07591" lon="2.36528">
        <ele>151</ele>
        <time>2021-08-26T14:31:44Z</time>
      </trkpt>
      <trkpt lat="47.0758" lon="2.36531">
        <ele>152</ele>
        <time>2021-08-26T14:31:44Z</time>
      </trkpt>
      <trkpt lat="47.07557" lon="2.36534">
        <ele>152</ele>
        <time>2021-08-26T14:31:44Z</time>
      </trkpt>
      <trkpt lat="47.07531" lon="2.36544">
        <ele>153</ele>
        <time>2021-08-26T14:31:44Z</time>
      </trkpt>
      <trkpt lat="47.07505" lon="2.36556">
        <ele>155</ele>
        <time>2021-08-26T14:31:44Z</time>
      </trkpt>
      <trkpt lat="47.07488" lon="2.36567">
        <ele>155</ele>
        <time>2021-08-26T14:31:44Z</time>
      </trkpt>
      <trkpt lat="47.07484" lon="2.3657">
        <ele>155</ele>
        <time>2021-08-26T14:31:44Z</time>
      </trkpt>
      <trkpt lat="47.07478" lon="2.36574">
        <ele>155</ele>
        <time>2021-08-26T14:31:44Z</time>
      </trkpt>
      <trkpt lat="47.07478" lon="2.36574">
        <ele>155</ele>
        <time>2021-08-26T14:31:44Z</time>
      </trkpt>
      <trkpt lat="47.07478" lon="2.36574">
        <ele>155</ele>
        <time>2021-08-26T14:31:44Z</time>
      </trkpt>
      <trkpt lat="47.07478" lon="2.36574">
        <ele>155</ele>
        <time>2021-08-26T14:31:44Z</time>
      </trkpt>
      <trkpt lat="47.07478" lon="2.36574">
        <ele>155</ele>
        <time>2021-08-26T14:31:44Z</time>
      </trkpt>
      <trkpt lat="47.07478" lon="2.36573">
        <ele>155</ele>
        <time>2021-08-26T14:31:44Z</time>
      </trkpt>
      <trkpt lat="47.07478" lon="2.36573">
        <ele>155</ele>
        <time>2021-08-26T14:31:44Z</time>
      </trkpt>
      <trkpt lat="47.07478" lon="2.36573">
        <ele>155</ele>
        <time>2021-08-26T14:31:44Z</time>
      </trkpt>
      <trkpt lat="47.07478" lon="2.36573">
        <ele>155</ele>
        <time>2021-08-26T14:31:44Z</time>
      </trkpt>
      <trkpt lat="47.07478" lon="2.36573">
        <ele>155</ele>
        <time>2021-08-26T14:31:44Z</time>
      </trkpt>
      <trkpt lat="47.07478" lon="2.36573">
        <ele>155</ele>
        <time>2021-08-26T14:31:44Z</time>
      </trkpt>
      <trkpt lat="47.07477" lon="2.36574">
        <ele>155</ele>
        <time>2021-08-26T14:31:44Z</time>
      </trkpt>
      <trkpt lat="47.07477" lon="2.36576">
        <ele>155</ele>
        <time>2021-08-26T14:31:44Z</time>
      </trkpt>
      <trkpt lat="47.07476" lon="2.36579">
        <ele>155</ele>
        <time>2021-08-26T14:31:44Z</time>
      </trkpt>
      <trkpt lat="47.07474" lon="2.36582">
        <ele>155</ele>
        <time>2021-08-26T14:31:44Z</time>
      </trkpt>
      <trkpt lat="47.07453" lon="2.36599">
        <ele>153</ele>
        <time>2021-08-26T14:31:44Z</time>
      </trkpt>
      <trkpt lat="47.0743" lon="2.36624">
        <ele>153</ele>
        <time>2021-08-26T14:31:44Z</time>
      </trkpt>
      <trkpt lat="47.07407" lon="2.36651">
        <ele>155</ele>
        <time>2021-08-26T14:31:44Z</time>
      </trkpt>
      <trkpt lat="47.07384" lon="2.3668">
        <ele>156</ele>
        <time>2021-08-26T14:31:44Z</time>
      </trkpt>
      <trkpt lat="47.0736" lon="2.36708">
        <ele>155</ele>
        <time>2021-08-26T14:31:44Z</time>
      </trkpt>
      <trkpt lat="47.0734" lon="2.36732">
        <ele>155</ele>
        <time>2021-08-26T14:31:44Z</time>
      </trkpt>
      <trkpt lat="47.07336" lon="2.36738">
        <ele>155</ele>
        <time>2021-08-26T14:31:44Z</time>
      </trkpt>
      <trkpt lat="47.07331" lon="2.36743">
        <ele>155</ele>
        <time>2021-08-26T14:31:44Z</time>
      </trkpt>
      <trkpt lat="47.07326" lon="2.36749">
        <ele>155</ele>
        <time>2021-08-26T14:31:44Z</time>
      </trkpt>
      <trkpt lat="47.07321" lon="2.36754">
        <ele>155</ele>
        <time>2021-08-26T14:31:44Z</time>
      </trkpt>
      <trkpt lat="47.07316" lon="2.3676">
        <ele>155</ele>
        <time>2021-08-26T14:31:44Z</time>
      </trkpt>
      <trkpt lat="47.07311" lon="2.36766">
        <ele>155</ele>
        <time>2021-08-26T14:31:44Z</time>
      </trkpt>
      <trkpt lat="47.07306" lon="2.36772">
        <ele>155</ele>
        <time>2021-08-26T14:31:44Z</time>
      </trkpt>
      <trkpt lat="47.07301" lon="2.36778">
        <ele>155</ele>
        <time>2021-08-26T14:31:44Z</time>
      </trkpt>
      <trkpt lat="47.07296" lon="2.36784">
        <ele>155</ele>
        <time>2021-08-26T14:31:44Z</time>
      </trkpt>
      <trkpt lat="47.07291" lon="2.3679">
        <ele>155</ele>
        <time>2021-08-26T14:31:44Z</time>
      </trkpt>
      <trkpt lat="47.07286" lon="2.36796">
        <ele>155</ele>
        <time>2021-08-26T14:31:44Z</time>
      </trkpt>
      <trkpt lat="47.07281" lon="2.36803">
        <ele>155</ele>
        <time>2021-08-26T14:31:44Z</time>
      </trkpt>
      <trkpt lat="47.07276" lon="2.36809">
        <ele>155</ele>
        <time>2021-08-26T14:31:44Z</time>
      </trkpt>
      <trkpt lat="47.07271" lon="2.36816">
        <ele>155</ele>
        <time>2021-08-26T14:31:44Z</time>
      </trkpt>
      <trkpt lat="47.07266" lon="2.36822">
        <ele>155</ele>
        <time>2021-08-26T14:31:44Z</time>
      </trkpt>
      <trkpt lat="47.07261" lon="2.36828">
        <ele>155</ele>
        <time>2021-08-26T14:31:44Z</time>
      </trkpt>
      <trkpt lat="47.07255" lon="2.36834">
        <ele>155</ele>
        <time>2021-08-26T14:31:44Z</time>
      </trkpt>
      <trkpt lat="47.0725" lon="2.3684">
        <ele>155</ele>
        <time>2021-08-26T14:31:44Z</time>
      </trkpt>
      <trkpt lat="47.07244" lon="2.36846">
        <ele>155</ele>
        <time>2021-08-26T14:31:44Z</time>
      </trkpt>
      <trkpt lat="47.07239" lon="2.36853">
        <ele>155</ele>
        <time>2021-08-26T14:31:44Z</time>
      </trkpt>
      <trkpt lat="47.07233" lon="2.36859">
        <ele>155</ele>
        <time>2021-08-26T14:31:44Z</time>
      </trkpt>
      <trkpt lat="47.07228" lon="2.36866">
        <ele>155</ele>
        <time>2021-08-26T14:31:44Z</time>
      </trkpt>
      <trkpt lat="47.07222" lon="2.36872">
        <ele>155</ele>
        <time>2021-08-26T14:31:44Z</time>
      </trkpt>
      <trkpt lat="47.07216" lon="2.36878">
        <ele>155</ele>
        <time>2021-08-26T14:31:44Z</time>
      </trkpt>
      <trkpt lat="47.07211" lon="2.36884">
        <ele>155</ele>
        <time>2021-08-26T14:31:44Z</time>
      </trkpt>
      <trkpt lat="47.07206" lon="2.36889">
        <ele>155</ele>
        <time>2021-08-26T14:31:44Z</time>
      </trkpt>
      <trkpt lat="47.07201" lon="2.36895">
        <ele>155</ele>
        <time>2021-08-26T14:31:44Z</time>
      </trkpt>
      <trkpt lat="47.07196" lon="2.36901">
        <ele>155</ele>
        <time>2021-08-26T14:31:44Z</time>
      </trkpt>
      <trkpt lat="47.07191" lon="2.36907">
        <ele>154</ele>
        <time>2021-08-26T14:31:44Z</time>
      </trkpt>
      <trkpt lat="47.07186" lon="2.36912">
        <ele>154</ele>
        <time>2021-08-26T14:31:44Z</time>
      </trkpt>
      <trkpt lat="47.07182" lon="2.36918">
        <ele>154</ele>
        <time>2021-08-26T14:31:44Z</time>
      </trkpt>
      <trkpt lat="47.07178" lon="2.36923">
        <ele>154</ele>
        <time>2021-08-26T14:31:44Z</time>
      </trkpt>
      <trkpt lat="47.07173" lon="2.36928">
        <ele>154</ele>
        <time>2021-08-26T14:31:44Z</time>
      </trkpt>
      <trkpt lat="47.07171" lon="2.36931">
        <ele>154</ele>
        <time>2021-08-26T14:31:44Z</time>
      </trkpt>
      <trkpt lat="47.07169" lon="2.36933">
        <ele>154</ele>
        <time>2021-08-26T14:31:44Z</time>
      </trkpt>
      <trkpt lat="47.07166" lon="2.36934">
        <ele>154</ele>
        <time>2021-08-26T14:31:44Z</time>
      </trkpt>
      <trkpt lat="47.07164" lon="2.36937">
        <ele>154</ele>
        <time>2021-08-26T14:31:44Z</time>
      </trkpt>
      <trkpt lat="47.07162" lon="2.3694">
        <ele>154</ele>
        <time>2021-08-26T14:31:44Z</time>
      </trkpt>
      <trkpt lat="47.07159" lon="2.36944">
        <ele>154</ele>
        <time>2021-08-26T14:31:44Z</time>
      </trkpt>
      <trkpt lat="47.07155" lon="2.36948">
        <ele>154</ele>
        <time>2021-08-26T14:31:44Z</time>
      </trkpt>
      <trkpt lat="47.07151" lon="2.36951">
        <ele>154</ele>
        <time>2021-08-26T14:31:44Z</time>
      </trkpt>
      <trkpt lat="47.07147" lon="2.36956">
        <ele>154</ele>
        <time>2021-08-26T14:31:44Z</time>
      </trkpt>
      <trkpt lat="47.07142" lon="2.36961">
        <ele>154</ele>
        <time>2021-08-26T14:31:44Z</time>
      </trkpt>
      <trkpt lat="47.07138" lon="2.36967">
        <ele>154</ele>
        <time>2021-08-26T14:31:44Z</time>
      </trkpt>
      <trkpt lat="47.07133" lon="2.36972">
        <ele>154</ele>
        <time>2021-08-26T14:31:44Z</time>
      </trkpt>
      <trkpt lat="47.07129" lon="2.36978">
        <ele>154</ele>
        <time>2021-08-26T14:31:44Z</time>
      </trkpt>
      <trkpt lat="47.07124" lon="2.36984">
        <ele>154</ele>
        <time>2021-08-26T14:31:44Z</time>
      </trkpt>
      <trkpt lat="47.07119" lon="2.3699">
        <ele>154</ele>
        <time>2021-08-26T14:31:44Z</time>
      </trkpt>
      <trkpt lat="47.07114" lon="2.36996">
        <ele>154</ele>
        <time>2021-08-26T14:31:44Z</time>
      </trkpt>
      <trkpt lat="47.07109" lon="2.37002">
        <ele>155</ele>
        <time>2021-08-26T14:31:44Z</time>
      </trkpt>
      <trkpt lat="47.07104" lon="2.37007">
        <ele>154</ele>
        <time>2021-08-26T14:31:44Z</time>
      </trkpt>
      <trkpt lat="47.071" lon="2.37013">
        <ele>154</ele>
        <time>2021-08-26T14:31:44Z</time>
      </trkpt>
      <trkpt lat="47.07095" lon="2.37019">
        <ele>154</ele>
        <time>2021-08-26T14:31:44Z</time>
      </trkpt>
      <trkpt lat="47.0709" lon="2.37025">
        <ele>154</ele>
        <time>2021-08-26T14:31:44Z</time>
      </trkpt>
      <trkpt lat="47.07084" lon="2.3703">
        <ele>153</ele>
        <time>2021-08-26T14:31:44Z</time>
      </trkpt>
      <trkpt lat="47.07079" lon="2.37036">
        <ele>153</ele>
        <time>2021-08-26T14:31:44Z</time>
      </trkpt>
      <trkpt lat="47.07074" lon="2.37042">
        <ele>153</ele>
        <time>2021-08-26T14:31:44Z</time>
      </trkpt>
      <trkpt lat="47.0707" lon="2.37048">
        <ele>153</ele>
        <time>2021-08-26T14:31:44Z</time>
      </trkpt>
      <trkpt lat="47.07065" lon="2.37054">
        <ele>153</ele>
        <time>2021-08-26T14:31:44Z</time>
      </trkpt>
      <trkpt lat="47.0706" lon="2.3706">
        <ele>152</ele>
        <time>2021-08-26T14:31:44Z</time>
      </trkpt>
      <trkpt lat="47.07055" lon="2.37065">
        <ele>153</ele>
        <time>2021-08-26T14:31:44Z</time>
      </trkpt>
      <trkpt lat="47.0705" lon="2.37071">
        <ele>153</ele>
        <time>2021-08-26T14:31:44Z</time>
      </trkpt>
      <trkpt lat="47.07024" lon="2.37101">
        <ele>152</ele>
        <time>2021-08-26T14:31:44Z</time>
      </trkpt>
      <trkpt lat="47.06999" lon="2.3713">
        <ele>151</ele>
        <time>2021-08-26T14:31:44Z</time>
      </trkpt>
      <trkpt lat="47.06973" lon="2.37161">
        <ele>153</ele>
        <time>2021-08-26T14:31:44Z</time>
      </trkpt>
      <trkpt lat="47.06947" lon="2.37191">
        <ele>153</ele>
        <time>2021-08-26T14:31:44Z</time>
      </trkpt>
      <trkpt lat="47.0692" lon="2.37223">
        <ele>153</ele>
        <time>2021-08-26T14:31:44Z</time>
      </trkpt>
      <trkpt lat="47.06898" lon="2.37247">
        <ele>152</ele>
        <time>2021-08-26T14:31:44Z</time>
      </trkpt>
      <trkpt lat="47.06893" lon="2.37253">
        <ele>152</ele>
        <time>2021-08-26T14:31:44Z</time>
      </trkpt>
      <trkpt lat="47.0687" lon="2.37282">
        <ele>153</ele>
        <time>2021-08-26T14:31:44Z</time>
      </trkpt>
      <trkpt lat="47.06865" lon="2.37287">
        <ele>154</ele>
        <time>2021-08-26T14:31:44Z</time>
      </trkpt>
      <trkpt lat="47.06861" lon="2.37292">
        <ele>154</ele>
        <time>2021-08-26T14:31:44Z</time>
      </trkpt>
      <trkpt lat="47.06857" lon="2.37296">
        <ele>154</ele>
        <time>2021-08-26T14:31:44Z</time>
      </trkpt>
      <trkpt lat="47.06854" lon="2.37301">
        <ele>155</ele>
        <time>2021-08-26T14:31:44Z</time>
      </trkpt>
      <trkpt lat="47.0685" lon="2.37305">
        <ele>155</ele>
        <time>2021-08-26T14:31:44Z</time>
      </trkpt>
      <trkpt lat="47.06847" lon="2.3731">
        <ele>155</ele>
        <time>2021-08-26T14:31:44Z</time>
      </trkpt>
      <trkpt lat="47.06844" lon="2.37314">
        <ele>155</ele>
        <time>2021-08-26T14:31:44Z</time>
      </trkpt>
      <trkpt lat="47.06842" lon="2.37318">
        <ele>155</ele>
        <time>2021-08-26T14:31:44Z</time>
      </trkpt>
      <trkpt lat="47.06836" lon="2.37327">
        <ele>155</ele>
        <time>2021-08-26T14:31:44Z</time>
      </trkpt>
      <trkpt lat="47.06847" lon="2.37351">
        <ele>156</ele>
        <time>2021-08-26T14:31:44Z</time>
      </trkpt>
      <trkpt lat="47.06861" lon="2.37383">
        <ele>156</ele>
        <time>2021-08-26T14:31:44Z</time>
      </trkpt>
      <trkpt lat="47.06875" lon="2.37414">
        <ele>155</ele>
        <time>2021-08-26T14:31:44Z</time>
      </trkpt>
      <trkpt lat="47.06884" lon="2.37432">
        <ele>154</ele>
        <time>2021-08-26T14:31:44Z</time>
      </trkpt>
      <trkpt lat="47.06897" lon="2.37456">
        <ele>153</ele>
        <time>2021-08-26T14:31:44Z</time>
      </trkpt>
      <trkpt lat="47.069" lon="2.37463">
        <ele>153</ele>
        <time>2021-08-26T14:31:44Z</time>
      </trkpt>
      <trkpt lat="47.06903" lon="2.37469">
        <ele>153</ele>
        <time>2021-08-26T14:31:44Z</time>
      </trkpt>
      <trkpt lat="47.06905" lon="2.37475">
        <ele>153</ele>
        <time>2021-08-26T14:31:44Z</time>
      </trkpt>
      <trkpt lat="47.06906" lon="2.37481">
        <ele>153</ele>
        <time>2021-08-26T14:31:44Z</time>
      </trkpt>
      <trkpt lat="47.06908" lon="2.37487">
        <ele>153</ele>
        <time>2021-08-26T14:31:44Z</time>
      </trkpt>
      <trkpt lat="47.06911" lon="2.37493">
        <ele>153</ele>
        <time>2021-08-26T14:31:44Z</time>
      </trkpt>
      <trkpt lat="47.06914" lon="2.37498">
        <ele>153</ele>
        <time>2021-08-26T14:31:44Z</time>
      </trkpt>
      <trkpt lat="47.06917" lon="2.37503">
        <ele>152</ele>
        <time>2021-08-26T14:31:44Z</time>
      </trkpt>
      <trkpt lat="47.06921" lon="2.37508">
        <ele>152</ele>
        <time>2021-08-26T14:31:44Z</time>
      </trkpt>
      <trkpt lat="47.06935" lon="2.37532">
        <ele>152</ele>
        <time>2021-08-26T14:31:44Z</time>
      </trkpt>
      <trkpt lat="47.06928" lon="2.37532">
        <ele>152</ele>
        <time>2021-08-26T14:31:44Z</time>
      </trkpt>
      <trkpt lat="47.06914" lon="2.37515">
        <ele>153</ele>
        <time>2021-08-26T14:31:44Z</time>
      </trkpt>
      <trkpt lat="47.06907" lon="2.37536">
        <ele>153</ele>
        <time>2021-08-26T14:31:44Z</time>
      </trkpt>
      <trkpt lat="47.0691" lon="2.37578">
        <ele>153</ele>
        <time>2021-08-26T14:31:44Z</time>
      </trkpt>
      <trkpt lat="47.06898" lon="2.37598">
        <ele>153</ele>
        <time>2021-08-26T14:31:44Z</time>
      </trkpt>
      <trkpt lat="47.06893" lon="2.37602">
        <ele>153</ele>
        <time>2021-08-26T14:31:44Z</time>
      </trkpt>
      <trkpt lat="47.06887" lon="2.37606">
        <ele>154</ele>
        <time>2021-08-26T14:31:44Z</time>
      </trkpt>
      <trkpt lat="47.0688" lon="2.37609">
        <ele>154</ele>
        <time>2021-08-26T14:31:44Z</time>
      </trkpt>
      <trkpt lat="47.06876" lon="2.37613">
        <ele>154</ele>
        <time>2021-08-26T14:31:44Z</time>
      </trkpt>
      <trkpt lat="47.06872" lon="2.37617">
        <ele>154</ele>
        <time>2021-08-26T14:31:44Z</time>
      </trkpt>
      <trkpt lat="47.06868" lon="2.37622">
        <ele>154</ele>
        <time>2021-08-26T14:31:44Z</time>
      </trkpt>
      <trkpt lat="47.06864" lon="2.37626">
        <ele>154</ele>
        <time>2021-08-26T14:31:44Z</time>
      </trkpt>
      <trkpt lat="47.0686" lon="2.37629">
        <ele>154</ele>
        <time>2021-08-26T14:31:44Z</time>
      </trkpt>
      <trkpt lat="47.06856" lon="2.37631">
        <ele>154</ele>
        <time>2021-08-26T14:31:44Z</time>
      </trkpt>
      <trkpt lat="47.06853" lon="2.37636">
        <ele>154</ele>
        <time>2021-08-26T14:31:44Z</time>
      </trkpt>
      <trkpt lat="47.06848" lon="2.3764">
        <ele>155</ele>
        <time>2021-08-26T14:31:44Z</time>
      </trkpt>
      <trkpt lat="47.06845" lon="2.37644">
        <ele>155</ele>
        <time>2021-08-26T14:31:44Z</time>
      </trkpt>
      <trkpt lat="47.0684" lon="2.37648">
        <ele>156</ele>
        <time>2021-08-26T14:31:44Z</time>
      </trkpt>
      <trkpt lat="47.06835" lon="2.37651">
        <ele>156</ele>
        <time>2021-08-26T14:31:44Z</time>
      </trkpt>
      <trkpt lat="47.06831" lon="2.37653">
        <ele>157</ele>
        <time>2021-08-26T14:31:44Z</time>
      </trkpt>
      <trkpt lat="47.06827" lon="2.37657">
        <ele>157</ele>
        <time>2021-08-26T14:31:44Z</time>
      </trkpt>
      <trkpt lat="47.06823" lon="2.3766">
        <ele>157</ele>
        <time>2021-08-26T14:31:44Z</time>
      </trkpt>
      <trkpt lat="47.06819" lon="2.37663">
        <ele>157</ele>
        <time>2021-08-26T14:31:44Z</time>
      </trkpt>
      <trkpt lat="47.06815" lon="2.37667">
        <ele>157</ele>
        <time>2021-08-26T14:31:44Z</time>
      </trkpt>
      <trkpt lat="47.06811" lon="2.3767">
        <ele>157</ele>
        <time>2021-08-26T14:31:44Z</time>
      </trkpt>
      <trkpt lat="47.06805" lon="2.37674">
        <ele>158</ele>
        <time>2021-08-26T14:31:44Z</time>
      </trkpt>
      <trkpt lat="47.068" lon="2.37678">
        <ele>158</ele>
        <time>2021-08-26T14:31:44Z</time>
      </trkpt>
      <trkpt lat="47.06795" lon="2.37683">
        <ele>158</ele>
        <time>2021-08-26T14:31:44Z</time>
      </trkpt>
      <trkpt lat="47.06791" lon="2.37688">
        <ele>159</ele>
        <time>2021-08-26T14:31:44Z</time>
      </trkpt>
      <trkpt lat="47.06785" lon="2.37692">
        <ele>159</ele>
        <time>2021-08-26T14:31:44Z</time>
      </trkpt>
      <trkpt lat="47.06781" lon="2.37697">
        <ele>158</ele>
        <time>2021-08-26T14:31:44Z</time>
      </trkpt>
      <trkpt lat="47.06777" lon="2.37701">
        <ele>158</ele>
        <time>2021-08-26T14:31:44Z</time>
      </trkpt>
      <trkpt lat="47.06773" lon="2.37704">
        <ele>158</ele>
        <time>2021-08-26T14:31:44Z</time>
      </trkpt>
      <trkpt lat="47.06768" lon="2.37707">
        <ele>158</ele>
        <time>2021-08-26T14:31:44Z</time>
      </trkpt>
      <trkpt lat="47.06764" lon="2.37711">
        <ele>158</ele>
        <time>2021-08-26T14:31:44Z</time>
      </trkpt>
      <trkpt lat="47.0676" lon="2.37715">
        <ele>158</ele>
        <time>2021-08-26T14:31:44Z</time>
      </trkpt>
      <trkpt lat="47.06756" lon="2.3772">
        <ele>158</ele>
        <time>2021-08-26T14:31:44Z</time>
      </trkpt>
      <trkpt lat="47.06751" lon="2.37725">
        <ele>157</ele>
        <time>2021-08-26T14:31:44Z</time>
      </trkpt>
      <trkpt lat="47.06746" lon="2.37729">
        <ele>157</ele>
        <time>2021-08-26T14:31:44Z</time>
      </trkpt>
      <trkpt lat="47.06741" lon="2.37734">
        <ele>157</ele>
        <time>2021-08-26T14:31:44Z</time>
      </trkpt>
      <trkpt lat="47.06736" lon="2.37739">
        <ele>157</ele>
        <time>2021-08-26T14:31:44Z</time>
      </trkpt>
      <trkpt lat="47.06731" lon="2.37743">
        <ele>157</ele>
        <time>2021-08-26T14:31:44Z</time>
      </trkpt>
      <trkpt lat="47.06726" lon="2.37748">
        <ele>157</ele>
        <time>2021-08-26T14:31:44Z</time>
      </trkpt>
      <trkpt lat="47.06721" lon="2.37753">
        <ele>158</ele>
        <time>2021-08-26T14:31:44Z</time>
      </trkpt>
      <trkpt lat="47.06716" lon="2.37757">
        <ele>158</ele>
        <time>2021-08-26T14:31:44Z</time>
      </trkpt>
      <trkpt lat="47.06711" lon="2.37763">
        <ele>158</ele>
        <time>2021-08-26T14:31:44Z</time>
      </trkpt>
      <trkpt lat="47.06705" lon="2.37768">
        <ele>158</ele>
        <time>2021-08-26T14:31:44Z</time>
      </trkpt>
      <trkpt lat="47.067" lon="2.37773">
        <ele>158</ele>
        <time>2021-08-26T14:31:44Z</time>
      </trkpt>
      <trkpt lat="47.06695" lon="2.37778">
        <ele>159</ele>
        <time>2021-08-26T14:31:44Z</time>
      </trkpt>
      <trkpt lat="47.0669" lon="2.37782">
        <ele>159</ele>
        <time>2021-08-26T14:31:44Z</time>
      </trkpt>
      <trkpt lat="47.06684" lon="2.37786">
        <ele>159</ele>
        <time>2021-08-26T14:31:44Z</time>
      </trkpt>
      <trkpt lat="47.06679" lon="2.3779">
        <ele>159</ele>
        <time>2021-08-26T14:31:44Z</time>
      </trkpt>
      <trkpt lat="47.06674" lon="2.37794">
        <ele>159</ele>
        <time>2021-08-26T14:31:44Z</time>
      </trkpt>
      <trkpt lat="47.0667" lon="2.37798">
        <ele>159</ele>
        <time>2021-08-26T14:31:44Z</time>
      </trkpt>
      <trkpt lat="47.06666" lon="2.37802">
        <ele>159</ele>
        <time>2021-08-26T14:31:44Z</time>
      </trkpt>
      <trkpt lat="47.06662" lon="2.37805">
        <ele>158</ele>
        <time>2021-08-26T14:31:44Z</time>
      </trkpt>
      <trkpt lat="47.06658" lon="2.37808">
        <ele>158</ele>
        <time>2021-08-26T14:31:44Z</time>
      </trkpt>
      <trkpt lat="47.06654" lon="2.37812">
        <ele>158</ele>
        <time>2021-08-26T14:31:44Z</time>
      </trkpt>
      <trkpt lat="47.0665" lon="2.37816">
        <ele>158</ele>
        <time>2021-08-26T14:31:44Z</time>
      </trkpt>
      <trkpt lat="47.06644" lon="2.37821">
        <ele>158</ele>
        <time>2021-08-26T14:31:44Z</time>
      </trkpt>
      <trkpt lat="47.0664" lon="2.37826">
        <ele>158</ele>
        <time>2021-08-26T14:31:44Z</time>
      </trkpt>
      <trkpt lat="47.06635" lon="2.3783">
        <ele>157</ele>
        <time>2021-08-26T14:31:44Z</time>
      </trkpt>
      <trkpt lat="47.0663" lon="2.37834">
        <ele>157</ele>
        <time>2021-08-26T14:31:44Z</time>
      </trkpt>
      <trkpt lat="47.06624" lon="2.37839">
        <ele>157</ele>
        <time>2021-08-26T14:31:44Z</time>
      </trkpt>
      <trkpt lat="47.06619" lon="2.37844">
        <ele>157</ele>
        <time>2021-08-26T14:31:44Z</time>
      </trkpt>
      <trkpt lat="47.06614" lon="2.37849">
        <ele>157</ele>
        <time>2021-08-26T14:31:44Z</time>
      </trkpt>
      <trkpt lat="47.06608" lon="2.37853">
        <ele>157</ele>
        <time>2021-08-26T14:31:44Z</time>
      </trkpt>
      <trkpt lat="47.06594" lon="2.37872">
        <ele>156</ele>
        <time>2021-08-26T14:31:44Z</time>
      </trkpt>
      <trkpt lat="47.0659" lon="2.37878">
        <ele>156</ele>
        <time>2021-08-26T14:31:44Z</time>
      </trkpt>
      <trkpt lat="47.0658" lon="2.37907">
        <ele>156</ele>
        <time>2021-08-26T14:31:44Z</time>
      </trkpt>
      <trkpt lat="47.06564" lon="2.37938">
        <ele>157</ele>
        <time>2021-08-26T14:31:44Z</time>
      </trkpt>
      <trkpt lat="47.06554" lon="2.37968">
        <ele>158</ele>
        <time>2021-08-26T14:31:44Z</time>
      </trkpt>
      <trkpt lat="47.06549" lon="2.37981">
        <ele>157</ele>
        <time>2021-08-26T14:31:44Z</time>
      </trkpt>
      <trkpt lat="47.06548" lon="2.37984">
        <ele>157</ele>
        <time>2021-08-26T14:31:44Z</time>
      </trkpt>
      <trkpt lat="47.06543" lon="2.37993">
        <ele>156</ele>
        <time>2021-08-26T14:31:44Z</time>
      </trkpt>
      <trkpt lat="47.06532" lon="2.38018">
        <ele>154</ele>
        <time>2021-08-26T14:31:44Z</time>
      </trkpt>
      <trkpt lat="47.06515" lon="2.38056">
        <ele>152</ele>
        <time>2021-08-26T14:31:44Z</time>
      </trkpt>
      <trkpt lat="47.06495" lon="2.381">
        <ele>152</ele>
        <time>2021-08-26T14:31:44Z</time>
      </trkpt>
      <trkpt lat="47.06475" lon="2.38144">
        <ele>150</ele>
        <time>2021-08-26T14:31:44Z</time>
      </trkpt>
      <trkpt lat="47.06459" lon="2.38179">
        <ele>150</ele>
        <time>2021-08-26T14:31:44Z</time>
      </trkpt>
      <trkpt lat="47.06456" lon="2.38187">
        <ele>150</ele>
        <time>2021-08-26T14:31:44Z</time>
      </trkpt>
      <trkpt lat="47.06436" lon="2.3823">
        <ele>149</ele>
        <time>2021-08-26T14:31:44Z</time>
      </trkpt>
      <trkpt lat="47.06417" lon="2.38273">
        <ele>149</ele>
        <time>2021-08-26T14:31:44Z</time>
      </trkpt>
      <trkpt lat="47.064" lon="2.38313">
        <ele>151</ele>
        <time>2021-08-26T14:31:44Z</time>
      </trkpt>
      <trkpt lat="47.06391" lon="2.38336">
        <ele>151</ele>
        <time>2021-08-26T14:31:44Z</time>
      </trkpt>
      <trkpt lat="47.06368" lon="2.38348">
        <ele>151</ele>
        <time>2021-08-26T14:31:44Z</time>
      </trkpt>
      <trkpt lat="47.06347" lon="2.38368">
        <ele>151</ele>
        <time>2021-08-26T14:31:44Z</time>
      </trkpt>
      <trkpt lat="47.06344" lon="2.38375">
        <ele>151</ele>
        <time>2021-08-26T14:31:44Z</time>
      </trkpt>
      <trkpt lat="47.06325" lon="2.38414">
        <ele>151</ele>
        <time>2021-08-26T14:31:44Z</time>
      </trkpt>
      <trkpt lat="47.06308" lon="2.38454">
        <ele>150</ele>
        <time>2021-08-26T14:31:44Z</time>
      </trkpt>
      <trkpt lat="47.06291" lon="2.38492">
        <ele>148</ele>
        <time>2021-08-26T14:31:44Z</time>
      </trkpt>
      <trkpt lat="47.06274" lon="2.38531">
        <ele>147</ele>
        <time>2021-08-26T14:31:44Z</time>
      </trkpt>
      <trkpt lat="47.06261" lon="2.3856">
        <ele>146</ele>
        <time>2021-08-26T14:31:44Z</time>
      </trkpt>
      <trkpt lat="47.06259" lon="2.38565">
        <ele>146</ele>
        <time>2021-08-26T14:31:44Z</time>
      </trkpt>
      <trkpt lat="47.06258" lon="2.38566">
        <ele>146</ele>
        <time>2021-08-26T14:31:44Z</time>
      </trkpt>
      <trkpt lat="47.06256" lon="2.38568">
        <ele>146</ele>
        <time>2021-08-26T14:31:44Z</time>
      </trkpt>
      <trkpt lat="47.06254" lon="2.38572">
        <ele>146</ele>
        <time>2021-08-26T14:31:44Z</time>
      </trkpt>
      <trkpt lat="47.06253" lon="2.38578">
        <ele>146</ele>
        <time>2021-08-26T14:31:44Z</time>
      </trkpt>
      <trkpt lat="47.06252" lon="2.38583">
        <ele>145</ele>
        <time>2021-08-26T14:31:44Z</time>
      </trkpt>
      <trkpt lat="47.0625" lon="2.38588">
        <ele>145</ele>
        <time>2021-08-26T14:31:44Z</time>
      </trkpt>
      <trkpt lat="47.06248" lon="2.38593">
        <ele>145</ele>
        <time>2021-08-26T14:31:44Z</time>
      </trkpt>
      <trkpt lat="47.06245" lon="2.38596">
        <ele>145</ele>
        <time>2021-08-26T14:31:44Z</time>
      </trkpt>
      <trkpt lat="47.0624" lon="2.38596">
        <ele>145</ele>
        <time>2021-08-26T14:31:44Z</time>
      </trkpt>
      <trkpt lat="47.06236" lon="2.38595">
        <ele>145</ele>
        <time>2021-08-26T14:31:44Z</time>
      </trkpt>
      <trkpt lat="47.06231" lon="2.38595">
        <ele>145</ele>
        <time>2021-08-26T14:31:44Z</time>
      </trkpt>
      <trkpt lat="47.06226" lon="2.38594">
        <ele>145</ele>
        <time>2021-08-26T14:31:44Z</time>
      </trkpt>
      <trkpt lat="47.06222" lon="2.38594">
        <ele>145</ele>
        <time>2021-08-26T14:31:44Z</time>
      </trkpt>
      <trkpt lat="47.06216" lon="2.38594">
        <ele>145</ele>
        <time>2021-08-26T14:31:44Z</time>
      </trkpt>
      <trkpt lat="47.06211" lon="2.38594">
        <ele>145</ele>
        <time>2021-08-26T14:31:44Z</time>
      </trkpt>
      <trkpt lat="47.06206" lon="2.38596">
        <ele>144</ele>
        <time>2021-08-26T14:31:44Z</time>
      </trkpt>
      <trkpt lat="47.062" lon="2.38596">
        <ele>144</ele>
        <time>2021-08-26T14:31:44Z</time>
      </trkpt>
      <trkpt lat="47.06195" lon="2.38596">
        <ele>144</ele>
        <time>2021-08-26T14:31:44Z</time>
      </trkpt>
      <trkpt lat="47.06189" lon="2.38599">
        <ele>144</ele>
        <time>2021-08-26T14:31:44Z</time>
      </trkpt>
      <trkpt lat="47.06186" lon="2.38606">
        <ele>143</ele>
        <time>2021-08-26T14:31:44Z</time>
      </trkpt>
      <trkpt lat="47.06184" lon="2.38614">
        <ele>143</ele>
        <time>2021-08-26T14:31:44Z</time>
      </trkpt>
      <trkpt lat="47.06185" lon="2.38623">
        <ele>143</ele>
        <time>2021-08-26T14:31:44Z</time>
      </trkpt>
      <trkpt lat="47.06185" lon="2.38632">
        <ele>143</ele>
        <time>2021-08-26T14:31:44Z</time>
      </trkpt>
      <trkpt lat="47.06186" lon="2.38641">
        <ele>142</ele>
        <time>2021-08-26T14:31:44Z</time>
      </trkpt>
      <trkpt lat="47.06188" lon="2.3865">
        <ele>142</ele>
        <time>2021-08-26T14:31:44Z</time>
      </trkpt>
      <trkpt lat="47.0619" lon="2.38659">
        <ele>142</ele>
        <time>2021-08-26T14:31:44Z</time>
      </trkpt>
      <trkpt lat="47.06191" lon="2.38668">
        <ele>142</ele>
        <time>2021-08-26T14:31:44Z</time>
      </trkpt>
      <trkpt lat="47.06193" lon="2.38678">
        <ele>142</ele>
        <time>2021-08-26T14:31:44Z</time>
      </trkpt>
      <trkpt lat="47.06195" lon="2.38686">
        <ele>142</ele>
        <time>2021-08-26T14:31:44Z</time>
      </trkpt>
      <trkpt lat="47.06196" lon="2.38695">
        <ele>142</ele>
        <time>2021-08-26T14:31:44Z</time>
      </trkpt>
      <trkpt lat="47.06197" lon="2.38704">
        <ele>142</ele>
        <time>2021-08-26T14:31:44Z</time>
      </trkpt>
      <trkpt lat="47.06199" lon="2.38713">
        <ele>142</ele>
        <time>2021-08-26T14:31:44Z</time>
      </trkpt>
      <trkpt lat="47.062" lon="2.38722">
        <ele>141</ele>
        <time>2021-08-26T14:31:44Z</time>
      </trkpt>
      <trkpt lat="47.06201" lon="2.38731">
        <ele>141</ele>
        <time>2021-08-26T14:31:44Z</time>
      </trkpt>
      <trkpt lat="47.06203" lon="2.38741">
        <ele>141</ele>
        <time>2021-08-26T14:31:44Z</time>
      </trkpt>
      <trkpt lat="47.06204" lon="2.38752">
        <ele>141</ele>
        <time>2021-08-26T14:31:44Z</time>
      </trkpt>
      <trkpt lat="47.06206" lon="2.38762">
        <ele>141</ele>
        <time>2021-08-26T14:31:44Z</time>
      </trkpt>
      <trkpt lat="47.06208" lon="2.38773">
        <ele>141</ele>
        <time>2021-08-26T14:31:44Z</time>
      </trkpt>
      <trkpt lat="47.06209" lon="2.38784">
        <ele>140</ele>
        <time>2021-08-26T14:31:44Z</time>
      </trkpt>
      <trkpt lat="47.06211" lon="2.38795">
        <ele>140</ele>
        <time>2021-08-26T14:31:44Z</time>
      </trkpt>
      <trkpt lat="47.06213" lon="2.38805">
        <ele>139</ele>
        <time>2021-08-26T14:31:44Z</time>
      </trkpt>
      <trkpt lat="47.06215" lon="2.38816">
        <ele>138</ele>
        <time>2021-08-26T14:31:44Z</time>
      </trkpt>
      <trkpt lat="47.06217" lon="2.38827">
        <ele>137</ele>
        <time>2021-08-26T14:31:44Z</time>
      </trkpt>
      <trkpt lat="47.06219" lon="2.38838">
        <ele>136</ele>
        <time>2021-08-26T14:31:44Z</time>
      </trkpt>
      <trkpt lat="47.06221" lon="2.38849">
        <ele>136</ele>
        <time>2021-08-26T14:31:44Z</time>
      </trkpt>
      <trkpt lat="47.06222" lon="2.3886">
        <ele>136</ele>
        <time>2021-08-26T14:31:44Z</time>
      </trkpt>
      <trkpt lat="47.06224" lon="2.38872">
        <ele>135</ele>
        <time>2021-08-26T14:31:44Z</time>
      </trkpt>
      <trkpt lat="47.06226" lon="2.38883">
        <ele>135</ele>
        <time>2021-08-26T14:31:44Z</time>
      </trkpt>
      <trkpt lat="47.06228" lon="2.38895">
        <ele>135</ele>
        <time>2021-08-26T14:31:44Z</time>
      </trkpt>
      <trkpt lat="47.0623" lon="2.38906">
        <ele>135</ele>
        <time>2021-08-26T14:31:44Z</time>
      </trkpt>
      <trkpt lat="47.06232" lon="2.38918">
        <ele>135</ele>
        <time>2021-08-26T14:31:44Z</time>
      </trkpt>
      <trkpt lat="47.06234" lon="2.3893">
        <ele>135</ele>
        <time>2021-08-26T14:31:44Z</time>
      </trkpt>
      <trkpt lat="47.06235" lon="2.38942">
        <ele>134</ele>
        <time>2021-08-26T14:31:44Z</time>
      </trkpt>
      <trkpt lat="47.06237" lon="2.38954">
        <ele>134</ele>
        <time>2021-08-26T14:31:44Z</time>
      </trkpt>
      <trkpt lat="47.06239" lon="2.38965">
        <ele>134</ele>
        <time>2021-08-26T14:31:44Z</time>
      </trkpt>
      <trkpt lat="47.06241" lon="2.38977">
        <ele>134</ele>
        <time>2021-08-26T14:31:44Z</time>
      </trkpt>
      <trkpt lat="47.06242" lon="2.38988">
        <ele>133</ele>
        <time>2021-08-26T14:31:44Z</time>
      </trkpt>
      <trkpt lat="47.06244" lon="2.39">
        <ele>133</ele>
        <time>2021-08-26T14:31:44Z</time>
      </trkpt>
      <trkpt lat="47.06246" lon="2.39011">
        <ele>133</ele>
        <time>2021-08-26T14:31:44Z</time>
      </trkpt>
      <trkpt lat="47.06248" lon="2.39022">
        <ele>133</ele>
        <time>2021-08-26T14:31:44Z</time>
      </trkpt>
      <trkpt lat="47.0625" lon="2.39032">
        <ele>132</ele>
        <time>2021-08-26T14:31:44Z</time>
      </trkpt>
      <trkpt lat="47.06256" lon="2.39058">
        <ele>132</ele>
        <time>2021-08-26T14:31:44Z</time>
      </trkpt>
      <trkpt lat="47.06281" lon="2.39059">
        <ele>132</ele>
        <time>2021-08-26T14:31:44Z</time>
      </trkpt>
      <trkpt lat="47.06311" lon="2.3906">
        <ele>134</ele>
        <time>2021-08-26T14:31:44Z</time>
      </trkpt>
      <trkpt lat="47.06341" lon="2.39057">
        <ele>135</ele>
        <time>2021-08-26T14:31:44Z</time>
      </trkpt>
      <trkpt lat="47.06371" lon="2.39056">
        <ele>135</ele>
        <time>2021-08-26T14:31:44Z</time>
      </trkpt>
      <trkpt lat="47.06397" lon="2.39056">
        <ele>134</ele>
        <time>2021-08-26T14:31:44Z</time>
      </trkpt>
      <trkpt lat="47.06403" lon="2.39055">
        <ele>133</ele>
        <time>2021-08-26T14:31:44Z</time>
      </trkpt>
      <trkpt lat="47.06436" lon="2.39055">
        <ele>132</ele>
        <time>2021-08-26T14:31:44Z</time>
      </trkpt>
      <trkpt lat="47.06468" lon="2.39055">
        <ele>132</ele>
        <time>2021-08-26T14:31:44Z</time>
      </trkpt>
      <trkpt lat="47.06495" lon="2.39061">
        <ele>132</ele>
        <time>2021-08-26T14:31:44Z</time>
      </trkpt>
      <trkpt lat="47.06501" lon="2.39103">
        <ele>132</ele>
        <time>2021-08-26T14:31:44Z</time>
      </trkpt>
      <trkpt lat="47.06508" lon="2.39148">
        <ele>131</ele>
        <time>2021-08-26T14:31:44Z</time>
      </trkpt>
      <trkpt lat="47.06514" lon="2.39186">
        <ele>129</ele>
        <time>2021-08-26T14:31:44Z</time>
      </trkpt>
      <trkpt lat="47.06515" lon="2.39195">
        <ele>129</ele>
        <time>2021-08-26T14:31:44Z</time>
      </trkpt>
      <trkpt lat="47.06519" lon="2.39242">
        <ele>127</ele>
        <time>2021-08-26T14:31:44Z</time>
      </trkpt>
      <trkpt lat="47.06522" lon="2.39286">
        <ele>127</ele>
        <time>2021-08-26T14:31:44Z</time>
      </trkpt>
      <trkpt lat="47.06526" lon="2.39334">
        <ele>127</ele>
        <time>2021-08-26T14:31:44Z</time>
      </trkpt>
      <trkpt lat="47.06532" lon="2.39382">
        <ele>127</ele>
        <time>2021-08-26T14:31:44Z</time>
      </trkpt>
      <trkpt lat="47.06538" lon="2.39428">
        <ele>129</ele>
        <time>2021-08-26T14:31:44Z</time>
      </trkpt>
      <trkpt lat="47.06542" lon="2.39461">
        <ele>128</ele>
        <time>2021-08-26T14:31:44Z</time>
      </trkpt>
      <trkpt lat="47.06544" lon="2.39468">
        <ele>128</ele>
        <time>2021-08-26T14:31:44Z</time>
      </trkpt>
      <trkpt lat="47.06543" lon="2.39478">
        <ele>128</ele>
        <time>2021-08-26T14:31:44Z</time>
      </trkpt>
      <trkpt lat="47.0654" lon="2.39479">
        <ele>128</ele>
        <time>2021-08-26T14:31:44Z</time>
      </trkpt>
      <trkpt lat="47.06537" lon="2.39478">
        <ele>128</ele>
        <time>2021-08-26T14:31:44Z</time>
      </trkpt>
      <trkpt lat="47.06534" lon="2.39477">
        <ele>128</ele>
        <time>2021-08-26T14:31:44Z</time>
      </trkpt>
      <trkpt lat="47.0653" lon="2.39478">
        <ele>128</ele>
        <time>2021-08-26T14:31:44Z</time>
      </trkpt>
      <trkpt lat="47.06525" lon="2.39479">
        <ele>128</ele>
        <time>2021-08-26T14:31:44Z</time>
      </trkpt>
      <trkpt lat="47.0652" lon="2.39478">
        <ele>128</ele>
        <time>2021-08-26T14:31:44Z</time>
      </trkpt>
      <trkpt lat="47.06515" lon="2.39478">
        <ele>128</ele>
        <time>2021-08-26T14:31:44Z</time>
      </trkpt>
      <trkpt lat="47.06509" lon="2.39477">
        <ele>128</ele>
        <time>2021-08-26T14:31:44Z</time>
      </trkpt>
      <trkpt lat="47.06504" lon="2.39475">
        <ele>128</ele>
        <time>2021-08-26T14:31:44Z</time>
      </trkpt>
      <trkpt lat="47.06497" lon="2.39474">
        <ele>128</ele>
        <time>2021-08-26T14:31:44Z</time>
      </trkpt>
      <trkpt lat="47.06491" lon="2.39471">
        <ele>128</ele>
        <time>2021-08-26T14:31:44Z</time>
      </trkpt>
      <trkpt lat="47.06485" lon="2.3947">
        <ele>128</ele>
        <time>2021-08-26T14:31:44Z</time>
      </trkpt>
      <trkpt lat="47.06479" lon="2.3947">
        <ele>128</ele>
        <time>2021-08-26T14:31:44Z</time>
      </trkpt>
      <trkpt lat="47.06444" lon="2.39474">
        <ele>128</ele>
        <time>2021-08-26T14:31:44Z</time>
      </trkpt>
      <trkpt lat="47.06409" lon="2.39482">
        <ele>130</ele>
        <time>2021-08-26T14:31:44Z</time>
      </trkpt>
      <trkpt lat="47.06374" lon="2.39487">
        <ele>130</ele>
        <time>2021-08-26T14:31:44Z</time>
      </trkpt>
      <trkpt lat="47.06339" lon="2.39499">
        <ele>129</ele>
        <time>2021-08-26T14:31:44Z</time>
      </trkpt>
      <trkpt lat="47.06303" lon="2.39512">
        <ele>130</ele>
        <time>2021-08-26T14:31:44Z</time>
      </trkpt>
      <trkpt lat="47.06274" lon="2.39523">
        <ele>128</ele>
        <time>2021-08-26T14:31:44Z</time>
      </trkpt>
      <trkpt lat="47.06267" lon="2.39526">
        <ele>128</ele>
        <time>2021-08-26T14:31:44Z</time>
      </trkpt>
      <trkpt lat="47.06242" lon="2.39566">
        <ele>127</ele>
        <time>2021-08-26T14:31:44Z</time>
      </trkpt>
      <trkpt lat="47.06226" lon="2.39613">
        <ele>126</ele>
        <time>2021-08-26T14:31:44Z</time>
      </trkpt>
      <trkpt lat="47.06199" lon="2.39642">
        <ele>126</ele>
        <time>2021-08-26T14:31:44Z</time>
      </trkpt>
      <trkpt lat="47.06166" lon="2.39656">
        <ele>126</ele>
        <time>2021-08-26T14:31:44Z</time>
      </trkpt>
      <trkpt lat="47.06132" lon="2.3967">
        <ele>126</ele>
        <time>2021-08-26T14:31:44Z</time>
      </trkpt>
      <trkpt lat="47.0609" lon="2.39689">
        <ele>129</ele>
        <time>2021-08-26T14:31:44Z</time>
      </trkpt>
      <trkpt lat="47.06083" lon="2.39691">
        <ele>129</ele>
        <time>2021-08-26T14:31:44Z</time>
      </trkpt>
      <trkpt lat="47.06046" lon="2.39704">
        <ele>126</ele>
        <time>2021-08-26T14:31:44Z</time>
      </trkpt>
      <trkpt lat="47.06003" lon="2.39703">
        <ele>126</ele>
        <time>2021-08-26T14:31:44Z</time>
      </trkpt>
      <trkpt lat="47.05972" lon="2.39679">
        <ele>126</ele>
        <time>2021-08-26T14:31:44Z</time>
      </trkpt>
      <trkpt lat="47.05935" lon="2.39646">
        <ele>127</ele>
        <time>2021-08-26T14:31:44Z</time>
      </trkpt>
      <trkpt lat="47.05905" lon="2.39596">
        <ele>125</ele>
        <time>2021-08-26T14:31:44Z</time>
      </trkpt>
      <trkpt lat="47.05881" lon="2.39574">
        <ele>124</ele>
        <time>2021-08-26T14:31:44Z</time>
      </trkpt>
      <trkpt lat="47.05874" lon="2.3957">
        <ele>124</ele>
        <time>2021-08-26T14:31:44Z</time>
      </trkpt>
      <trkpt lat="47.0584" lon="2.39557">
        <ele>128</ele>
        <time>2021-08-26T14:31:44Z</time>
      </trkpt>
      <trkpt lat="47.058" lon="2.39556">
        <ele>131</ele>
        <time>2021-08-26T14:31:44Z</time>
      </trkpt>
      <trkpt lat="47.05769" lon="2.3956">
        <ele>131</ele>
        <time>2021-08-26T14:31:44Z</time>
      </trkpt>
      <trkpt lat="47.05739" lon="2.39567">
        <ele>131</ele>
        <time>2021-08-26T14:31:44Z</time>
      </trkpt>
      <trkpt lat="47.05708" lon="2.3958">
        <ele>133</ele>
        <time>2021-08-26T14:31:44Z</time>
      </trkpt>
      <trkpt lat="47.05691" lon="2.39589">
        <ele>132</ele>
        <time>2021-08-26T14:31:44Z</time>
      </trkpt>
      <trkpt lat="47.05686" lon="2.3959">
        <ele>133</ele>
        <time>2021-08-26T14:31:44Z</time>
      </trkpt>
      <trkpt lat="47.05681" lon="2.3959">
        <ele>133</ele>
        <time>2021-08-26T14:31:44Z</time>
      </trkpt>
      <trkpt lat="47.05676" lon="2.39592">
        <ele>133</ele>
        <time>2021-08-26T14:31:44Z</time>
      </trkpt>
      <trkpt lat="47.05671" lon="2.39596">
        <ele>133</ele>
        <time>2021-08-26T14:31:44Z</time>
      </trkpt>
      <trkpt lat="47.05666" lon="2.39601">
        <ele>132</ele>
        <time>2021-08-26T14:31:44Z</time>
      </trkpt>
      <trkpt lat="47.05661" lon="2.39606">
        <ele>132</ele>
        <time>2021-08-26T14:31:44Z</time>
      </trkpt>
      <trkpt lat="47.05656" lon="2.39612">
        <ele>132</ele>
        <time>2021-08-26T14:31:44Z</time>
      </trkpt>
      <trkpt lat="47.05651" lon="2.39615">
        <ele>132</ele>
        <time>2021-08-26T14:31:44Z</time>
      </trkpt>
      <trkpt lat="47.05644" lon="2.39618">
        <ele>132</ele>
        <time>2021-08-26T14:31:44Z</time>
      </trkpt>
      <trkpt lat="47.05638" lon="2.39621">
        <ele>132</ele>
        <time>2021-08-26T14:31:44Z</time>
      </trkpt>
      <trkpt lat="47.05631" lon="2.39622">
        <ele>132</ele>
        <time>2021-08-26T14:31:44Z</time>
      </trkpt>
      <trkpt lat="47.05625" lon="2.39624">
        <ele>133</ele>
        <time>2021-08-26T14:31:44Z</time>
      </trkpt>
      <trkpt lat="47.05618" lon="2.39625">
        <ele>133</ele>
        <time>2021-08-26T14:31:44Z</time>
      </trkpt>
      <trkpt lat="47.05612" lon="2.39626">
        <ele>133</ele>
        <time>2021-08-26T14:31:44Z</time>
      </trkpt>
      <trkpt lat="47.05605" lon="2.39627">
        <ele>133</ele>
        <time>2021-08-26T14:31:44Z</time>
      </trkpt>
      <trkpt lat="47.05599" lon="2.39627">
        <ele>134</ele>
        <time>2021-08-26T14:31:44Z</time>
      </trkpt>
      <trkpt lat="47.05592" lon="2.39627">
        <ele>134</ele>
        <time>2021-08-26T14:31:44Z</time>
      </trkpt>
      <trkpt lat="47.05585" lon="2.39627">
        <ele>134</ele>
        <time>2021-08-26T14:31:44Z</time>
      </trkpt>
      <trkpt lat="47.05579" lon="2.39628">
        <ele>135</ele>
        <time>2021-08-26T14:31:44Z</time>
      </trkpt>
      <trkpt lat="47.05572" lon="2.39628">
        <ele>135</ele>
        <time>2021-08-26T14:31:44Z</time>
      </trkpt>
      <trkpt lat="47.05565" lon="2.39629">
        <ele>135</ele>
        <time>2021-08-26T14:31:44Z</time>
      </trkpt>
      <trkpt lat="47.05558" lon="2.3963">
        <ele>135</ele>
        <time>2021-08-26T14:31:44Z</time>
      </trkpt>
      <trkpt lat="47.05551" lon="2.39631">
        <ele>133</ele>
        <time>2021-08-26T14:31:44Z</time>
      </trkpt>
      <trkpt lat="47.05544" lon="2.39631">
        <ele>132</ele>
        <time>2021-08-26T14:31:44Z</time>
      </trkpt>
      <trkpt lat="47.05537" lon="2.39632">
        <ele>130</ele>
        <time>2021-08-26T14:31:44Z</time>
      </trkpt>
      <trkpt lat="47.0553" lon="2.39634">
        <ele>127</ele>
        <time>2021-08-26T14:31:44Z</time>
      </trkpt>
      <trkpt lat="47.05523" lon="2.39638">
        <ele>126</ele>
        <time>2021-08-26T14:31:44Z</time>
      </trkpt>
      <trkpt lat="47.05516" lon="2.39644">
        <ele>127</ele>
        <time>2021-08-26T14:31:44Z</time>
      </trkpt>
      <trkpt lat="47.05509" lon="2.39649">
        <ele>127</ele>
        <time>2021-08-26T14:31:44Z</time>
      </trkpt>
      <trkpt lat="47.05501" lon="2.39655">
        <ele>127</ele>
        <time>2021-08-26T14:31:44Z</time>
      </trkpt>
      <trkpt lat="47.05494" lon="2.3966">
        <ele>126</ele>
        <time>2021-08-26T14:31:44Z</time>
      </trkpt>
      <trkpt lat="47.05485" lon="2.39663">
        <ele>126</ele>
        <time>2021-08-26T14:31:44Z</time>
      </trkpt>
      <trkpt lat="47.05476" lon="2.39666">
        <ele>126</ele>
        <time>2021-08-26T14:31:44Z</time>
      </trkpt>
      <trkpt lat="47.05468" lon="2.39668">
        <ele>126</ele>
        <time>2021-08-26T14:31:44Z</time>
      </trkpt>
      <trkpt lat="47.05458" lon="2.3967">
        <ele>126</ele>
        <time>2021-08-26T14:31:44Z</time>
      </trkpt>
      <trkpt lat="47.0545" lon="2.39673">
        <ele>127</ele>
        <time>2021-08-26T14:31:44Z</time>
      </trkpt>
      <trkpt lat="47.05442" lon="2.39678">
        <ele>127</ele>
        <time>2021-08-26T14:31:44Z</time>
      </trkpt>
      <trkpt lat="47.05434" lon="2.39686">
        <ele>126</ele>
        <time>2021-08-26T14:31:44Z</time>
      </trkpt>
      <trkpt lat="47.05427" lon="2.39694">
        <ele>126</ele>
        <time>2021-08-26T14:31:44Z</time>
      </trkpt>
      <trkpt lat="47.05421" lon="2.39703">
        <ele>126</ele>
        <time>2021-08-26T14:31:44Z</time>
      </trkpt>
      <trkpt lat="47.05414" lon="2.39712">
        <ele>126</ele>
        <time>2021-08-26T14:31:44Z</time>
      </trkpt>
      <trkpt lat="47.05409" lon="2.39722">
        <ele>126</ele>
        <time>2021-08-26T14:31:44Z</time>
      </trkpt>
      <trkpt lat="47.05403" lon="2.39732">
        <ele>126</ele>
        <time>2021-08-26T14:31:44Z</time>
      </trkpt>
      <trkpt lat="47.054" lon="2.39743">
        <ele>126</ele>
        <time>2021-08-26T14:31:44Z</time>
      </trkpt>
      <trkpt lat="47.05396" lon="2.39755">
        <ele>126</ele>
        <time>2021-08-26T14:31:44Z</time>
      </trkpt>
      <trkpt lat="47.05393" lon="2.39765">
        <ele>126</ele>
        <time>2021-08-26T14:31:44Z</time>
      </trkpt>
      <trkpt lat="47.0539" lon="2.39777">
        <ele>126</ele>
        <time>2021-08-26T14:31:44Z</time>
      </trkpt>
      <trkpt lat="47.05387" lon="2.39788">
        <ele>126</ele>
        <time>2021-08-26T14:31:44Z</time>
      </trkpt>
      <trkpt lat="47.05383" lon="2.39799">
        <ele>126</ele>
        <time>2021-08-26T14:31:44Z</time>
      </trkpt>
      <trkpt lat="47.05378" lon="2.39807">
        <ele>126</ele>
        <time>2021-08-26T14:31:44Z</time>
      </trkpt>
      <trkpt lat="47.05372" lon="2.39813">
        <ele>126</ele>
        <time>2021-08-26T14:31:44Z</time>
      </trkpt>
      <trkpt lat="47.05366" lon="2.39819">
        <ele>126</ele>
        <time>2021-08-26T14:31:44Z</time>
      </trkpt>
      <trkpt lat="47.0536" lon="2.39824">
        <ele>126</ele>
        <time>2021-08-26T14:31:44Z</time>
      </trkpt>
      <trkpt lat="47.05353" lon="2.39824">
        <ele>126</ele>
        <time>2021-08-26T14:31:44Z</time>
      </trkpt>
      <trkpt lat="47.05345" lon="2.39826">
        <ele>126</ele>
        <time>2021-08-26T14:31:44Z</time>
      </trkpt>
      <trkpt lat="47.05337" lon="2.39829">
        <ele>126</ele>
        <time>2021-08-26T14:31:44Z</time>
      </trkpt>
      <trkpt lat="47.05322" lon="2.39833">
        <ele>126</ele>
        <time>2021-08-26T14:31:44Z</time>
      </trkpt>
      <trkpt lat="47.05315" lon="2.39835">
        <ele>126</ele>
        <time>2021-08-26T14:31:44Z</time>
      </trkpt>
      <trkpt lat="47.05307" lon="2.39836">
        <ele>126</ele>
        <time>2021-08-26T14:31:44Z</time>
      </trkpt>
      <trkpt lat="47.053" lon="2.39837">
        <ele>126</ele>
        <time>2021-08-26T14:31:44Z</time>
      </trkpt>
      <trkpt lat="47.05293" lon="2.39839">
        <ele>126</ele>
        <time>2021-08-26T14:31:44Z</time>
      </trkpt>
      <trkpt lat="47.05258" lon="2.39849">
        <ele>126</ele>
        <time>2021-08-26T14:31:44Z</time>
      </trkpt>
      <trkpt lat="47.05226" lon="2.39861">
        <ele>126</ele>
        <time>2021-08-26T14:31:44Z</time>
      </trkpt>
      <trkpt lat="47.05193" lon="2.39867">
        <ele>126</ele>
        <time>2021-08-26T14:31:44Z</time>
      </trkpt>
      <trkpt lat="47.0516" lon="2.3988">
        <ele>128</ele>
        <time>2021-08-26T14:31:44Z</time>
      </trkpt>
      <trkpt lat="47.05128" lon="2.39901">
        <ele>131</ele>
        <time>2021-08-26T14:31:44Z</time>
      </trkpt>
      <trkpt lat="47.05101" lon="2.39913">
        <ele>131</ele>
        <time>2021-08-26T14:31:44Z</time>
      </trkpt>
      <trkpt lat="47.05094" lon="2.39916">
        <ele>131</ele>
        <time>2021-08-26T14:31:44Z</time>
      </trkpt>
      <trkpt lat="47.0506" lon="2.3993">
        <ele>130</ele>
        <time>2021-08-26T14:31:44Z</time>
      </trkpt>
      <trkpt lat="47.05027" lon="2.3995">
        <ele>128</ele>
        <time>2021-08-26T14:31:44Z</time>
      </trkpt>
      <trkpt lat="47.04996" lon="2.39976">
        <ele>129</ele>
        <time>2021-08-26T14:31:44Z</time>
      </trkpt>
      <trkpt lat="47.04965" lon="2.39996">
        <ele>129</ele>
        <time>2021-08-26T14:31:44Z</time>
      </trkpt>
      <trkpt lat="47.04928" lon="2.40002">
        <ele>128</ele>
        <time>2021-08-26T14:31:44Z</time>
      </trkpt>
      <trkpt lat="47.04901" lon="2.39994">
        <ele>127</ele>
        <time>2021-08-26T14:31:44Z</time>
      </trkpt>
      <trkpt lat="47.04896" lon="2.39989">
        <ele>127</ele>
        <time>2021-08-26T14:31:44Z</time>
      </trkpt>
      <trkpt lat="47.0489" lon="2.39983">
        <ele>127</ele>
        <time>2021-08-26T14:31:44Z</time>
      </trkpt>
      <trkpt lat="47.04883" lon="2.39982">
        <ele>127</ele>
        <time>2021-08-26T14:31:44Z</time>
      </trkpt>
      <trkpt lat="47.04877" lon="2.39985">
        <ele>127</ele>
        <time>2021-08-26T14:31:44Z</time>
      </trkpt>
      <trkpt lat="47.04871" lon="2.39991">
        <ele>127</ele>
        <time>2021-08-26T14:31:44Z</time>
      </trkpt>
      <trkpt lat="47.04866" lon="2.39998">
        <ele>127</ele>
        <time>2021-08-26T14:31:44Z</time>
      </trkpt>
      <trkpt lat="47.0486" lon="2.40004">
        <ele>128</ele>
        <time>2021-08-26T14:31:44Z</time>
      </trkpt>
      <trkpt lat="47.04855" lon="2.4001">
        <ele>128</ele>
        <time>2021-08-26T14:31:44Z</time>
      </trkpt>
      <trkpt lat="47.04851" lon="2.40018">
        <ele>128</ele>
        <time>2021-08-26T14:31:44Z</time>
      </trkpt>
      <trkpt lat="47.04846" lon="2.40024">
        <ele>128</ele>
        <time>2021-08-26T14:31:44Z</time>
      </trkpt>
      <trkpt lat="47.04841" lon="2.40031">
        <ele>128</ele>
        <time>2021-08-26T14:31:44Z</time>
      </trkpt>
      <trkpt lat="47.04837" lon="2.40037">
        <ele>128</ele>
        <time>2021-08-26T14:31:44Z</time>
      </trkpt>
      <trkpt lat="47.04832" lon="2.40044">
        <ele>128</ele>
        <time>2021-08-26T14:31:44Z</time>
      </trkpt>
      <trkpt lat="47.04827" lon="2.40051">
        <ele>129</ele>
        <time>2021-08-26T14:31:44Z</time>
      </trkpt>
      <trkpt lat="47.04822" lon="2.40058">
        <ele>129</ele>
        <time>2021-08-26T14:31:44Z</time>
      </trkpt>
      <trkpt lat="47.04817" lon="2.40064">
        <ele>130</ele>
        <time>2021-08-26T14:31:44Z</time>
      </trkpt>
      <trkpt lat="47.04812" lon="2.40071">
        <ele>131</ele>
        <time>2021-08-26T14:31:44Z</time>
      </trkpt>
      <trkpt lat="47.04807" lon="2.40077">
        <ele>131</ele>
        <time>2021-08-26T14:31:44Z</time>
      </trkpt>
      <trkpt lat="47.04802" lon="2.40084">
        <ele>132</ele>
        <time>2021-08-26T14:31:44Z</time>
      </trkpt>
      <trkpt lat="47.04797" lon="2.40091">
        <ele>132</ele>
        <time>2021-08-26T14:31:44Z</time>
      </trkpt>
      <trkpt lat="47.04792" lon="2.40098">
        <ele>133</ele>
        <time>2021-08-26T14:31:44Z</time>
      </trkpt>
      <trkpt lat="47.04787" lon="2.40104">
        <ele>133</ele>
        <time>2021-08-26T14:31:44Z</time>
      </trkpt>
      <trkpt lat="47.04781" lon="2.40111">
        <ele>134</ele>
        <time>2021-08-26T14:31:44Z</time>
      </trkpt>
      <trkpt lat="47.04776" lon="2.40117">
        <ele>134</ele>
        <time>2021-08-26T14:31:44Z</time>
      </trkpt>
      <trkpt lat="47.04771" lon="2.40122">
        <ele>133</ele>
        <time>2021-08-26T14:31:44Z</time>
      </trkpt>
      <trkpt lat="47.04765" lon="2.40128">
        <ele>132</ele>
        <time>2021-08-26T14:31:44Z</time>
      </trkpt>
      <trkpt lat="47.0476" lon="2.40134">
        <ele>132</ele>
        <time>2021-08-26T14:31:44Z</time>
      </trkpt>
      <trkpt lat="47.04755" lon="2.40141">
        <ele>132</ele>
        <time>2021-08-26T14:31:44Z</time>
      </trkpt>
      <trkpt lat="47.04751" lon="2.40147">
        <ele>131</ele>
        <time>2021-08-26T14:31:44Z</time>
      </trkpt>
      <trkpt lat="47.04746" lon="2.40155">
        <ele>131</ele>
        <time>2021-08-26T14:31:44Z</time>
      </trkpt>
      <trkpt lat="47.04741" lon="2.40162">
        <ele>130</ele>
        <time>2021-08-26T14:31:44Z</time>
      </trkpt>
      <trkpt lat="47.04737" lon="2.4017">
        <ele>130</ele>
        <time>2021-08-26T14:31:44Z</time>
      </trkpt>
      <trkpt lat="47.04732" lon="2.40177">
        <ele>130</ele>
        <time>2021-08-26T14:31:44Z</time>
      </trkpt>
      <trkpt lat="47.04727" lon="2.40183">
        <ele>130</ele>
        <time>2021-08-26T14:31:44Z</time>
      </trkpt>
      <trkpt lat="47.04722" lon="2.4019">
        <ele>130</ele>
        <time>2021-08-26T14:31:44Z</time>
      </trkpt>
      <trkpt lat="47.04717" lon="2.40197">
        <ele>130</ele>
        <time>2021-08-26T14:31:44Z</time>
      </trkpt>
      <trkpt lat="47.04712" lon="2.40205">
        <ele>130</ele>
        <time>2021-08-26T14:31:44Z</time>
      </trkpt>
      <trkpt lat="47.04707" lon="2.40213">
        <ele>130</ele>
        <time>2021-08-26T14:31:44Z</time>
      </trkpt>
      <trkpt lat="47.04702" lon="2.40221">
        <ele>130</ele>
        <time>2021-08-26T14:31:44Z</time>
      </trkpt>
      <trkpt lat="47.04697" lon="2.40228">
        <ele>130</ele>
        <time>2021-08-26T14:31:44Z</time>
      </trkpt>
      <trkpt lat="47.04692" lon="2.40236">
        <ele>129</ele>
        <time>2021-08-26T14:31:44Z</time>
      </trkpt>
      <trkpt lat="47.04686" lon="2.40242">
        <ele>129</ele>
        <time>2021-08-26T14:31:44Z</time>
      </trkpt>
      <trkpt lat="47.04681" lon="2.40246">
        <ele>129</ele>
        <time>2021-08-26T14:31:44Z</time>
      </trkpt>
      <trkpt lat="47.04676" lon="2.40255">
        <ele>129</ele>
        <time>2021-08-26T14:31:44Z</time>
      </trkpt>
      <trkpt lat="47.04671" lon="2.40262">
        <ele>128</ele>
        <time>2021-08-26T14:31:44Z</time>
      </trkpt>
      <trkpt lat="47.04666" lon="2.40268">
        <ele>127</ele>
        <time>2021-08-26T14:31:44Z</time>
      </trkpt>
      <trkpt lat="47.0466" lon="2.40272">
        <ele>127</ele>
        <time>2021-08-26T14:31:44Z</time>
      </trkpt>
      <trkpt lat="47.04656" lon="2.40276">
        <ele>126</ele>
        <time>2021-08-26T14:31:44Z</time>
      </trkpt>
      <trkpt lat="47.0465" lon="2.40278">
        <ele>126</ele>
        <time>2021-08-26T14:31:44Z</time>
      </trkpt>
      <trkpt lat="47.04642" lon="2.40279">
        <ele>126</ele>
        <time>2021-08-26T14:31:44Z</time>
      </trkpt>
      <trkpt lat="47.04635" lon="2.40279">
        <ele>126</ele>
        <time>2021-08-26T14:31:44Z</time>
      </trkpt>
      <trkpt lat="47.04628" lon="2.40278">
        <ele>127</ele>
        <time>2021-08-26T14:31:44Z</time>
      </trkpt>
      <trkpt lat="47.04621" lon="2.40279">
        <ele>129</ele>
        <time>2021-08-26T14:31:44Z</time>
      </trkpt>
      <trkpt lat="47.04614" lon="2.40279">
        <ele>130</ele>
        <time>2021-08-26T14:31:44Z</time>
      </trkpt>
      <trkpt lat="47.04608" lon="2.40281">
        <ele>130</ele>
        <time>2021-08-26T14:31:44Z</time>
      </trkpt>
      <trkpt lat="47.04602" lon="2.40285">
        <ele>129</ele>
        <time>2021-08-26T14:31:44Z</time>
      </trkpt>
      <trkpt lat="47.04595" lon="2.40287">
        <ele>128</ele>
        <time>2021-08-26T14:31:44Z</time>
      </trkpt>
      <trkpt lat="47.04589" lon="2.40289">
        <ele>128</ele>
        <time>2021-08-26T14:31:44Z</time>
      </trkpt>
      <trkpt lat="47.04583" lon="2.40288">
        <ele>128</ele>
        <time>2021-08-26T14:31:44Z</time>
      </trkpt>
      <trkpt lat="47.04576" lon="2.40289">
        <ele>127</ele>
        <time>2021-08-26T14:31:44Z</time>
      </trkpt>
      <trkpt lat="47.0457" lon="2.40288">
        <ele>127</ele>
        <time>2021-08-26T14:31:44Z</time>
      </trkpt>
      <trkpt lat="47.04564" lon="2.40287">
        <ele>127</ele>
        <time>2021-08-26T14:31:44Z</time>
      </trkpt>
      <trkpt lat="47.04528" lon="2.40282">
        <ele>126</ele>
        <time>2021-08-26T14:31:44Z</time>
      </trkpt>
      <trkpt lat="47.04497" lon="2.40267">
        <ele>128</ele>
        <time>2021-08-26T14:31:44Z</time>
      </trkpt>
      <trkpt lat="47.04469" lon="2.40244">
        <ele>134</ele>
        <time>2021-08-26T14:31:44Z</time>
      </trkpt>
      <trkpt lat="47.04438" lon="2.40226">
        <ele>133</ele>
        <time>2021-08-26T14:31:44Z</time>
      </trkpt>
      <trkpt lat="47.04404" lon="2.40237">
        <ele>127</ele>
        <time>2021-08-26T14:31:44Z</time>
      </trkpt>
      <trkpt lat="47.0438" lon="2.40257">
        <ele>126</ele>
        <time>2021-08-26T14:31:44Z</time>
      </trkpt>
      <trkpt lat="47.04375" lon="2.40262">
        <ele>126</ele>
        <time>2021-08-26T14:31:44Z</time>
      </trkpt>
      <trkpt lat="47.04347" lon="2.40287">
        <ele>126</ele>
        <time>2021-08-26T14:31:44Z</time>
      </trkpt>
      <trkpt lat="47.04319" lon="2.40313">
        <ele>127</ele>
        <time>2021-08-26T14:31:44Z</time>
      </trkpt>
      <trkpt lat="47.04291" lon="2.40339">
        <ele>128</ele>
        <time>2021-08-26T14:31:44Z</time>
      </trkpt>
      <trkpt lat="47.04265" lon="2.40367">
        <ele>129</ele>
        <time>2021-08-26T14:31:44Z</time>
      </trkpt>
      <trkpt lat="47.04238" lon="2.40381">
        <ele>130</ele>
        <time>2021-08-26T14:31:44Z</time>
      </trkpt>
      <trkpt lat="47.04229" lon="2.40402">
        <ele>130</ele>
        <time>2021-08-26T14:31:44Z</time>
      </trkpt>
      <trkpt lat="47.04228" lon="2.40411">
        <ele>130</ele>
        <time>2021-08-26T14:31:44Z</time>
      </trkpt>
      <trkpt lat="47.04226" lon="2.40427">
        <ele>129</ele>
        <time>2021-08-26T14:31:44Z</time>
      </trkpt>
      <trkpt lat="47.04224" lon="2.40436">
        <ele>129</ele>
        <time>2021-08-26T14:31:44Z</time>
      </trkpt>
      <trkpt lat="47.04222" lon="2.40444">
        <ele>129</ele>
        <time>2021-08-26T14:31:44Z</time>
      </trkpt>
      <trkpt lat="47.0422" lon="2.40454">
        <ele>128</ele>
        <time>2021-08-26T14:31:44Z</time>
      </trkpt>
      <trkpt lat="47.04217" lon="2.40462">
        <ele>128</ele>
        <time>2021-08-26T14:31:44Z</time>
      </trkpt>
      <trkpt lat="47.04215" lon="2.40471">
        <ele>128</ele>
        <time>2021-08-26T14:31:44Z</time>
      </trkpt>
      <trkpt lat="47.04213" lon="2.4048">
        <ele>128</ele>
        <time>2021-08-26T14:31:44Z</time>
      </trkpt>
      <trkpt lat="47.04212" lon="2.4049">
        <ele>127</ele>
        <time>2021-08-26T14:31:44Z</time>
      </trkpt>
      <trkpt lat="47.04212" lon="2.40498">
        <ele>127</ele>
        <time>2021-08-26T14:31:44Z</time>
      </trkpt>
      <trkpt lat="47.04211" lon="2.40507">
        <ele>127</ele>
        <time>2021-08-26T14:31:44Z</time>
      </trkpt>
      <trkpt lat="47.0421" lon="2.40516">
        <ele>127</ele>
        <time>2021-08-26T14:31:44Z</time>
      </trkpt>
      <trkpt lat="47.04209" lon="2.40525">
        <ele>127</ele>
        <time>2021-08-26T14:31:44Z</time>
      </trkpt>
      <trkpt lat="47.04209" lon="2.40535">
        <ele>127</ele>
        <time>2021-08-26T14:31:44Z</time>
      </trkpt>
      <trkpt lat="47.04208" lon="2.40544">
        <ele>126</ele>
        <time>2021-08-26T14:31:44Z</time>
      </trkpt>
      <trkpt lat="47.04207" lon="2.40553">
        <ele>126</ele>
        <time>2021-08-26T14:31:44Z</time>
      </trkpt>
      <trkpt lat="47.04206" lon="2.40562">
        <ele>126</ele>
        <time>2021-08-26T14:31:44Z</time>
      </trkpt>
      <trkpt lat="47.04205" lon="2.40571">
        <ele>126</ele>
        <time>2021-08-26T14:31:44Z</time>
      </trkpt>
      <trkpt lat="47.04204" lon="2.4058">
        <ele>126</ele>
        <time>2021-08-26T14:31:44Z</time>
      </trkpt>
      <trkpt lat="47.04204" lon="2.4059">
        <ele>126</ele>
        <time>2021-08-26T14:31:44Z</time>
      </trkpt>
      <trkpt lat="47.04203" lon="2.40599">
        <ele>126</ele>
        <time>2021-08-26T14:31:44Z</time>
      </trkpt>
      <trkpt lat="47.04202" lon="2.40608">
        <ele>126</ele>
        <time>2021-08-26T14:31:44Z</time>
      </trkpt>
      <trkpt lat="47.04203" lon="2.40617">
        <ele>126</ele>
        <time>2021-08-26T14:31:44Z</time>
      </trkpt>
      <trkpt lat="47.04204" lon="2.40627">
        <ele>126</ele>
        <time>2021-08-26T14:31:44Z</time>
      </trkpt>
      <trkpt lat="47.04206" lon="2.40636">
        <ele>126</ele>
        <time>2021-08-26T14:31:44Z</time>
      </trkpt>
      <trkpt lat="47.04208" lon="2.40644">
        <ele>126</ele>
        <time>2021-08-26T14:31:44Z</time>
      </trkpt>
      <trkpt lat="47.04212" lon="2.40652">
        <ele>126</ele>
        <time>2021-08-26T14:31:44Z</time>
      </trkpt>
      <trkpt lat="47.04216" lon="2.40659">
        <ele>126</ele>
        <time>2021-08-26T14:31:44Z</time>
      </trkpt>
      <trkpt lat="47.04221" lon="2.40665">
        <ele>126</ele>
        <time>2021-08-26T14:31:44Z</time>
      </trkpt>
      <trkpt lat="47.04227" lon="2.40669">
        <ele>126</ele>
        <time>2021-08-26T14:31:44Z</time>
      </trkpt>
      <trkpt lat="47.04232" lon="2.40674">
        <ele>126</ele>
        <time>2021-08-26T14:31:44Z</time>
      </trkpt>
      <trkpt lat="47.04237" lon="2.40679">
        <ele>126</ele>
        <time>2021-08-26T14:31:44Z</time>
      </trkpt>
      <trkpt lat="47.04242" lon="2.40684">
        <ele>126</ele>
        <time>2021-08-26T14:31:44Z</time>
      </trkpt>
      <trkpt lat="47.04248" lon="2.40688">
        <ele>126</ele>
        <time>2021-08-26T14:31:44Z</time>
      </trkpt>
      <trkpt lat="47.04254" lon="2.40692">
        <ele>126</ele>
        <time>2021-08-26T14:31:44Z</time>
      </trkpt>
      <trkpt lat="47.04259" lon="2.40696">
        <ele>126</ele>
        <time>2021-08-26T14:31:44Z</time>
      </trkpt>
      <trkpt lat="47.04264" lon="2.40701">
        <ele>126</ele>
        <time>2021-08-26T14:31:44Z</time>
      </trkpt>
      <trkpt lat="47.0427" lon="2.40705">
        <ele>126</ele>
        <time>2021-08-26T14:31:44Z</time>
      </trkpt>
      <trkpt lat="47.04275" lon="2.4071">
        <ele>126</ele>
        <time>2021-08-26T14:31:44Z</time>
      </trkpt>
      <trkpt lat="47.0428" lon="2.40714">
        <ele>126</ele>
        <time>2021-08-26T14:31:44Z</time>
      </trkpt>
      <trkpt lat="47.04285" lon="2.40719">
        <ele>126</ele>
        <time>2021-08-26T14:31:44Z</time>
      </trkpt>
      <trkpt lat="47.0429" lon="2.40724">
        <ele>126</ele>
        <time>2021-08-26T14:31:44Z</time>
      </trkpt>
      <trkpt lat="47.04295" lon="2.40728">
        <ele>126</ele>
        <time>2021-08-26T14:31:44Z</time>
      </trkpt>
      <trkpt lat="47.043" lon="2.40733">
        <ele>127</ele>
        <time>2021-08-26T14:31:44Z</time>
      </trkpt>
      <trkpt lat="47.04305" lon="2.40737">
        <ele>129</ele>
        <time>2021-08-26T14:31:44Z</time>
      </trkpt>
      <trkpt lat="47.0431" lon="2.40742">
        <ele>130</ele>
        <time>2021-08-26T14:31:44Z</time>
      </trkpt>
      <trkpt lat="47.04314" lon="2.40745">
        <ele>130</ele>
        <time>2021-08-26T14:31:44Z</time>
      </trkpt>
      <trkpt lat="47.0432" lon="2.40745">
        <ele>130</ele>
        <time>2021-08-26T14:31:44Z</time>
      </trkpt>
      <trkpt lat="47.04326" lon="2.40746">
        <ele>130</ele>
        <time>2021-08-26T14:31:44Z</time>
      </trkpt>
      <trkpt lat="47.04331" lon="2.40747">
        <ele>130</ele>
        <time>2021-08-26T14:31:44Z</time>
      </trkpt>
      <trkpt lat="47.04337" lon="2.40747">
        <ele>130</ele>
        <time>2021-08-26T14:31:44Z</time>
      </trkpt>
      <trkpt lat="47.04343" lon="2.40747">
        <ele>130</ele>
        <time>2021-08-26T14:31:44Z</time>
      </trkpt>
      <trkpt lat="47.04349" lon="2.40746">
        <ele>130</ele>
        <time>2021-08-26T14:31:44Z</time>
      </trkpt>
      <trkpt lat="47.04355" lon="2.40745">
        <ele>130</ele>
        <time>2021-08-26T14:31:44Z</time>
      </trkpt>
      <trkpt lat="47.04361" lon="2.40744">
        <ele>130</ele>
        <time>2021-08-26T14:31:44Z</time>
      </trkpt>
      <trkpt lat="47.04366" lon="2.40743">
        <ele>130</ele>
        <time>2021-08-26T14:31:44Z</time>
      </trkpt>
      <trkpt lat="47.04373" lon="2.40742">
        <ele>129</ele>
        <time>2021-08-26T14:31:44Z</time>
      </trkpt>
      <trkpt lat="47.04378" lon="2.40741">
        <ele>129</ele>
        <time>2021-08-26T14:31:44Z</time>
      </trkpt>
      <trkpt lat="47.04384" lon="2.40737">
        <ele>129</ele>
        <time>2021-08-26T14:31:44Z</time>
      </trkpt>
      <trkpt lat="47.0439" lon="2.40733">
        <ele>129</ele>
        <time>2021-08-26T14:31:44Z</time>
      </trkpt>
      <trkpt lat="47.04394" lon="2.40728">
        <ele>129</ele>
        <time>2021-08-26T14:31:44Z</time>
      </trkpt>
      <trkpt lat="47.04399" lon="2.40722">
        <ele>129</ele>
        <time>2021-08-26T14:31:44Z</time>
      </trkpt>
      <trkpt lat="47.04425" lon="2.40697">
        <ele>128</ele>
        <time>2021-08-26T14:31:44Z</time>
      </trkpt>
      <trkpt lat="47.04453" lon="2.40674">
        <ele>129</ele>
        <time>2021-08-26T14:31:44Z</time>
      </trkpt>
      <trkpt lat="47.04479" lon="2.40688">
        <ele>134</ele>
        <time>2021-08-26T14:31:44Z</time>
      </trkpt>
      <trkpt lat="47.04495" lon="2.40722">
        <ele>135</ele>
        <time>2021-08-26T14:31:44Z</time>
      </trkpt>
      <trkpt lat="47.04513" lon="2.4076">
        <ele>134</ele>
        <time>2021-08-26T14:31:44Z</time>
      </trkpt>
      <trkpt lat="47.04525" lon="2.40791">
        <ele>134</ele>
        <time>2021-08-26T14:31:44Z</time>
      </trkpt>
      <trkpt lat="47.04529" lon="2.40799">
        <ele>133</ele>
        <time>2021-08-26T14:31:44Z</time>
      </trkpt>
      <trkpt lat="47.04546" lon="2.40832">
        <ele>128</ele>
        <time>2021-08-26T14:31:44Z</time>
      </trkpt>
      <trkpt lat="47.04553" lon="2.40875">
        <ele>132</ele>
        <time>2021-08-26T14:31:44Z</time>
      </trkpt>
      <trkpt lat="47.04562" lon="2.40917">
        <ele>131</ele>
        <time>2021-08-26T14:31:44Z</time>
      </trkpt>
      <trkpt lat="47.04582" lon="2.40935">
        <ele>130</ele>
        <time>2021-08-26T14:31:44Z</time>
      </trkpt>
      <trkpt lat="47.04603" lon="2.40932">
        <ele>127</ele>
        <time>2021-08-26T14:31:44Z</time>
      </trkpt>
      <trkpt lat="47.04628" lon="2.40925">
        <ele>126</ele>
        <time>2021-08-26T14:31:44Z</time>
      </trkpt>
      <trkpt lat="47.04634" lon="2.40923">
        <ele>126</ele>
        <time>2021-08-26T14:31:44Z</time>
      </trkpt>
      <trkpt lat="47.04664" lon="2.40916">
        <ele>126</ele>
        <time>2021-08-26T14:31:44Z</time>
      </trkpt>
      <trkpt lat="47.04696" lon="2.40907">
        <ele>126</ele>
        <time>2021-08-26T14:31:44Z</time>
      </trkpt>
      <trkpt lat="47.04728" lon="2.40903">
        <ele>126</ele>
        <time>2021-08-26T14:31:44Z</time>
      </trkpt>
      <trkpt lat="47.04758" lon="2.40906">
        <ele>127</ele>
        <time>2021-08-26T14:31:44Z</time>
      </trkpt>
      <trkpt lat="47.04789" lon="2.40909">
        <ele>129</ele>
        <time>2021-08-26T14:31:44Z</time>
      </trkpt>
      <trkpt lat="47.04814" lon="2.40908">
        <ele>129</ele>
        <time>2021-08-26T14:31:44Z</time>
      </trkpt>
      <trkpt lat="47.04821" lon="2.40907">
        <ele>129</ele>
        <time>2021-08-26T14:31:44Z</time>
      </trkpt>
      <trkpt lat="47.04827" lon="2.40906">
        <ele>130</ele>
        <time>2021-08-26T14:31:44Z</time>
      </trkpt>
      <trkpt lat="47.04833" lon="2.40905">
        <ele>130</ele>
        <time>2021-08-26T14:31:44Z</time>
      </trkpt>
      <trkpt lat="47.04839" lon="2.40903">
        <ele>130</ele>
        <time>2021-08-26T14:31:44Z</time>
      </trkpt>
      <trkpt lat="47.04845" lon="2.40901">
        <ele>130</ele>
        <time>2021-08-26T14:31:44Z</time>
      </trkpt>
      <trkpt lat="47.0485" lon="2.40898">
        <ele>130</ele>
        <time>2021-08-26T14:31:44Z</time>
      </trkpt>
      <trkpt lat="47.04856" lon="2.40894">
        <ele>130</ele>
        <time>2021-08-26T14:31:44Z</time>
      </trkpt>
      <trkpt lat="47.04861" lon="2.4089">
        <ele>130</ele>
        <time>2021-08-26T14:31:44Z</time>
      </trkpt>
      <trkpt lat="47.04866" lon="2.40886">
        <ele>129</ele>
        <time>2021-08-26T14:31:44Z</time>
      </trkpt>
      <trkpt lat="47.04871" lon="2.40882">
        <ele>129</ele>
        <time>2021-08-26T14:31:44Z</time>
      </trkpt>
      <trkpt lat="47.04876" lon="2.40878">
        <ele>129</ele>
        <time>2021-08-26T14:31:44Z</time>
      </trkpt>
      <trkpt lat="47.04881" lon="2.40874">
        <ele>129</ele>
        <time>2021-08-26T14:31:44Z</time>
      </trkpt>
      <trkpt lat="47.04885" lon="2.40871">
        <ele>129</ele>
        <time>2021-08-26T14:31:44Z</time>
      </trkpt>
      <trkpt lat="47.04889" lon="2.40868">
        <ele>128</ele>
        <time>2021-08-26T14:31:44Z</time>
      </trkpt>
      <trkpt lat="47.04893" lon="2.40865">
        <ele>128</ele>
        <time>2021-08-26T14:31:44Z</time>
      </trkpt>
      <trkpt lat="47.04895" lon="2.40863">
        <ele>128</ele>
        <time>2021-08-26T14:31:44Z</time>
      </trkpt>
      <trkpt lat="47.04898" lon="2.40862">
        <ele>128</ele>
        <time>2021-08-26T14:31:44Z</time>
      </trkpt>
      <trkpt lat="47.04899" lon="2.4086">
        <ele>128</ele>
        <time>2021-08-26T14:31:44Z</time>
      </trkpt>
      <trkpt lat="47.04901" lon="2.40859">
        <ele>128</ele>
        <time>2021-08-26T14:31:44Z</time>
      </trkpt>
      <trkpt lat="47.04902" lon="2.40858">
        <ele>128</ele>
        <time>2021-08-26T14:31:44Z</time>
      </trkpt>
      <trkpt lat="47.04903" lon="2.40858">
        <ele>128</ele>
        <time>2021-08-26T14:31:44Z</time>
      </trkpt>
      <trkpt lat="47.04903" lon="2.40858">
        <ele>128</ele>
        <time>2021-08-26T14:31:44Z</time>
      </trkpt>
      <trkpt lat="47.04902" lon="2.40857">
        <ele>128</ele>
        <time>2021-08-26T14:31:44Z</time>
      </trkpt>
      <trkpt lat="47.04902" lon="2.40857">
        <ele>128</ele>
        <time>2021-08-26T14:31:44Z</time>
      </trkpt>
      <trkpt lat="47.04903" lon="2.40857">
        <ele>128</ele>
        <time>2021-08-26T14:31:44Z</time>
      </trkpt>
      <trkpt lat="47.04903" lon="2.40857">
        <ele>128</ele>
        <time>2021-08-26T14:31:44Z</time>
      </trkpt>
      <trkpt lat="47.04903" lon="2.40857">
        <ele>128</ele>
        <time>2021-08-26T14:31:44Z</time>
      </trkpt>
      <trkpt lat="47.04903" lon="2.40857">
        <ele>127</ele>
        <time>2021-08-26T14:31:44Z</time>
      </trkpt>
      <trkpt lat="47.04903" lon="2.40857">
        <ele>127</ele>
        <time>2021-08-26T14:31:44Z</time>
      </trkpt>
      <trkpt lat="47.04903" lon="2.40857">
        <ele>127</ele>
        <time>2021-08-26T14:31:44Z</time>
      </trkpt>
      <trkpt lat="47.04903" lon="2.40857">
        <ele>127</ele>
        <time>2021-08-26T14:31:44Z</time>
      </trkpt>
      <trkpt lat="47.04903" lon="2.40857">
        <ele>127</ele>
        <time>2021-08-26T14:31:44Z</time>
      </trkpt>
      <trkpt lat="47.04903" lon="2.40857">
        <ele>127</ele>
        <time>2021-08-26T14:31:44Z</time>
      </trkpt>
      <trkpt lat="47.04903" lon="2.40857">
        <ele>127</ele>
        <time>2021-08-26T14:31:44Z</time>
      </trkpt>
      <trkpt lat="47.04903" lon="2.40857">
        <ele>127</ele>
        <time>2021-08-26T14:31:44Z</time>
      </trkpt>
      <trkpt lat="47.04904" lon="2.40857">
        <ele>127</ele>
        <time>2021-08-26T14:31:44Z</time>
      </trkpt>
      <trkpt lat="47.04905" lon="2.40856">
        <ele>127</ele>
        <time>2021-08-26T14:31:44Z</time>
      </trkpt>
      <trkpt lat="47.04906" lon="2.40854">
        <ele>127</ele>
        <time>2021-08-26T14:31:44Z</time>
      </trkpt>
      <trkpt lat="47.04909" lon="2.40853">
        <ele>127</ele>
        <time>2021-08-26T14:31:44Z</time>
      </trkpt>
      <trkpt lat="47.04912" lon="2.4085">
        <ele>127</ele>
        <time>2021-08-26T14:31:44Z</time>
      </trkpt>
      <trkpt lat="47.04916" lon="2.40846">
        <ele>127</ele>
        <time>2021-08-26T14:31:44Z</time>
      </trkpt>
      <trkpt lat="47.0492" lon="2.40842">
        <ele>127</ele>
        <time>2021-08-26T14:31:44Z</time>
      </trkpt>
      <trkpt lat="47.04925" lon="2.40839">
        <ele>127</ele>
        <time>2021-08-26T14:31:44Z</time>
      </trkpt>
      <trkpt lat="47.0493" lon="2.40835">
        <ele>127</ele>
        <time>2021-08-26T14:31:44Z</time>
      </trkpt>
      <trkpt lat="47.04935" lon="2.40832">
        <ele>126</ele>
        <time>2021-08-26T14:31:44Z</time>
      </trkpt>
      <trkpt lat="47.04941" lon="2.40827">
        <ele>126</ele>
        <time>2021-08-26T14:31:44Z</time>
      </trkpt>
      <trkpt lat="47.04946" lon="2.40823">
        <ele>127</ele>
        <time>2021-08-26T14:31:44Z</time>
      </trkpt>
      <trkpt lat="47.04951" lon="2.40818">
        <ele>127</ele>
        <time>2021-08-26T14:31:44Z</time>
      </trkpt>
      <trkpt lat="47.04957" lon="2.40813">
        <ele>127</ele>
        <time>2021-08-26T14:31:44Z</time>
      </trkpt>
      <trkpt lat="47.04961" lon="2.40807">
        <ele>127</ele>
        <time>2021-08-26T14:31:44Z</time>
      </trkpt>
      <trkpt lat="47.04966" lon="2.40802">
        <ele>126</ele>
        <time>2021-08-26T14:31:44Z</time>
      </trkpt>
      <trkpt lat="47.04971" lon="2.40795">
        <ele>126</ele>
        <time>2021-08-26T14:31:44Z</time>
      </trkpt>
      <trkpt lat="47.04975" lon="2.40789">
        <ele>126</ele>
        <time>2021-08-26T14:31:44Z</time>
      </trkpt>
      <trkpt lat="47.0498" lon="2.40784">
        <ele>127</ele>
        <time>2021-08-26T14:31:44Z</time>
      </trkpt>
      <trkpt lat="47.04984" lon="2.40777">
        <ele>127</ele>
        <time>2021-08-26T14:31:44Z</time>
      </trkpt>
      <trkpt lat="47.04988" lon="2.4077">
        <ele>127</ele>
        <time>2021-08-26T14:31:44Z</time>
      </trkpt>
      <trkpt lat="47.04993" lon="2.40764">
        <ele>127</ele>
        <time>2021-08-26T14:31:44Z</time>
      </trkpt>
      <trkpt lat="47.04998" lon="2.40757">
        <ele>126</ele>
        <time>2021-08-26T14:31:44Z</time>
      </trkpt>
      <trkpt lat="47.05019" lon="2.40724">
        <ele>129</ele>
        <time>2021-08-26T14:31:44Z</time>
      </trkpt>
      <trkpt lat="47.05031" lon="2.40682">
        <ele>130</ele>
        <time>2021-08-26T14:31:44Z</time>
      </trkpt>
      <trkpt lat="47.05023" lon="2.40636">
        <ele>128</ele>
        <time>2021-08-26T14:31:44Z</time>
      </trkpt>
      <trkpt lat="47.05022" lon="2.40586">
        <ele>128</ele>
        <time>2021-08-26T14:31:44Z</time>
      </trkpt>
      <trkpt lat="47.05034" lon="2.4054">
        <ele>128</ele>
        <time>2021-08-26T14:31:44Z</time>
      </trkpt>
      <trkpt lat="47.05048" lon="2.40509">
        <ele>127</ele>
        <time>2021-08-26T14:31:44Z</time>
      </trkpt>
      <trkpt lat="47.05052" lon="2.40502">
        <ele>127</ele>
        <time>2021-08-26T14:31:44Z</time>
      </trkpt>
      <trkpt lat="47.05078" lon="2.40479">
        <ele>129</ele>
        <time>2021-08-26T14:31:44Z</time>
      </trkpt>
      <trkpt lat="47.05105" lon="2.40463">
        <ele>130</ele>
        <time>2021-08-26T14:31:44Z</time>
      </trkpt>
      <trkpt lat="47.05135" lon="2.40446">
        <ele>129</ele>
        <time>2021-08-26T14:31:44Z</time>
      </trkpt>
      <trkpt lat="47.05164" lon="2.40431">
        <ele>128</ele>
        <time>2021-08-26T14:31:44Z</time>
      </trkpt>
      <trkpt lat="47.05192" lon="2.40418">
        <ele>130</ele>
        <time>2021-08-26T14:31:44Z</time>
      </trkpt>
      <trkpt lat="47.05215" lon="2.40409">
        <ele>130</ele>
        <time>2021-08-26T14:31:44Z</time>
      </trkpt>
      <trkpt lat="47.05221" lon="2.40407">
        <ele>129</ele>
        <time>2021-08-26T14:31:44Z</time>
      </trkpt>
      <trkpt lat="47.05248" lon="2.40398">
        <ele>129</ele>
        <time>2021-08-26T14:31:44Z</time>
      </trkpt>
      <trkpt lat="47.05276" lon="2.40387">
        <ele>129</ele>
        <time>2021-08-26T14:31:44Z</time>
      </trkpt>
      <trkpt lat="47.05305" lon="2.40381">
        <ele>129</ele>
        <time>2021-08-26T14:31:44Z</time>
      </trkpt>
      <trkpt lat="47.05333" lon="2.40374">
        <ele>127</ele>
        <time>2021-08-26T14:31:44Z</time>
      </trkpt>
      <trkpt lat="47.05361" lon="2.40399">
        <ele>126</ele>
        <time>2021-08-26T14:31:44Z</time>
      </trkpt>
      <trkpt lat="47.0538" lon="2.40421">
        <ele>127</ele>
        <time>2021-08-26T14:31:44Z</time>
      </trkpt>
      <trkpt lat="47.05385" lon="2.40426">
        <ele>127</ele>
        <time>2021-08-26T14:31:44Z</time>
      </trkpt>
      <trkpt lat="47.05416" lon="2.40426">
        <ele>126</ele>
        <time>2021-08-26T14:31:44Z</time>
      </trkpt>
      <trkpt lat="47.05444" lon="2.40411">
        <ele>126</ele>
        <time>2021-08-26T14:31:44Z</time>
      </trkpt>
      <trkpt lat="47.05474" lon="2.40393">
        <ele>126</ele>
        <time>2021-08-26T14:31:44Z</time>
      </trkpt>
      <trkpt lat="47.05504" lon="2.40378">
        <ele>130</ele>
        <time>2021-08-26T14:31:44Z</time>
      </trkpt>
      <trkpt lat="47.05534" lon="2.40364">
        <ele>129</ele>
        <time>2021-08-26T14:31:44Z</time>
      </trkpt>
      <trkpt lat="47.05557" lon="2.40353">
        <ele>127</ele>
        <time>2021-08-26T14:31:44Z</time>
      </trkpt>
      <trkpt lat="47.05563" lon="2.40351">
        <ele>126</ele>
        <time>2021-08-26T14:31:44Z</time>
      </trkpt>
      <trkpt lat="47.05575" lon="2.40346">
        <ele>125</ele>
        <time>2021-08-26T14:31:44Z</time>
      </trkpt>
      <trkpt lat="47.05581" lon="2.40344">
        <ele>125</ele>
        <time>2021-08-26T14:31:44Z</time>
      </trkpt>
      <trkpt lat="47.05586" lon="2.40342">
        <ele>124</ele>
        <time>2021-08-26T14:31:44Z</time>
      </trkpt>
      <trkpt lat="47.05592" lon="2.40341">
        <ele>125</ele>
        <time>2021-08-26T14:31:44Z</time>
      </trkpt>
      <trkpt lat="47.05598" lon="2.4034">
        <ele>125</ele>
        <time>2021-08-26T14:31:44Z</time>
      </trkpt>
      <trkpt lat="47.05604" lon="2.4034">
        <ele>125</ele>
        <time>2021-08-26T14:31:44Z</time>
      </trkpt>
      <trkpt lat="47.0561" lon="2.40339">
        <ele>126</ele>
        <time>2021-08-26T14:31:44Z</time>
      </trkpt>
      <trkpt lat="47.05616" lon="2.40337">
        <ele>126</ele>
        <time>2021-08-26T14:31:44Z</time>
      </trkpt>
      <trkpt lat="47.05621" lon="2.40334">
        <ele>127</ele>
        <time>2021-08-26T14:31:44Z</time>
      </trkpt>
      <trkpt lat="47.05626" lon="2.40332">
        <ele>128</ele>
        <time>2021-08-26T14:31:44Z</time>
      </trkpt>
      <trkpt lat="47.05631" lon="2.4033">
        <ele>129</ele>
        <time>2021-08-26T14:31:44Z</time>
      </trkpt>
      <trkpt lat="47.05637" lon="2.40327">
        <ele>130</ele>
        <time>2021-08-26T14:31:44Z</time>
      </trkpt>
      <trkpt lat="47.05642" lon="2.40326">
        <ele>130</ele>
        <time>2021-08-26T14:31:44Z</time>
      </trkpt>
      <trkpt lat="47.05646" lon="2.40323">
        <ele>131</ele>
        <time>2021-08-26T14:31:44Z</time>
      </trkpt>
      <trkpt lat="47.05651" lon="2.40321">
        <ele>131</ele>
        <time>2021-08-26T14:31:44Z</time>
      </trkpt>
      <trkpt lat="47.05655" lon="2.4032">
        <ele>132</ele>
        <time>2021-08-26T14:31:44Z</time>
      </trkpt>
      <trkpt lat="47.05659" lon="2.40318">
        <ele>133</ele>
        <time>2021-08-26T14:31:44Z</time>
      </trkpt>
      <trkpt lat="47.05662" lon="2.40312">
        <ele>133</ele>
        <time>2021-08-26T14:31:44Z</time>
      </trkpt>
      <trkpt lat="47.05662" lon="2.40307">
        <ele>134</ele>
        <time>2021-08-26T14:31:44Z</time>
      </trkpt>
      <trkpt lat="47.05661" lon="2.40302">
        <ele>134</ele>
        <time>2021-08-26T14:31:44Z</time>
      </trkpt>
      <trkpt lat="47.0566" lon="2.40297">
        <ele>134</ele>
        <time>2021-08-26T14:31:44Z</time>
      </trkpt>
      <trkpt lat="47.05658" lon="2.40291">
        <ele>134</ele>
        <time>2021-08-26T14:31:44Z</time>
      </trkpt>
      <trkpt lat="47.05658" lon="2.40284">
        <ele>134</ele>
        <time>2021-08-26T14:31:44Z</time>
      </trkpt>
      <trkpt lat="47.05656" lon="2.40278">
        <ele>134</ele>
        <time>2021-08-26T14:31:44Z</time>
      </trkpt>
      <trkpt lat="47.05654" lon="2.40272">
        <ele>134</ele>
        <time>2021-08-26T14:31:44Z</time>
      </trkpt>
      <trkpt lat="47.05653" lon="2.40266">
        <ele>134</ele>
        <time>2021-08-26T14:31:44Z</time>
      </trkpt>
      <trkpt lat="47.05652" lon="2.4026">
        <ele>134</ele>
        <time>2021-08-26T14:31:44Z</time>
      </trkpt>
      <trkpt lat="47.05651" lon="2.40254">
        <ele>134</ele>
        <time>2021-08-26T14:31:44Z</time>
      </trkpt>
      <trkpt lat="47.0565" lon="2.40249">
        <ele>135</ele>
        <time>2021-08-26T14:31:44Z</time>
      </trkpt>
      <trkpt lat="47.05649" lon="2.40244">
        <ele>135</ele>
        <time>2021-08-26T14:31:44Z</time>
      </trkpt>
      <trkpt lat="47.05648" lon="2.40239">
        <ele>135</ele>
        <time>2021-08-26T14:31:44Z</time>
      </trkpt>
      <trkpt lat="47.05647" lon="2.40234">
        <ele>135</ele>
        <time>2021-08-26T14:31:44Z</time>
      </trkpt>
      <trkpt lat="47.05646" lon="2.40229">
        <ele>135</ele>
        <time>2021-08-26T14:31:44Z</time>
      </trkpt>
      <trkpt lat="47.05645" lon="2.40225">
        <ele>136</ele>
        <time>2021-08-26T14:31:44Z</time>
      </trkpt>
      <trkpt lat="47.05645" lon="2.40222">
        <ele>136</ele>
        <time>2021-08-26T14:31:44Z</time>
      </trkpt>
      <trkpt lat="47.05644" lon="2.4022">
        <ele>136</ele>
        <time>2021-08-26T14:31:44Z</time>
      </trkpt>
      <trkpt lat="47.05643" lon="2.40217">
        <ele>136</ele>
        <time>2021-08-26T14:31:44Z</time>
      </trkpt>
      <trkpt lat="47.05643" lon="2.40214">
        <ele>136</ele>
        <time>2021-08-26T14:31:44Z</time>
      </trkpt>
      <trkpt lat="47.05642" lon="2.40212">
        <ele>136</ele>
        <time>2021-08-26T14:31:44Z</time>
      </trkpt>
      <trkpt lat="47.05644" lon="2.4021">
        <ele>136</ele>
        <time>2021-08-26T14:31:44Z</time>
      </trkpt>
      <trkpt lat="47.05646" lon="2.40207">
        <ele>136</ele>
        <time>2021-08-26T14:31:44Z</time>
      </trkpt>
      <trkpt lat="47.0565" lon="2.40206">
        <ele>136</ele>
        <time>2021-08-26T14:31:44Z</time>
      </trkpt>
      <trkpt lat="47.05654" lon="2.40204">
        <ele>137</ele>
        <time>2021-08-26T14:31:44Z</time>
      </trkpt>
      <trkpt lat="47.05659" lon="2.40202">
        <ele>137</ele>
        <time>2021-08-26T14:31:44Z</time>
      </trkpt>
      <trkpt lat="47.05664" lon="2.402">
        <ele>137</ele>
        <time>2021-08-26T14:31:44Z</time>
      </trkpt>
      <trkpt lat="47.05669" lon="2.40198">
        <ele>137</ele>
        <time>2021-08-26T14:31:44Z</time>
      </trkpt>
      <trkpt lat="47.05674" lon="2.40196">
        <ele>137</ele>
        <time>2021-08-26T14:31:44Z</time>
      </trkpt>
      <trkpt lat="47.05679" lon="2.40194">
        <ele>137</ele>
        <time>2021-08-26T14:31:44Z</time>
      </trkpt>
      <trkpt lat="47.05684" lon="2.40192">
        <ele>136</ele>
        <time>2021-08-26T14:31:44Z</time>
      </trkpt>
      <trkpt lat="47.0569" lon="2.40189">
        <ele>136</ele>
        <time>2021-08-26T14:31:44Z</time>
      </trkpt>
      <trkpt lat="47.05695" lon="2.40187">
        <ele>136</ele>
        <time>2021-08-26T14:31:44Z</time>
      </trkpt>
      <trkpt lat="47.057" lon="2.40185">
        <ele>135</ele>
        <time>2021-08-26T14:31:44Z</time>
      </trkpt>
      <trkpt lat="47.05705" lon="2.40182">
        <ele>135</ele>
        <time>2021-08-26T14:31:44Z</time>
      </trkpt>
      <trkpt lat="47.0571" lon="2.4018">
        <ele>135</ele>
        <time>2021-08-26T14:31:44Z</time>
      </trkpt>
      <trkpt lat="47.05716" lon="2.40178">
        <ele>134</ele>
        <time>2021-08-26T14:31:44Z</time>
      </trkpt>
      <trkpt lat="47.05721" lon="2.40175">
        <ele>134</ele>
        <time>2021-08-26T14:31:44Z</time>
      </trkpt>
      <trkpt lat="47.05727" lon="2.40173">
        <ele>133</ele>
        <time>2021-08-26T14:31:44Z</time>
      </trkpt>
      <trkpt lat="47.05731" lon="2.4017">
        <ele>133</ele>
        <time>2021-08-26T14:31:44Z</time>
      </trkpt>
      <trkpt lat="47.05736" lon="2.40167">
        <ele>133</ele>
        <time>2021-08-26T14:31:44Z</time>
      </trkpt>
      <trkpt lat="47.05741" lon="2.40164">
        <ele>133</ele>
        <time>2021-08-26T14:31:44Z</time>
      </trkpt>
      <trkpt lat="47.05747" lon="2.40162">
        <ele>132</ele>
        <time>2021-08-26T14:31:44Z</time>
      </trkpt>
      <trkpt lat="47.05772" lon="2.40151">
        <ele>131</ele>
        <time>2021-08-26T14:31:44Z</time>
      </trkpt>
      <trkpt lat="47.05799" lon="2.40142">
        <ele>132</ele>
        <time>2021-08-26T14:31:44Z</time>
      </trkpt>
      <trkpt lat="47.05825" lon="2.40148">
        <ele>132</ele>
        <time>2021-08-26T14:31:44Z</time>
      </trkpt>
      <trkpt lat="47.05845" lon="2.40167">
        <ele>132</ele>
        <time>2021-08-26T14:31:44Z</time>
      </trkpt>
      <trkpt lat="47.0587" lon="2.40157">
        <ele>131</ele>
        <time>2021-08-26T14:31:44Z</time>
      </trkpt>
      <trkpt lat="47.0589" lon="2.40148">
        <ele>131</ele>
        <time>2021-08-26T14:31:44Z</time>
      </trkpt>
      <trkpt lat="47.05895" lon="2.40146">
        <ele>131</ele>
        <time>2021-08-26T14:31:44Z</time>
      </trkpt>
      <trkpt lat="47.05921" lon="2.40136">
        <ele>129</ele>
        <time>2021-08-26T14:31:44Z</time>
      </trkpt>
      <trkpt lat="47.05945" lon="2.40124">
        <ele>129</ele>
        <time>2021-08-26T14:31:44Z</time>
      </trkpt>
      <trkpt lat="47.05951" lon="2.40096">
        <ele>128</ele>
        <time>2021-08-26T14:31:44Z</time>
      </trkpt>
      <trkpt lat="47.05961" lon="2.40056">
        <ele>128</ele>
        <time>2021-08-26T14:31:44Z</time>
      </trkpt>
      <trkpt lat="47.0596" lon="2.40012">
        <ele>126</ele>
        <time>2021-08-26T14:31:44Z</time>
      </trkpt>
      <trkpt lat="47.05975" lon="2.39989">
        <ele>126</ele>
        <time>2021-08-26T14:31:44Z</time>
      </trkpt>
      <trkpt lat="47.05981" lon="2.39987">
        <ele>126</ele>
        <time>2021-08-26T14:31:44Z</time>
      </trkpt>
      <trkpt lat="47.06009" lon="2.39975">
        <ele>128</ele>
        <time>2021-08-26T14:31:44Z</time>
      </trkpt>
      <trkpt lat="47.06037" lon="2.39962">
        <ele>129</ele>
        <time>2021-08-26T14:31:44Z</time>
      </trkpt>
      <trkpt lat="47.06066" lon="2.3995">
        <ele>130</ele>
        <time>2021-08-26T14:31:44Z</time>
      </trkpt>
      <trkpt lat="47.06097" lon="2.39937">
        <ele>128</ele>
        <time>2021-08-26T14:31:44Z</time>
      </trkpt>
      <trkpt lat="47.06123" lon="2.39923">
        <ele>126</ele>
        <time>2021-08-26T14:31:44Z</time>
      </trkpt>
      <trkpt lat="47.06137" lon="2.39945">
        <ele>127</ele>
        <time>2021-08-26T14:31:44Z</time>
      </trkpt>
      <trkpt lat="47.06139" lon="2.39952">
        <ele>127</ele>
        <time>2021-08-26T14:31:44Z</time>
      </trkpt>
      <trkpt lat="47.06143" lon="2.39982">
        <ele>129</ele>
        <time>2021-08-26T14:31:44Z</time>
      </trkpt>
      <trkpt lat="47.06132" lon="2.39992">
        <ele>129</ele>
        <time>2021-08-26T14:31:44Z</time>
      </trkpt>
      <trkpt lat="47.06115" lon="2.40012">
        <ele>130</ele>
        <time>2021-08-26T14:31:44Z</time>
      </trkpt>
      <trkpt lat="47.06098" lon="2.40036">
        <ele>130</ele>
        <time>2021-08-26T14:31:44Z</time>
      </trkpt>
      <trkpt lat="47.06082" lon="2.40067">
        <ele>132</ele>
        <time>2021-08-26T14:31:44Z</time>
      </trkpt>
      <trkpt lat="47.06068" lon="2.40095">
        <ele>133</ele>
        <time>2021-08-26T14:31:44Z</time>
      </trkpt>
      <trkpt lat="47.06065" lon="2.40103">
        <ele>133</ele>
        <time>2021-08-26T14:31:44Z</time>
      </trkpt>
      <trkpt lat="47.06062" lon="2.4011">
        <ele>134</ele>
        <time>2021-08-26T14:31:44Z</time>
      </trkpt>
      <trkpt lat="47.06058" lon="2.40116">
        <ele>134</ele>
        <time>2021-08-26T14:31:44Z</time>
      </trkpt>
      <trkpt lat="47.06054" lon="2.40122">
        <ele>134</ele>
        <time>2021-08-26T14:31:44Z</time>
      </trkpt>
      <trkpt lat="47.0605" lon="2.40127">
        <ele>134</ele>
        <time>2021-08-26T14:31:44Z</time>
      </trkpt>
      <trkpt lat="47.06046" lon="2.40131">
        <ele>134</ele>
        <time>2021-08-26T14:31:44Z</time>
      </trkpt>
      <trkpt lat="47.06042" lon="2.40135">
        <ele>134</ele>
        <time>2021-08-26T14:31:44Z</time>
      </trkpt>
      <trkpt lat="47.06038" lon="2.40138">
        <ele>134</ele>
        <time>2021-08-26T14:31:44Z</time>
      </trkpt>
      <trkpt lat="47.06034" lon="2.40141">
        <ele>133</ele>
        <time>2021-08-26T14:31:44Z</time>
      </trkpt>
      <trkpt lat="47.06031" lon="2.40143">
        <ele>133</ele>
        <time>2021-08-26T14:31:44Z</time>
      </trkpt>
      <trkpt lat="47.06028" lon="2.40145">
        <ele>133</ele>
        <time>2021-08-26T14:31:44Z</time>
      </trkpt>
      <trkpt lat="47.06027" lon="2.40148">
        <ele>133</ele>
        <time>2021-08-26T14:31:44Z</time>
      </trkpt>
      <trkpt lat="47.06026" lon="2.40152">
        <ele>133</ele>
        <time>2021-08-26T14:31:44Z</time>
      </trkpt>
      <trkpt lat="47.06027" lon="2.40158">
        <ele>133</ele>
        <time>2021-08-26T14:31:44Z</time>
      </trkpt>
      <trkpt lat="47.06027" lon="2.40163">
        <ele>133</ele>
        <time>2021-08-26T14:31:44Z</time>
      </trkpt>
      <trkpt lat="47.06028" lon="2.40168">
        <ele>134</ele>
        <time>2021-08-26T14:31:44Z</time>
      </trkpt>
      <trkpt lat="47.06028" lon="2.40173">
        <ele>134</ele>
        <time>2021-08-26T14:31:44Z</time>
      </trkpt>
      <trkpt lat="47.06026" lon="2.40177">
        <ele>134</ele>
        <time>2021-08-26T14:31:44Z</time>
      </trkpt>
      <trkpt lat="47.06023" lon="2.40182">
        <ele>134</ele>
        <time>2021-08-26T14:31:44Z</time>
      </trkpt>
      <trkpt lat="47.06019" lon="2.40188">
        <ele>134</ele>
        <time>2021-08-26T14:31:44Z</time>
      </trkpt>
      <trkpt lat="47.06016" lon="2.40194">
        <ele>134</ele>
        <time>2021-08-26T14:31:44Z</time>
      </trkpt>
      <trkpt lat="47.06013" lon="2.40199">
        <ele>134</ele>
        <time>2021-08-26T14:31:44Z</time>
      </trkpt>
      <trkpt lat="47.0601" lon="2.40205">
        <ele>134</ele>
        <time>2021-08-26T14:31:44Z</time>
      </trkpt>
      <trkpt lat="47.06007" lon="2.40211">
        <ele>134</ele>
        <time>2021-08-26T14:31:44Z</time>
      </trkpt>
      <trkpt lat="47.06004" lon="2.40216">
        <ele>134</ele>
        <time>2021-08-26T14:31:44Z</time>
      </trkpt>
      <trkpt lat="47.06002" lon="2.40222">
        <ele>134</ele>
        <time>2021-08-26T14:31:44Z</time>
      </trkpt>
      <trkpt lat="47.06" lon="2.40229">
        <ele>134</ele>
        <time>2021-08-26T14:31:44Z</time>
      </trkpt>
      <trkpt lat="47.05998" lon="2.40236">
        <ele>134</ele>
        <time>2021-08-26T14:31:44Z</time>
      </trkpt>
      <trkpt lat="47.05996" lon="2.40242">
        <ele>134</ele>
        <time>2021-08-26T14:31:44Z</time>
      </trkpt>
      <trkpt lat="47.05994" lon="2.40248">
        <ele>134</ele>
        <time>2021-08-26T14:31:44Z</time>
      </trkpt>
      <trkpt lat="47.05992" lon="2.40256">
        <ele>135</ele>
        <time>2021-08-26T14:31:44Z</time>
      </trkpt>
      <trkpt lat="47.05991" lon="2.40262">
        <ele>135</ele>
        <time>2021-08-26T14:31:44Z</time>
      </trkpt>
      <trkpt lat="47.0599" lon="2.40269">
        <ele>136</ele>
        <time>2021-08-26T14:31:44Z</time>
      </trkpt>
      <trkpt lat="47.05988" lon="2.40275">
        <ele>136</ele>
        <time>2021-08-26T14:31:44Z</time>
      </trkpt>
      <trkpt lat="47.05987" lon="2.40282">
        <ele>136</ele>
        <time>2021-08-26T14:31:44Z</time>
      </trkpt>
      <trkpt lat="47.05987" lon="2.40289">
        <ele>137</ele>
        <time>2021-08-26T14:31:44Z</time>
      </trkpt>
      <trkpt lat="47.05985" lon="2.40297">
        <ele>137</ele>
        <time>2021-08-26T14:31:44Z</time>
      </trkpt>
      <trkpt lat="47.05985" lon="2.40305">
        <ele>137</ele>
        <time>2021-08-26T14:31:44Z</time>
      </trkpt>
      <trkpt lat="47.05985" lon="2.40312">
        <ele>138</ele>
        <time>2021-08-26T14:31:44Z</time>
      </trkpt>
      <trkpt lat="47.05984" lon="2.40318">
        <ele>138</ele>
        <time>2021-08-26T14:31:44Z</time>
      </trkpt>
      <trkpt lat="47.05983" lon="2.40326">
        <ele>139</ele>
        <time>2021-08-26T14:31:44Z</time>
      </trkpt>
      <trkpt lat="47.05982" lon="2.40334">
        <ele>139</ele>
        <time>2021-08-26T14:31:44Z</time>
      </trkpt>
      <trkpt lat="47.05982" lon="2.40341">
        <ele>139</ele>
        <time>2021-08-26T14:31:44Z</time>
      </trkpt>
      <trkpt lat="47.05981" lon="2.40348">
        <ele>140</ele>
        <time>2021-08-26T14:31:44Z</time>
      </trkpt>
      <trkpt lat="47.0598" lon="2.40357">
        <ele>140</ele>
        <time>2021-08-26T14:31:44Z</time>
      </trkpt>
      <trkpt lat="47.05979" lon="2.40364">
        <ele>141</ele>
        <time>2021-08-26T14:31:44Z</time>
      </trkpt>
      <trkpt lat="47.05978" lon="2.40373">
        <ele>141</ele>
        <time>2021-08-26T14:31:44Z</time>
      </trkpt>
      <trkpt lat="47.05977" lon="2.40381">
        <ele>141</ele>
        <time>2021-08-26T14:31:44Z</time>
      </trkpt>
      <trkpt lat="47.05976" lon="2.40389">
        <ele>141</ele>
        <time>2021-08-26T14:31:44Z</time>
      </trkpt>
      <trkpt lat="47.05975" lon="2.40397">
        <ele>141</ele>
        <time>2021-08-26T14:31:44Z</time>
      </trkpt>
      <trkpt lat="47.05974" lon="2.40405">
        <ele>141</ele>
        <time>2021-08-26T14:31:44Z</time>
      </trkpt>
      <trkpt lat="47.05973" lon="2.40413">
        <ele>141</ele>
        <time>2021-08-26T14:31:44Z</time>
      </trkpt>
      <trkpt lat="47.05972" lon="2.40421">
        <ele>142</ele>
        <time>2021-08-26T14:31:44Z</time>
      </trkpt>
      <trkpt lat="47.0597" lon="2.4043">
        <ele>142</ele>
        <time>2021-08-26T14:31:44Z</time>
      </trkpt>
      <trkpt lat="47.05969" lon="2.40438">
        <ele>142</ele>
        <time>2021-08-26T14:31:44Z</time>
      </trkpt>
      <trkpt lat="47.05969" lon="2.40447">
        <ele>142</ele>
        <time>2021-08-26T14:31:44Z</time>
      </trkpt>
      <trkpt lat="47.05968" lon="2.40457">
        <ele>142</ele>
        <time>2021-08-26T14:31:44Z</time>
      </trkpt>
      <trkpt lat="47.05966" lon="2.40467">
        <ele>142</ele>
        <time>2021-08-26T14:31:44Z</time>
      </trkpt>
      <trkpt lat="47.05965" lon="2.40477">
        <ele>141</ele>
        <time>2021-08-26T14:31:44Z</time>
      </trkpt>
      <trkpt lat="47.05963" lon="2.40488">
        <ele>140</ele>
        <time>2021-08-26T14:31:44Z</time>
      </trkpt>
      <trkpt lat="47.05962" lon="2.40499">
        <ele>139</ele>
        <time>2021-08-26T14:31:44Z</time>
      </trkpt>
      <trkpt lat="47.05954" lon="2.40559">
        <ele>136</ele>
        <time>2021-08-26T14:31:44Z</time>
      </trkpt>
      <trkpt lat="47.05945" lon="2.40589">
        <ele>136</ele>
        <time>2021-08-26T14:31:44Z</time>
      </trkpt>
      <trkpt lat="47.05954" lon="2.40615">
        <ele>138</ele>
        <time>2021-08-26T14:31:44Z</time>
      </trkpt>
      <trkpt lat="47.05962" lon="2.40654">
        <ele>139</ele>
        <time>2021-08-26T14:31:44Z</time>
      </trkpt>
      <trkpt lat="47.05975" lon="2.40692">
        <ele>139</ele>
        <time>2021-08-26T14:31:44Z</time>
      </trkpt>
      <trkpt lat="47.05986" lon="2.40717">
        <ele>139</ele>
        <time>2021-08-26T14:31:44Z</time>
      </trkpt>
      <trkpt lat="47.05987" lon="2.40721">
        <ele>139</ele>
        <time>2021-08-26T14:31:44Z</time>
      </trkpt>
      <trkpt lat="47.06" lon="2.40741">
        <ele>138</ele>
        <time>2021-08-26T14:31:44Z</time>
      </trkpt>
      <trkpt lat="47.06007" lon="2.4075">
        <ele>138</ele>
        <time>2021-08-26T14:31:44Z</time>
      </trkpt>
      <trkpt lat="47.06025" lon="2.40773">
        <ele>141</ele>
        <time>2021-08-26T14:31:44Z</time>
      </trkpt>
      <trkpt lat="47.06045" lon="2.40796">
        <ele>144</ele>
        <time>2021-08-26T14:31:44Z</time>
      </trkpt>
      <trkpt lat="47.06064" lon="2.40819">
        <ele>146</ele>
        <time>2021-08-26T14:31:44Z</time>
      </trkpt>
      <trkpt lat="47.06077" lon="2.40837">
        <ele>147</ele>
        <time>2021-08-26T14:31:44Z</time>
      </trkpt>
      <trkpt lat="47.06082" lon="2.40841">
        <ele>147</ele>
        <time>2021-08-26T14:31:44Z</time>
      </trkpt>
      <trkpt lat="47.061" lon="2.40864">
        <ele>147</ele>
        <time>2021-08-26T14:31:44Z</time>
      </trkpt>
      <trkpt lat="47.06116" lon="2.40885">
        <ele>148</ele>
        <time>2021-08-26T14:31:44Z</time>
      </trkpt>
      <trkpt lat="47.06135" lon="2.40908">
        <ele>149</ele>
        <time>2021-08-26T14:31:44Z</time>
      </trkpt>
      <trkpt lat="47.06144" lon="2.40932">
        <ele>151</ele>
        <time>2021-08-26T14:31:44Z</time>
      </trkpt>
      <trkpt lat="47.06164" lon="2.4094">
        <ele>153</ele>
        <time>2021-08-26T14:31:44Z</time>
      </trkpt>
      <trkpt lat="47.06177" lon="2.40958">
        <ele>154</ele>
        <time>2021-08-26T14:31:44Z</time>
      </trkpt>
      <trkpt lat="47.06181" lon="2.40963">
        <ele>154</ele>
        <time>2021-08-26T14:31:44Z</time>
      </trkpt>
      <trkpt lat="47.06202" lon="2.40988">
        <ele>154</ele>
        <time>2021-08-26T14:31:44Z</time>
      </trkpt>
      <trkpt lat="47.06222" lon="2.41014">
        <ele>154</ele>
        <time>2021-08-26T14:31:44Z</time>
      </trkpt>
      <trkpt lat="47.0625" lon="2.41047">
        <ele>154</ele>
        <time>2021-08-26T14:31:44Z</time>
      </trkpt>
      <trkpt lat="47.06273" lon="2.41077">
        <ele>154</ele>
        <time>2021-08-26T14:31:44Z</time>
      </trkpt>
      <trkpt lat="47.06299" lon="2.41107">
        <ele>154</ele>
        <time>2021-08-26T14:31:44Z</time>
      </trkpt>
      <trkpt lat="47.06323" lon="2.41137">
        <ele>153</ele>
        <time>2021-08-26T14:31:44Z</time>
      </trkpt>
      <trkpt lat="47.06328" lon="2.41143">
        <ele>153</ele>
        <time>2021-08-26T14:31:44Z</time>
      </trkpt>
      <trkpt lat="47.06333" lon="2.41149">
        <ele>153</ele>
        <time>2021-08-26T14:31:44Z</time>
      </trkpt>
      <trkpt lat="47.06344" lon="2.41162">
        <ele>153</ele>
        <time>2021-08-26T14:31:44Z</time>
      </trkpt>
      <trkpt lat="47.0635" lon="2.41169">
        <ele>153</ele>
        <time>2021-08-26T14:31:44Z</time>
      </trkpt>
      <trkpt lat="47.06355" lon="2.41176">
        <ele>153</ele>
        <time>2021-08-26T14:31:44Z</time>
      </trkpt>
      <trkpt lat="47.0636" lon="2.41181">
        <ele>153</ele>
        <time>2021-08-26T14:31:44Z</time>
      </trkpt>
      <trkpt lat="47.06366" lon="2.41188">
        <ele>153</ele>
        <time>2021-08-26T14:31:44Z</time>
      </trkpt>
      <trkpt lat="47.06378" lon="2.412">
        <ele>152</ele>
        <time>2021-08-26T14:31:44Z</time>
      </trkpt>
      <trkpt lat="47.06385" lon="2.41206">
        <ele>152</ele>
        <time>2021-08-26T14:31:44Z</time>
      </trkpt>
      <trkpt lat="47.06392" lon="2.41212">
        <ele>152</ele>
        <time>2021-08-26T14:31:44Z</time>
      </trkpt>
      <trkpt lat="47.06399" lon="2.41217">
        <ele>151</ele>
        <time>2021-08-26T14:31:44Z</time>
      </trkpt>
      <trkpt lat="47.06406" lon="2.41223">
        <ele>150</ele>
        <time>2021-08-26T14:31:44Z</time>
      </trkpt>
      <trkpt lat="47.06412" lon="2.41227">
        <ele>149</ele>
        <time>2021-08-26T14:31:44Z</time>
      </trkpt>
      <trkpt lat="47.06417" lon="2.4123">
        <ele>149</ele>
        <time>2021-08-26T14:31:44Z</time>
      </trkpt>
      <trkpt lat="47.06423" lon="2.41233">
        <ele>148</ele>
        <time>2021-08-26T14:31:44Z</time>
      </trkpt>
      <trkpt lat="47.06428" lon="2.41235">
        <ele>148</ele>
        <time>2021-08-26T14:31:44Z</time>
      </trkpt>
      <trkpt lat="47.06432" lon="2.41238">
        <ele>147</ele>
        <time>2021-08-26T14:31:44Z</time>
      </trkpt>
      <trkpt lat="47.06435" lon="2.41239">
        <ele>147</ele>
        <time>2021-08-26T14:31:44Z</time>
      </trkpt>
      <trkpt lat="47.06439" lon="2.41239">
        <ele>147</ele>
        <time>2021-08-26T14:31:44Z</time>
      </trkpt>
      <trkpt lat="47.06442" lon="2.4124">
        <ele>146</ele>
        <time>2021-08-26T14:31:44Z</time>
      </trkpt>
      <trkpt lat="47.06445" lon="2.41242">
        <ele>146</ele>
        <time>2021-08-26T14:31:44Z</time>
      </trkpt>
      <trkpt lat="47.0645" lon="2.41244">
        <ele>146</ele>
        <time>2021-08-26T14:31:44Z</time>
      </trkpt>
      <trkpt lat="47.06455" lon="2.41245">
        <ele>146</ele>
        <time>2021-08-26T14:31:44Z</time>
      </trkpt>
      <trkpt lat="47.06461" lon="2.41245">
        <ele>146</ele>
        <time>2021-08-26T14:31:44Z</time>
      </trkpt>
      <trkpt lat="47.06467" lon="2.41244">
        <ele>146</ele>
        <time>2021-08-26T14:31:44Z</time>
      </trkpt>
      <trkpt lat="47.06474" lon="2.41244">
        <ele>146</ele>
        <time>2021-08-26T14:31:44Z</time>
      </trkpt>
      <trkpt lat="47.06481" lon="2.41244">
        <ele>146</ele>
        <time>2021-08-26T14:31:44Z</time>
      </trkpt>
      <trkpt lat="47.06488" lon="2.41243">
        <ele>146</ele>
        <time>2021-08-26T14:31:44Z</time>
      </trkpt>
      <trkpt lat="47.06495" lon="2.41243">
        <ele>145</ele>
        <time>2021-08-26T14:31:44Z</time>
      </trkpt>
      <trkpt lat="47.06507" lon="2.41242">
        <ele>145</ele>
        <time>2021-08-26T14:31:44Z</time>
      </trkpt>
      <trkpt lat="47.06514" lon="2.41242">
        <ele>145</ele>
        <time>2021-08-26T14:31:44Z</time>
      </trkpt>
      <trkpt lat="47.06521" lon="2.41242">
        <ele>145</ele>
        <time>2021-08-26T14:31:44Z</time>
      </trkpt>
      <trkpt lat="47.06526" lon="2.41242">
        <ele>145</ele>
        <time>2021-08-26T14:31:44Z</time>
      </trkpt>
      <trkpt lat="47.06532" lon="2.41241">
        <ele>145</ele>
        <time>2021-08-26T14:31:44Z</time>
      </trkpt>
      <trkpt lat="47.06542" lon="2.4124">
        <ele>146</ele>
        <time>2021-08-26T14:31:44Z</time>
      </trkpt>
      <trkpt lat="47.06548" lon="2.4124">
        <ele>146</ele>
        <time>2021-08-26T14:31:44Z</time>
      </trkpt>
      <trkpt lat="47.06553" lon="2.41238">
        <ele>146</ele>
        <time>2021-08-26T14:31:44Z</time>
      </trkpt>
      <trkpt lat="47.06557" lon="2.41238">
        <ele>147</ele>
        <time>2021-08-26T14:31:44Z</time>
      </trkpt>
      <trkpt lat="47.06562" lon="2.41239">
        <ele>147</ele>
        <time>2021-08-26T14:31:44Z</time>
      </trkpt>
      <trkpt lat="47.06568" lon="2.4124">
        <ele>147</ele>
        <time>2021-08-26T14:31:44Z</time>
      </trkpt>
      <trkpt lat="47.06573" lon="2.4124">
        <ele>147</ele>
        <time>2021-08-26T14:31:44Z</time>
      </trkpt>
      <trkpt lat="47.06577" lon="2.41239">
        <ele>147</ele>
        <time>2021-08-26T14:31:44Z</time>
      </trkpt>
      <trkpt lat="47.06583" lon="2.41239">
        <ele>147</ele>
        <time>2021-08-26T14:31:44Z</time>
      </trkpt>
      <trkpt lat="47.0659" lon="2.4124">
        <ele>148</ele>
        <time>2021-08-26T14:31:44Z</time>
      </trkpt>
      <trkpt lat="47.06596" lon="2.4124">
        <ele>148</ele>
        <time>2021-08-26T14:31:44Z</time>
      </trkpt>
      <trkpt lat="47.06602" lon="2.41241">
        <ele>149</ele>
        <time>2021-08-26T14:31:44Z</time>
      </trkpt>
      <trkpt lat="47.06607" lon="2.4124">
        <ele>149</ele>
        <time>2021-08-26T14:31:44Z</time>
      </trkpt>
      <trkpt lat="47.06612" lon="2.41241">
        <ele>149</ele>
        <time>2021-08-26T14:31:44Z</time>
      </trkpt>
      <trkpt lat="47.06617" lon="2.41241">
        <ele>150</ele>
        <time>2021-08-26T14:31:44Z</time>
      </trkpt>
      <trkpt lat="47.06622" lon="2.41241">
        <ele>150</ele>
        <time>2021-08-26T14:31:44Z</time>
      </trkpt>
      <trkpt lat="47.06628" lon="2.41241">
        <ele>151</ele>
        <time>2021-08-26T14:31:44Z</time>
      </trkpt>
      <trkpt lat="47.06634" lon="2.41241">
        <ele>152</ele>
        <time>2021-08-26T14:31:44Z</time>
      </trkpt>
      <trkpt lat="47.0664" lon="2.41242">
        <ele>152</ele>
        <time>2021-08-26T14:31:44Z</time>
      </trkpt>
      <trkpt lat="47.06645" lon="2.41242">
        <ele>153</ele>
        <time>2021-08-26T14:31:44Z</time>
      </trkpt>
      <trkpt lat="47.06652" lon="2.41242">
        <ele>153</ele>
        <time>2021-08-26T14:31:44Z</time>
      </trkpt>
      <trkpt lat="47.06656" lon="2.41242">
        <ele>153</ele>
        <time>2021-08-26T14:31:44Z</time>
      </trkpt>
      <trkpt lat="47.06662" lon="2.41243">
        <ele>153</ele>
        <time>2021-08-26T14:31:44Z</time>
      </trkpt>
      <trkpt lat="47.06688" lon="2.41253">
        <ele>154</ele>
        <time>2021-08-26T14:31:44Z</time>
      </trkpt>
      <trkpt lat="47.06712" lon="2.41269">
        <ele>154</ele>
        <time>2021-08-26T14:31:44Z</time>
      </trkpt>
      <trkpt lat="47.06731" lon="2.41289">
        <ele>155</ele>
        <time>2021-08-26T14:31:44Z</time>
      </trkpt>
      <trkpt lat="47.06749" lon="2.41313">
        <ele>155</ele>
        <time>2021-08-26T14:31:44Z</time>
      </trkpt>
      <trkpt lat="47.06759" lon="2.41334">
        <ele>154</ele>
        <time>2021-08-26T14:31:44Z</time>
      </trkpt>
      <trkpt lat="47.06771" lon="2.41357">
        <ele>154</ele>
        <time>2021-08-26T14:31:44Z</time>
      </trkpt>
      <trkpt lat="47.06773" lon="2.41364">
        <ele>154</ele>
        <time>2021-08-26T14:31:44Z</time>
      </trkpt>
      <trkpt lat="47.06787" lon="2.41402">
        <ele>155</ele>
        <time>2021-08-26T14:31:44Z</time>
      </trkpt>
      <trkpt lat="47.06803" lon="2.41441">
        <ele>155</ele>
        <time>2021-08-26T14:31:44Z</time>
      </trkpt>
      <trkpt lat="47.06817" lon="2.41475">
        <ele>155</ele>
        <time>2021-08-26T14:31:44Z</time>
      </trkpt>
      <trkpt lat="47.06831" lon="2.41506">
        <ele>155</ele>
        <time>2021-08-26T14:31:44Z</time>
      </trkpt>
      <trkpt lat="47.0684" lon="2.41524">
        <ele>156</ele>
        <time>2021-08-26T14:31:44Z</time>
      </trkpt>
      <trkpt lat="47.0684" lon="2.41524">
        <ele>156</ele>
        <time>2021-08-26T14:31:44Z</time>
      </trkpt>
      <trkpt lat="47.0684" lon="2.41524">
        <ele>156</ele>
        <time>2021-08-26T14:31:44Z</time>
      </trkpt>
      <trkpt lat="47.06845" lon="2.41521">
        <ele>156</ele>
        <time>2021-08-26T14:31:44Z</time>
      </trkpt>
      <trkpt lat="47.06859" lon="2.41526">
        <ele>156</ele>
        <time>2021-08-26T14:31:44Z</time>
      </trkpt>
      <trkpt lat="47.06863" lon="2.41531">
        <ele>156</ele>
        <time>2021-08-26T14:31:44Z</time>
      </trkpt>
      <trkpt lat="47.06865" lon="2.41534">
        <ele>156</ele>
        <time>2021-08-26T14:31:44Z</time>
      </trkpt>
      <trkpt lat="47.06867" lon="2.41538">
        <ele>156</ele>
        <time>2021-08-26T14:31:44Z</time>
      </trkpt>
      <trkpt lat="47.06871" lon="2.41541">
        <ele>156</ele>
        <time>2021-08-26T14:31:44Z</time>
      </trkpt>
      <trkpt lat="47.06875" lon="2.41542">
        <ele>156</ele>
        <time>2021-08-26T14:31:44Z</time>
      </trkpt>
      <trkpt lat="47.06879" lon="2.41539">
        <ele>156</ele>
        <time>2021-08-26T14:31:44Z</time>
      </trkpt>
      <trkpt lat="47.06883" lon="2.41534">
        <ele>156</ele>
        <time>2021-08-26T14:31:44Z</time>
      </trkpt>
      <trkpt lat="47.06886" lon="2.41527">
        <ele>157</ele>
        <time>2021-08-26T14:31:44Z</time>
      </trkpt>
      <trkpt lat="47.06907" lon="2.41502">
        <ele>157</ele>
        <time>2021-08-26T14:31:44Z</time>
      </trkpt>
      <trkpt lat="47.06927" lon="2.41478">
        <ele>156</ele>
        <time>2021-08-26T14:31:44Z</time>
      </trkpt>
      <trkpt lat="47.0695" lon="2.41452">
        <ele>156</ele>
        <time>2021-08-26T14:31:44Z</time>
      </trkpt>
      <trkpt lat="47.06971" lon="2.41425">
        <ele>156</ele>
        <time>2021-08-26T14:31:44Z</time>
      </trkpt>
      <trkpt lat="47.06991" lon="2.41401">
        <ele>156</ele>
        <time>2021-08-26T14:31:44Z</time>
      </trkpt>
      <trkpt lat="47.07003" lon="2.41387">
        <ele>156</ele>
        <time>2021-08-26T14:31:44Z</time>
      </trkpt>
      <trkpt lat="47.07004" lon="2.41382">
        <ele>156</ele>
        <time>2021-08-26T14:31:44Z</time>
      </trkpt>
      <trkpt lat="47.07001" lon="2.41375">
        <ele>156</ele>
        <time>2021-08-26T14:31:44Z</time>
      </trkpt>
      <trkpt lat="47.06999" lon="2.41373">
        <ele>156</ele>
        <time>2021-08-26T14:31:44Z</time>
      </trkpt>
      <trkpt lat="47.06996" lon="2.41372">
        <ele>156</ele>
        <time>2021-08-26T14:31:44Z</time>
      </trkpt>
      <trkpt lat="47.06994" lon="2.41374">
        <ele>156</ele>
        <time>2021-08-26T14:31:44Z</time>
      </trkpt>
      <trkpt lat="47.0699" lon="2.41376">
        <ele>156</ele>
        <time>2021-08-26T14:31:44Z</time>
      </trkpt>
      <trkpt lat="47.06986" lon="2.41376">
        <ele>156</ele>
        <time>2021-08-26T14:31:44Z</time>
      </trkpt>
      <trkpt lat="47.06982" lon="2.41372">
        <ele>156</ele>
        <time>2021-08-26T14:31:44Z</time>
      </trkpt>
      <trkpt lat="47.0698" lon="2.41364">
        <ele>156</ele>
        <time>2021-08-26T14:31:44Z</time>
      </trkpt>
      <trkpt lat="47.06977" lon="2.41358">
        <ele>157</ele>
        <time>2021-08-26T14:31:44Z</time>
      </trkpt>
      <trkpt lat="47.06973" lon="2.41351">
        <ele>157</ele>
        <time>2021-08-26T14:31:44Z</time>
      </trkpt>
      <trkpt lat="47.0697" lon="2.41344">
        <ele>157</ele>
        <time>2021-08-26T14:31:44Z</time>
      </trkpt>
      <trkpt lat="47.06967" lon="2.41336">
        <ele>157</ele>
        <time>2021-08-26T14:31:44Z</time>
      </trkpt>
      <trkpt lat="47.06963" lon="2.41329">
        <ele>157</ele>
        <time>2021-08-26T14:31:44Z</time>
      </trkpt>
      <trkpt lat="47.0696" lon="2.41322">
        <ele>157</ele>
        <time>2021-08-26T14:31:44Z</time>
      </trkpt>
      <trkpt lat="47.06956" lon="2.41314">
        <ele>156</ele>
        <time>2021-08-26T14:31:44Z</time>
      </trkpt>
      <trkpt lat="47.06938" lon="2.41275">
        <ele>154</ele>
        <time>2021-08-26T14:31:44Z</time>
      </trkpt>
      <trkpt lat="47.06919" lon="2.41232">
        <ele>155</ele>
        <time>2021-08-26T14:31:44Z</time>
      </trkpt>
      <trkpt lat="47.06899" lon="2.41191">
        <ele>156</ele>
        <time>2021-08-26T14:31:44Z</time>
      </trkpt>
      <trkpt lat="47.06876" lon="2.41149">
        <ele>155</ele>
        <time>2021-08-26T14:31:44Z</time>
      </trkpt>
      <trkpt lat="47.06852" lon="2.41108">
        <ele>153</ele>
        <time>2021-08-26T14:31:44Z</time>
      </trkpt>
      <trkpt lat="47.06834" lon="2.41076">
        <ele>154</ele>
        <time>2021-08-26T14:31:44Z</time>
      </trkpt>
      <trkpt lat="47.0683" lon="2.41068">
        <ele>154</ele>
        <time>2021-08-26T14:31:44Z</time>
      </trkpt>
      <trkpt lat="47.0681" lon="2.4103">
        <ele>154</ele>
        <time>2021-08-26T14:31:44Z</time>
      </trkpt>
      <trkpt lat="47.06811" lon="2.41002">
        <ele>154</ele>
        <time>2021-08-26T14:31:44Z</time>
      </trkpt>
      <trkpt lat="47.06838" lon="2.40986">
        <ele>153</ele>
        <time>2021-08-26T14:31:44Z</time>
      </trkpt>
      <trkpt lat="47.06867" lon="2.40973">
        <ele>153</ele>
        <time>2021-08-26T14:31:44Z</time>
      </trkpt>
      <trkpt lat="47.06895" lon="2.40956">
        <ele>152</ele>
        <time>2021-08-26T14:31:44Z</time>
      </trkpt>
      <trkpt lat="47.06913" lon="2.40943">
        <ele>152</ele>
        <time>2021-08-26T14:31:44Z</time>
      </trkpt>
      <trkpt lat="47.06918" lon="2.4094">
        <ele>152</ele>
        <time>2021-08-26T14:31:44Z</time>
      </trkpt>
      <trkpt lat="47.06927" lon="2.40919">
        <ele>152</ele>
        <time>2021-08-26T14:31:44Z</time>
      </trkpt>
      <trkpt lat="47.06919" lon="2.40875">
        <ele>151</ele>
        <time>2021-08-26T14:31:44Z</time>
      </trkpt>
      <trkpt lat="47.06909" lon="2.40824">
        <ele>150</ele>
        <time>2021-08-26T14:31:44Z</time>
      </trkpt>
      <trkpt lat="47.069" lon="2.40777">
        <ele>148</ele>
        <time>2021-08-26T14:31:44Z</time>
      </trkpt>
      <trkpt lat="47.06891" lon="2.40731">
        <ele>147</ele>
        <time>2021-08-26T14:31:44Z</time>
      </trkpt>
      <trkpt lat="47.06883" lon="2.40692">
        <ele>145</ele>
        <time>2021-08-26T14:31:44Z</time>
      </trkpt>
      <trkpt lat="47.06881" lon="2.40683">
        <ele>145</ele>
        <time>2021-08-26T14:31:44Z</time>
      </trkpt>
      <trkpt lat="47.06879" lon="2.40656">
        <ele>145</ele>
        <time>2021-08-26T14:31:44Z</time>
      </trkpt>
      <trkpt lat="47.06875" lon="2.40622">
        <ele>146</ele>
        <time>2021-08-26T14:31:44Z</time>
      </trkpt>
      <trkpt lat="47.06855" lon="2.40615">
        <ele>146</ele>
        <time>2021-08-26T14:31:44Z</time>
      </trkpt>
      <trkpt lat="47.06832" lon="2.40629">
        <ele>146</ele>
        <time>2021-08-26T14:31:44Z</time>
      </trkpt>
      <trkpt lat="47.06827" lon="2.40631">
        <ele>147</ele>
        <time>2021-08-26T14:31:44Z</time>
      </trkpt>
      <trkpt lat="47.06822" lon="2.40633">
        <ele>147</ele>
        <time>2021-08-26T14:31:44Z</time>
      </trkpt>
      <trkpt lat="47.06817" lon="2.40635">
        <ele>147</ele>
        <time>2021-08-26T14:31:44Z</time>
      </trkpt>
      <trkpt lat="47.06812" lon="2.40637">
        <ele>148</ele>
        <time>2021-08-26T14:31:44Z</time>
      </trkpt>
      <trkpt lat="47.06807" lon="2.4064">
        <ele>148</ele>
        <time>2021-08-26T14:31:44Z</time>
      </trkpt>
      <trkpt lat="47.06803" lon="2.40643">
        <ele>149</ele>
        <time>2021-08-26T14:31:44Z</time>
      </trkpt>
      <trkpt lat="47.06799" lon="2.40646">
        <ele>149</ele>
        <time>2021-08-26T14:31:44Z</time>
      </trkpt>
      <trkpt lat="47.06794" lon="2.40648">
        <ele>149</ele>
        <time>2021-08-26T14:31:44Z</time>
      </trkpt>
      <trkpt lat="47.06789" lon="2.40651">
        <ele>149</ele>
        <time>2021-08-26T14:31:44Z</time>
      </trkpt>
      <trkpt lat="47.06784" lon="2.40654">
        <ele>149</ele>
        <time>2021-08-26T14:31:44Z</time>
      </trkpt>
      <trkpt lat="47.06779" lon="2.40656">
        <ele>149</ele>
        <time>2021-08-26T14:31:44Z</time>
      </trkpt>
      <trkpt lat="47.06775" lon="2.40659">
        <ele>149</ele>
        <time>2021-08-26T14:31:44Z</time>
      </trkpt>
      <trkpt lat="47.0677" lon="2.40661">
        <ele>149</ele>
        <time>2021-08-26T14:31:44Z</time>
      </trkpt>
      <trkpt lat="47.06747" lon="2.40673">
        <ele>149</ele>
        <time>2021-08-26T14:31:44Z</time>
      </trkpt>
      <trkpt lat="47.06731" lon="2.40687">
        <ele>149</ele>
        <time>2021-08-26T14:31:44Z</time>
      </trkpt>
      <trkpt lat="47.0673" lon="2.40687">
        <ele>149</ele>
        <time>2021-08-26T14:31:44Z</time>
      </trkpt>
      <trkpt lat="47.0673" lon="2.40687">
        <ele>149</ele>
        <time>2021-08-26T14:31:44Z</time>
      </trkpt>
    </trkseg>
  </trk>
</gpx>